GFSNW_850_rhum_000.txt.gz
RH
43 44 51 49 46 35 34 46 54 48 46 55 69 70 66 65 64 65 60 58 60 59 66 66 65 59 57 59 54 57 51 54 56 52 46 31 28 26 23 35 40 29 32 32
42 49 51 50 49 35 39 51 55 48 46 62 67 59 57 60 61 65 59 63 60 60 65 65 66 66 59 63 51 53 50 59 48 48 48 42 47 36 32 35 40 48 43 32
32 41 51 54 49 46 40 48 43 50 51 65 57 57 57 58 58 63 68 66 60 56 64 60 68 65 56 67 60 57 48 54 52 32 36 40 47 43 36 37 41 35 36 30
64 34 37 42 54 49 47 52 66 65 55 56 57 54 55 55 56 59 63 62 60 57 62 61 60 59 52 54 54 58 52 58 53 48 46 47 48 45 42 45 40 44 35 31
100 82 39 34 42 48 46 57 58 59 66 65 54 59 55 54 52 49 56 58 62 61 55 52 56 56 56 51 52 50 55 51 53 47 34 40 50 46 44 45 41 40 38 39
100 100 86 62 36 42 46 50 55 54 67 63 55 50 50 51 48 51 55 57 55 59 59 62 62 61 60 60 54 52 54 47 43 37 52 50 44 34 38 35 33 37 42 30
96 100 99 97 73 40 44 48 52 54 52 53 54 54 58 54 52 46 47 58 48 48 43 36 38 40 44 48 47 58 49 57 58 52 50 64 38 36 39 41 34 31 33 36
94 100 100 98 98 89 59 51 50 49 45 46 48 54 49 52 53 50 50 48 48 43 37 35 38 38 40 43 52 47 53 48 51 62 54 43 40 33 42 49 36 37 40 54
98 98 99 100 100 97 97 86 60 60 64 64 48 46 51 44 46 46 52 46 47 44 41 43 64 66 45 48 48 73 65 51 54 82 84 73 41 36 40 38 47 40 53 57
89 95 97 91 97 100 100 98 98 90 74 71 62 62 64 51 50 51 55 55 54 48 60 66 71 62 49 54 49 72 90 85 80 73 79 56 40 35 44 54 43 66 53 43
89 95 98 99 96 99 99 99 100 98 90 90 84 71 61 54 52 64 58 61 66 71 70 70 64 65 53 56 47 66 67 84 84 74 86 86 44 48 52 43 61 53 49 51
87 92 94 94 99 100 100 99 100 100 99 98 93 91 86 79 73 66 58 65 65 62 72 71 69 74 70 55 69 45 57 46 49 61 63 44 48 48 53 50 46 52 58 65
88 84 98 96 99 99 99 100 100 100 100 98 99 89 78 86 81 84 71 62 55 55 58 75 84 99 80 82 68 56 45 41 49 46 41 42 42 52 53 52 53 52 58 65
74 78 87 98 100 100 100 100 100 100 98 100 86 80 78 75 75 83 87 80 79 77 71 87 93 99 83 89 63 65 50 50 50 48 41 40 40 44 51 57 64 68 70 70
62 65 86 100 98 98 100 100 100 100 99 99 95 79 77 78 80 79 80 89 89 84 94 96 96 96 92 91 93 92 63 55 56 57 42 45 48 52 65 73 74 77 82 89
50 53 56 93 100 99 100 98 100 100 100 100 100 93 80 71 74 90 93 98 98 90 89 96 94 94 88 99 97 68 68 67 59 55 56 56 60 59 72 79 85 89 97 97
46 51 80 99 98 96 99 99 97 93 100 99 99 98 88 86 90 93 100 100 99 98 97 100 97 98 97 96 94 64 60 58 63 68 70 75 73 71 78 84 93 100 98 77
96 100 100 99 97 97 100 100 100 99 99 99 100 99 89 89 100 96 100 100 100 100 99 99 99 93 100 99 69 63 62 66 70 75 76 84 83 89 98 100 99 93 38 25
100 98 100 99 99 99 94 93 99 100 100 99 100 100 96 95 99 96 96 99 100 99 98 94 96 92 98 80 64 63 66 72 72 75 85 92 100 100 100 99 62 22 23 26
100 100 100 96 98 97 92 96 96 100 100 100 99 92 90 91 97 100 100 100 100 100 95 97 100 87 67 66 66 67 74 76 76 88 100 100 99 99 98 35 20 25 26 29
99 100 98 94 100 97 99 99 99 99 100 99 98 94 88 91 95 98 99 100 100 100 82 98 85 82 72 70 66 67 74 82 83 86 90 100 98 84 17 21 24 27 27 27
93 92 100 99 99 100 100 99 98 98 95 88 96 98 93 99 96 99 100 99 97 96 88 92 85 63 67 60 65 76 92 93 93 99 96 79 21 11 16 22 25 28 30 32
94 93 96 98 100 100 99 98 98 98 92 92 99 97 100 100 100 99 100 99 92 80 92 79 63 59 57 59 69 87 98 100 99 60 31 9 12 20 24 27 32 35 36 36
82 98 99 96 99 93 90 80 80 77 76 92 96 99 97 100 99 96 96 84 88 92 93 84 53 54 48 55 72 90 96 97 68 18 14 16 21 25 32 38 40 39 35 36
87 98 93 94 88 85 83 80 74 75 77 91 95 98 94 96 96 90 94 94 91 79 74 58 51 43 42 55 75 84 80 72 41 12 15 24 32 36 39 43 40 36 37 41
94 97 98 97 98 96 96 89 82 78 86 88 90 95 95 91 93 95 90 86 87 69 69 56 46 41 42 58 72 80 78 56 17 17 27 34 36 40 43 42 39 39 44 46
99 98 91 90 90 79 73 75 76 80 94 94 94 96 88 90 94 92 78 87 67 62 42 37 31 36 47 54 66 74 72 43 26 30 33 38 43 46 47 45 41 45 46 46

GFSNW_850_rhum_003.txt.gz
RH
47 42 46 44 37 35 32 51 44 41 45 46 47 57 54 55 58 56 52 49 49 46 50 53 51 51 52 52 49 48 46 41 46 44 35 28 25 24 22 31 33 29 30 28
41 44 49 48 40 36 36 53 53 44 50 50 56 54 55 55 54 57 50 54 51 49 55 60 54 55 53 55 48 51 46 48 45 52 47 42 45 33 28 26 39 40 35 27
41 35 41 49 49 42 35 46 44 40 54 55 47 50 53 57 55 56 55 54 47 48 52 51 60 56 53 62 54 55 48 48 49 43 40 36 44 44 38 37 43 36 32 29
70 62 30 43 50 41 49 55 55 57 44 50 44 44 46 46 49 52 51 50 48 46 52 50 55 49 49 48 50 50 48 48 40 40 37 35 36 37 35 38 35 37 29 27
82 82 60 32 42 42 63 46 40 48 48 50 40 45 46 45 43 43 50 52 52 43 48 43 52 47 46 45 44 42 46 44 43 39 25 25 29 32 31 31 32 31 31 31
92 85 82 72 34 40 62 52 49 44 54 44 38 40 41 43 41 47 51 48 46 48 52 48 46 46 46 44 41 41 43 36 34 36 27 36 44 33 31 31 27 27 34 27
95 91 89 90 70 37 44 53 64 41 42 37 39 45 46 44 43 39 44 48 40 49 42 38 38 34 31 30 31 35 39 41 41 45 40 65 34 28 29 29 27 26 26 26
91 98 93 86 93 79 53 46 62 50 41 36 41 43 40 44 47 44 44 46 50 42 37 36 41 37 40 40 45 34 32 39 45 57 51 40 36 30 32 36 37 27 28 26
100 99 96 94 86 89 90 86 77 70 59 52 44 40 43 44 42 47 50 49 48 45 34 42 73 67 48 49 56 58 50 41 43 62 78 73 37 33 35 32 45 33 31 35
91 100 100 100 98 92 92 92 91 87 83 74 58 59 60 47 45 48 52 55 53 47 44 58 71 63 45 58 53 63 66 61 60 59 69 55 34 30 36 52 41 50 46 47
90 96 100 100 100 99 96 96 97 97 92 87 78 70 65 56 53 62 60 61 61 53 55 55 62 57 49 53 43 51 58 72 74 63 72 86 36 37 50 35 42 54 49 45
92 93 96 100 100 100 100 99 98 98 98 97 90 91 88 65 67 67 58 69 59 51 65 68 65 67 66 56 70 42 56 44 46 63 60 38 39 39 40 43 43 43 47 49
86 91 96 100 100 100 100 100 100 100 99 98 97 86 79 88 84 71 67 64 61 61 66 70 81 88 73 78 66 56 44 39 45 44 38 35 34 36 39 47 51 51 57 64
72 82 93 100 100 100 98 99 100 100 98 99 89 84 77 72 73 80 80 78 68 64 64 84 89 92 76 78 60 66 52 50 50 49 42 41 39 38 48 52 52 54 58 65
64 76 89 100 99 99 99 99 99 99 100 97 96 94 86 85 79 78 85 84 80 84 88 92 94 88 90 88 85 86 57 53 54 56 42 44 47 52 57 60 68 72 73 72
58 67 100 100 99 99 100 100 99 100 100 100 100 92 89 94 88 99 98 98 92 90 92 94 91 88 84 96 98 61 52 52 56 55 55 56 57 66 68 72 78 86 92 98
59 75 100 99 99 98 100 97 96 99 100 99 98 94 94 89 96 100 99 98 99 97 96 99 96 98 94 95 87 56 49 50 52 54 56 58 62 77 77 80 84 95 100 99
83 98 99 98 96 97 100 100 100 100 99 94 99 98 86 88 97 91 99 99 99 100 99 98 98 94 99 100 69 61 59 55 55 56 62 70 74 85 89 94 100 99 98 79
98 98 98 100 100 99 94 93 91 99 100 99 100 100 98 94 97 99 99 97 95 97 98 92 94 86 99 81 69 61 55 59 64 74 75 78 86 98 100 100 99 97 57 25
99 99 98 92 98 95 99 100 100 99 96 100 99 98 86 87 89 96 92 99 93 100 90 96 100 84 63 60 61 65 65 69 83 88 95 98 99 99 98 97 69 30 18 22
100 97 89 96 100 99 95 99 99 99 100 100 99 95 92 87 92 98 94 100 100 99 82 97 90 80 64 58 68 69 64 61 63 89 96 90 92 96 96 60 18 17 24 31
99 92 98 100 99 98 100 100 99 99 98 93 97 97 97 99 92 96 100 100 99 97 80 91 84 61 58 55 52 52 59 74 87 88 90 96 99 96 50 29 22 27 30 30
100 94 92 97 99 100 99 92 96 95 95 98 99 99 99 99 99 100 100 100 93 73 83 80 63 55 57 59 56 60 71 87 89 96 99 84 41 14 15 25 28 29 29 30
83 98 100 96 95 85 87 77 87 86 81 96 97 99 92 94 99 91 97 80 80 89 90 84 46 45 50 40 45 61 74 96 92 78 52 17 7 16 22 26 28 32 35 38
87 95 92 99 81 90 89 82 74 75 79 97 98 98 88 90 94 89 89 93 89 75 72 52 43 46 38 35 43 62 79 88 74 53 20 11 14 21 27 30 34 41 42 39
90 98 99 94 98 98 95 86 94 78 94 84 94 92 93 91 89 94 89 83 81 71 69 66 61 38 30 30 42 53 68 79 75 60 21 13 22 29 32 37 41 44 42 38
100 99 96 89 85 84 84 80 81 76 87 93 93 96 88 83 94 92 73 84 61 63 60 53 36 29 25 30 37 40 54 66 72 62 24 21 35 38 42 47 47 44 40 38

GFSNW_850_rhum_006.txt.gz
RH
37 44 46 39 30 33 38 55 58 48 46 58 58 70 56 52 54 51 50 51 48 49 50 50 48 59 59 51 47 49 51 53 60 51 38 37 30 30 30 41 38 38 41 43
57 36 42 39 38 33 52 52 48 51 46 67 69 57 57 55 55 58 50 56 51 45 56 63 57 63 54 51 60 62 52 53 68 65 52 43 47 35 31 38 43 54 45 40
87 60 34 41 37 35 48 52 55 50 46 44 51 52 54 60 54 55 50 52 47 48 57 53 65 62 62 58 56 52 52 52 55 57 48 42 51 47 42 45 53 47 44 38
99 82 51 37 34 36 50 47 57 55 62 56 49 47 42 50 54 50 46 52 47 45 56 56 57 55 58 49 49 48 53 53 46 44 40 37 39 42 41 50 46 52 35 35
95 95 75 38 35 36 53 60 46 44 46 43 34 40 48 46 46 49 50 57 47 44 55 50 56 49 44 49 45 44 51 52 42 44 34 30 35 32 30 34 37 38 37 37
93 93 92 80 34 39 56 54 47 46 50 44 38 51 48 51 41 48 51 49 48 60 49 39 37 39 43 46 45 46 47 45 45 45 33 38 49 38 37 35 32 32 38 31
92 92 94 90 61 42 43 46 54 48 47 38 43 44 41 46 48 46 46 43 43 49 38 35 33 32 31 30 33 36 48 48 48 57 49 72 43 30 31 38 32 31 32 32
86 93 96 93 90 69 47 48 53 53 46 38 43 43 45 45 45 48 45 48 50 42 37 43 45 43 43 41 52 47 34 46 54 69 67 54 46 37 36 38 42 34 37 36
88 92 98 96 92 89 80 74 68 62 58 54 39 38 39 46 46 50 53 45 45 40 42 48 82 86 52 56 67 56 52 43 57 90 82 90 43 40 36 36 61 45 42 42
90 85 95 99 97 94 90 84 82 81 74 62 55 59 57 46 48 53 51 49 48 47 52 71 84 69 48 64 57 80 72 65 71 70 79 68 43 42 37 59 59 48 46 45
92 90 90 100 100 98 94 90 87 85 88 80 66 67 67 55 52 64 59 62 62 59 62 69 67 68 57 58 47 56 74 86 85 72 75 83 36 43 52 45 40 44 51 48
93 95 98 96 99 100 100 99 98 94 91 91 83 79 76 62 59 63 56 68 58 55 74 66 68 68 64 58 70 42 66 54 63 72 78 47 37 39 44 46 46 48 48 47
80 98 99 99 97 99 99 99 100 100 99 94 91 87 84 85 74 68 65 64 61 56 66 68 79 82 70 81 74 60 54 42 57 57 42 43 41 41 52 52 52 51 49 51
68 79 99 100 100 100 97 98 98 99 96 99 94 89 83 83 84 83 72 76 67 64 64 82 90 90 72 87 76 80 59 61 62 63 55 50 46 50 59 62 63 62 60 60
67 75 91 99 100 100 100 100 96 100 99 100 97 86 88 81 76 80 88 83 78 72 80 91 94 87 88 91 90 89 64 67 76 71 51 57 56 55 57 60 66 71 71 73
77 76 98 98 98 98 99 99 99 99 100 98 100 94 89 86 84 92 98 96 84 82 86 92 88 83 83 99 99 73 55 54 52 54 52 56 57 57 65 69 74 76 76 82
78 83 98 100 97 97 97 99 99 100 100 100 100 96 97 94 99 98 96 99 98 93 93 98 95 94 90 98 90 56 51 55 56 55 57 59 60 66 69 74 78 80 85 93
88 98 100 98 96 95 100 100 98 100 100 99 100 100 92 95 95 99 95 100 97 99 97 98 98 97 98 99 78 60 58 60 58 57 60 64 69 73 74 82 87 95 99 97
99 97 99 97 99 94 91 90 93 97 100 100 100 100 97 95 93 96 96 92 99 99 99 96 95 96 99 83 75 69 64 60 64 67 72 75 77 76 80 91 95 99 97 83
99 100 96 100 96 94 86 89 90 98 100 100 99 99 96 88 87 92 92 94 91 99 90 89 100 94 72 57 55 60 65 66 72 76 83 90 100 100 100 99 100 96 57 28
100 96 94 98 100 95 97 98 95 100 100 100 99 98 94 93 98 100 97 98 99 93 95 95 94 88 79 55 61 67 68 60 55 57 74 86 92 92 94 96 91 73 20 15
96 84 97 99 99 97 100 96 100 100 97 99 98 97 99 96 89 97 100 99 96 94 85 95 87 81 55 54 49 44 38 33 31 34 51 75 90 98 98 93 76 16 18 25
98 93 96 96 99 99 99 98 98 99 98 98 100 100 98 96 97 100 99 100 97 76 93 84 80 61 53 45 40 30 26 30 42 63 80 88 93 94 74 41 14 23 26 31
86 98 98 96 96 94 93 92 96 93 94 97 94 99 93 98 99 99 98 98 90 95 97 90 77 53 53 50 31 26 30 44 64 80 86 89 74 40 12 17 26 29 31 33
84 94 92 94 84 95 90 80 81 78 87 93 98 94 85 91 97 85 94 99 94 86 87 88 44 41 37 31 26 29 38 52 70 80 80 64 29 11 16 25 31 34 35 36
96 98 99 96 95 98 89 83 85 75 93 92 90 90 93 88 88 98 94 92 90 84 89 55 53 55 45 32 28 31 41 54 69 75 69 54 25 20 25 38 38 38 40 40
100 99 82 88 89 97 85 81 85 81 85 98 92 97 91 90 94 98 88 90 87 63 56 51 45 41 31 29 27 28 36 50 70 78 74 63 41 31 35 39 41 46 45 42

GFSNW_850_rhum_009.txt.gz
RH
97 50 39 39 36 31 40 56 63 52 58 70 77 84 63 54 63 60 56 59 63 68 70 56 73 76 66 53 53 56 52 59 66 55 40 37 34 34 35 47 42 46 49 44
100 76 46 39 41 34 48 53 50 45 49 83 83 60 62 60 64 62 58 61 58 53 58 71 69 69 60 57 60 58 53 62 81 67 51 46 48 39 34 42 52 55 48 44
100 95 68 36 40 42 52 53 64 43 44 51 66 63 62 65 54 56 53 54 49 55 64 63 71 69 63 57 56 54 52 56 57 65 51 53 56 48 44 48 60 55 56 41
95 92 79 41 36 49 55 48 59 60 71 55 56 52 52 59 61 51 49 54 50 54 63 61 65 64 61 50 50 48 55 56 49 45 41 39 41 44 46 55 53 52 36 39
93 92 88 74 33 47 52 53 53 48 54 45 50 58 55 54 54 55 57 63 57 54 61 58 61 58 53 54 47 51 52 57 43 43 38 36 38 38 39 42 44 50 48 45
91 92 90 88 40 45 52 53 53 43 49 50 53 55 51 52 53 49 51 52 60 59 49 40 38 41 46 51 50 53 52 49 49 46 46 43 47 38 39 37 33 34 42 33
87 91 90 90 61 46 51 52 55 48 55 53 57 49 51 53 51 54 47 46 54 48 37 35 32 30 31 32 40 42 56 53 56 62 54 74 42 38 34 39 39 36 34 35
88 87 91 91 92 63 46 52 53 49 57 54 51 52 56 49 49 54 54 50 49 40 37 51 51 54 48 56 65 62 44 56 61 72 76 62 49 48 40 41 44 40 40 46
85 85 91 92 90 87 70 70 67 61 59 57 42 47 44 58 59 56 53 46 43 41 50 60 82 82 62 63 71 63 52 56 62 88 83 86 56 42 38 39 54 49 47 48
87 90 87 92 88 89 88 81 79 78 69 53 46 61 54 46 58 66 54 47 44 44 58 77 84 76 52 70 70 78 75 71 73 79 83 73 54 42 38 54 55 46 46 46
83 86 82 87 93 87 83 84 83 79 86 72 62 65 58 52 51 70 57 61 60 60 64 78 77 75 67 62 59 76 79 90 85 79 83 84 44 44 50 55 52 52 51 52
78 87 91 88 93 97 89 80 85 84 81 90 82 72 68 58 55 58 56 70 60 56 80 78 78 74 73 69 73 50 65 68 80 75 73 48 48 50 53 54 55 54 53 52
62 75 89 94 100 98 98 97 97 94 93 90 86 85 86 82 64 64 56 65 57 55 64 72 80 75 76 82 79 61 58 51 66 60 52 50 55 60 56 59 59 61 60 59
60 66 86 95 95 100 100 99 92 97 92 95 97 91 84 86 86 71 70 64 64 61 61 81 86 84 71 87 82 83 67 63 71 74 60 53 49 52 57 62 62 63 65 67
64 69 88 96 87 97 100 100 100 100 90 98 96 91 92 86 81 90 82 74 67 65 74 87 93 89 84 90 94 99 70 75 85 86 61 64 60 57 58 61 65 70 74 73
72 73 94 99 99 100 99 98 94 99 99 84 99 96 94 94 91 89 95 86 78 78 82 89 87 81 79 97 90 74 64 58 58 66 59 56 59 62 66 72 76 78 80 82
72 80 99 99 97 93 98 96 98 99 100 93 100 100 98 96 96 99 99 96 89 84 88 93 93 87 88 98 98 65 56 60 55 57 58 60 62 65 68 70 73 77 81 85
76 93 99 98 97 98 100 100 98 100 98 100 100 100 93 95 98 99 99 100 97 97 94 98 98 98 96 100 84 68 62 60 62 63 62 64 66 69 71 74 78 81 83 90
97 97 95 98 96 88 94 100 100 100 97 99 100 100 100 95 98 98 97 94 99 99 99 98 92 98 99 87 83 71 65 62 62 66 68 68 69 73 80 87 92 90 90 89
98 100 92 99 95 91 86 97 89 91 97 100 99 98 98 89 94 98 94 92 99 99 93 94 100 98 76 65 64 66 66 68 70 69 63 52 60 72 79 88 89 94 90 87
100 97 93 98 100 96 96 97 99 98 100 100 100 98 98 96 95 94 89 98 99 96 90 92 94 97 78 52 52 55 60 63 57 46 47 57 68 79 86 91 92 96 72 44
95 86 98 98 96 97 95 93 97 99 94 100 98 99 98 98 93 99 100 94 98 90 94 96 87 83 56 57 56 52 45 39 37 39 44 56 77 83 90 97 93 81 36 17
87 85 98 94 100 98 93 94 90 98 100 99 100 99 96 97 96 99 99 98 96 85 96 91 83 62 57 55 47 42 30 27 27 32 40 57 73 83 91 90 77 22 15 21
98 94 99 92 100 93 95 93 93 93 94 97 96 99 96 97 99 97 94 99 90 98 98 89 75 54 50 52 46 29 25 25 27 30 41 52 68 79 71 45 13 16 22 26
99 95 94 98 85 99 96 93 87 91 94 92 96 92 86 96 93 89 97 98 96 92 88 86 51 44 39 38 32 29 25 26 30 38 49 61 72 68 41 15 16 24 29 32
98 98 99 97 95 99 84 87 91 93 90 92 85 93 91 89 84 94 96 93 92 83 90 51 51 46 43 43 41 30 27 30 31 38 50 60 64 59 34 19 20 28 37 40
100 99 85 82 92 87 81 80 80 94 85 99 94 96 90 95 96 100 93 94 86 60 52 51 51 53 53 47 33 30 35 43 39 39 54 61 65 61 47 36 29 39 46 52

GFSNW_850_rhum_012.txt.gz
RH
99 93 65 39 38 39 48 61 65 52 70 75 83 85 83 85 91 91 81 56 65 68 70 66 78 77 68 57 52 57 53 61 66 50 40 36 37 38 37 47 43 52 52 45
98 97 79 42 39 43 54 55 55 58 72 77 82 61 70 87 82 70 70 80 67 68 69 78 73 72 61 59 56 59 55 69 82 62 54 49 49 39 38 47 52 56 52 46
96 96 88 50 37 44 58 56 65 49 58 62 69 65 64 68 62 62 58 62 60 64 70 67 74 71 62 56 56 55 51 60 61 63 55 56 58 54 45 44 58 49 56 38
92 94 90 75 36 42 58 49 59 62 58 55 58 53 55 62 62 54 60 61 55 58 68 63 72 66 57 50 49 50 51 57 50 47 43 43 48 53 57 57 50 43 42 46
90 93 89 87 45 39 58 49 54 54 60 52 53 60 55 59 59 59 62 65 58 55 62 59 65 62 55 52 49 52 50 55 42 43 40 37 40 40 42 48 49 52 48 45
88 91 91 88 57 41 53 56 52 50 58 54 51 56 54 52 57 52 53 56 50 49 45 41 42 49 49 49 50 53 49 46 42 44 49 42 40 41 41 39 38 38 39 31
88 88 92 89 75 48 54 58 53 48 57 58 58 52 53 53 51 57 51 50 51 46 40 36 31 36 46 50 57 50 54 56 58 58 53 66 38 41 40 38 38 35 37 39
87 86 89 94 92 55 48 54 53 47 66 62 59 55 58 52 51 58 54 52 49 39 38 55 55 60 51 58 70 65 52 58 69 70 73 59 49 44 42 41 53 53 52 47
86 84 90 89 93 83 70 68 60 56 63 56 49 56 51 61 61 57 50 47 42 42 56 68 80 81 62 66 70 61 56 60 62 88 82 79 51 42 40 38 60 54 51 50
85 82 84 90 92 94 89 81 74 70 57 57 48 55 56 51 60 68 54 46 44 46 69 84 86 78 58 72 75 72 68 68 72 82 82 74 54 47 41 55 53 60 56 56
83 83 80 84 95 91 89 84 80 75 75 65 64 62 52 54 53 72 57 61 59 64 72 80 76 79 70 66 69 75 74 87 82 82 83 80 49 48 52 57 55 53 52 51
82 83 80 76 84 93 91 83 81 76 75 81 76 71 59 56 59 56 57 70 62 57 77 80 79 77 76 75 75 59 70 73 79 71 72 54 50 52 53 53 55 56 56 55
79 82 83 78 75 87 91 84 79 76 79 90 86 86 80 77 63 59 55 64 58 59 62 78 82 72 79 82 81 66 59 59 68 62 56 66 57 55 57 58 60 60 61 61
60 73 86 83 84 79 95 97 91 83 82 91 97 92 86 86 77 67 66 62 59 61 63 80 84 81 73 86 80 78 67 64 72 76 66 57 62 62 63 64 64 63 66 68
57 64 92 94 91 86 100 98 90 91 84 94 99 92 92 85 85 84 71 66 63 65 77 86 89 90 85 95 94 98 79 77 81 81 63 60 63 59 56 59 66 70 71 69
58 61 90 97 95 92 97 86 77 78 84 78 99 97 94 92 89 97 90 78 77 79 81 92 87 83 79 98 89 70 69 67 61 62 63 62 58 57 61 63 66 67 72 78
66 73 96 99 95 92 83 82 86 90 92 81 100 100 98 100 100 100 96 86 84 83 92 95 91 82 84 97 96 70 62 62 66 58 57 62 61 60 62 68 76 82 86 89
72 96 99 98 93 99 95 86 99 100 91 93 99 100 94 98 99 99 100 99 90 92 99 96 95 94 94 99 85 71 63 64 62 60 60 62 66 68 75 84 94 97 94 93
97 98 94 94 96 92 98 99 100 98 94 100 100 99 100 95 100 99 98 92 98 100 98 96 91 99 98 87 81 72 67 64 58 60 64 67 70 76 74 76 79 85 91 90
99 99 95 100 88 86 94 98 95 99 100 99 100 93 99 94 97 100 93 93 100 100 96 98 100 96 83 72 73 70 67 66 66 71 74 68 49 41 47 58 77 88 95 93
100 99 96 100 100 89 89 96 97 97 100 100 100 92 98 95 97 99 85 98 99 97 92 94 94 97 82 62 60 63 66 66 68 56 44 37 39 50 63 67 78 89 92 91
97 85 99 99 96 96 90 97 96 99 94 100 98 99 93 99 96 95 97 90 96 92 91 91 94 83 60 62 60 53 47 41 35 30 31 37 45 61 68 74 84 90 88 54
98 96 96 89 100 98 90 98 94 97 98 100 100 100 95 98 99 100 99 95 96 91 97 91 86 62 54 54 49 42 34 28 27 29 32 36 46 62 75 82 81 83 48 16
100 99 99 96 96 95 93 92 92 86 97 100 96 100 94 100 99 98 96 100 90 97 99 93 75 53 49 50 51 46 31 28 28 32 34 38 53 66 77 73 61 32 15 22
100 99 92 99 83 94 92 97 99 100 94 87 90 92 88 98 96 91 96 98 96 88 88 86 53 42 41 41 39 36 33 30 28 34 40 37 51 64 69 60 38 18 19 23
100 99 98 99 89 100 98 97 100 98 87 83 82 89 92 94 92 90 94 91 90 82 91 51 51 47 44 50 50 48 43 32 29 42 52 41 49 57 61 55 34 21 19 22
99 99 98 88 82 91 85 89 99 94 82 99 96 91 85 92 94 100 94 91 84 57 47 49 52 53 53 59 58 54 47 34 33 47 54 47 56 67 63 58 51 39 36 38

GFSNW_850_rhum_018.txt.gz
RH
93 93 96 99 100 61 47 68 85 100 100 100 98 98 94 86 88 89 86 81 64 72 86 76 74 83 74 60 54 48 48 57 57 51 43 37 36 42 45 60 56 62 62 53
96 94 98 99 100 68 46 69 88 100 100 98 96 93 93 91 92 91 84 67 57 59 73 91 86 74 65 56 55 61 56 66 84 65 56 55 45 42 42 52 54 60 59 50
98 94 96 100 100 88 46 75 86 100 100 97 81 93 92 94 90 85 72 64 56 71 78 74 87 83 66 59 56 50 50 66 58 66 52 59 61 51 48 48 63 59 58 42
99 96 94 98 100 97 51 72 67 73 78 74 67 70 81 82 90 77 72 73 65 68 81 78 82 71 66 57 58 56 49 61 55 50 55 56 56 56 53 52 51 53 46 50
100 100 99 99 100 95 54 67 64 67 65 57 57 64 66 81 66 77 79 76 67 62 66 65 81 69 65 65 54 51 50 60 46 46 42 45 51 55 54 52 52 43 50 48
100 100 99 100 100 95 65 58 62 60 60 56 54 58 71 66 61 77 84 64 70 66 55 49 53 53 54 55 52 53 50 51 54 57 46 38 42 44 68 58 53 56 62 50
100 100 100 98 100 100 61 58 63 58 54 58 58 55 59 65 56 77 81 75 60 52 46 46 40 45 54 55 58 49 51 48 52 57 46 52 39 45 43 51 50 42 45 49
93 100 98 96 100 99 58 60 65 51 63 68 59 58 62 55 55 57 60 54 52 54 43 78 70 70 42 58 61 57 51 53 65 58 54 48 50 53 54 52 63 57 59 59
90 100 89 95 100 100 64 76 63 55 68 65 55 60 55 59 59 56 54 54 47 43 68 67 76 93 66 58 60 50 53 57 53 84 78 62 49 46 41 48 78 61 59 62
98 100 93 94 96 100 88 86 79 66 56 63 54 58 56 52 55 65 53 46 45 49 78 85 86 78 62 70 68 58 64 70 67 78 76 68 49 47 43 60 60 65 58 56
100 99 94 89 97 100 100 90 86 78 58 72 64 57 51 52 53 57 53 53 52 70 73 82 86 76 72 73 69 61 61 78 77 83 79 71 51 52 57 59 60 53 54 54
100 99 92 88 100 100 100 93 86 77 63 78 70 60 60 56 57 52 60 69 64 58 84 82 84 81 79 77 78 71 68 59 64 67 68 59 59 54 51 51 54 57 55 57
98 100 90 85 100 100 97 92 86 81 76 96 89 87 68 65 59 51 59 64 58 62 63 83 84 70 83 82 78 69 64 67 72 66 65 64 59 56 55 54 55 58 59 62
93 100 94 91 96 100 99 90 83 79 76 94 99 94 92 81 68 66 62 58 56 60 63 81 86 79 77 81 74 72 69 68 74 75 77 69 63 59 58 60 61 62 64 66
90 100 100 100 94 87 100 98 87 79 74 96 100 95 92 87 86 72 67 59 58 63 80 84 88 90 88 98 90 89 80 76 78 76 65 66 66 60 59 60 64 66 68 70
82 100 100 99 100 100 100 93 91 76 75 81 100 96 99 95 84 72 68 68 69 76 80 94 92 87 79 96 94 73 73 69 64 66 62 60 61 61 63 63 64 66 68 69
82 100 99 98 100 100 80 70 84 77 65 63 100 98 97 96 87 84 84 85 86 81 92 94 90 90 80 91 93 67 70 70 66 64 63 69 68 68 66 64 63 66 66 70
99 98 98 100 100 98 79 74 86 80 63 59 100 100 96 98 100 99 97 93 91 94 98 96 92 94 88 97 83 78 74 78 70 66 61 56 62 64 62 63 62 55 46 46
99 99 100 100 94 76 74 76 97 83 69 99 97 97 98 95 100 100 94 94 99 99 98 96 88 98 98 77 80 79 73 68 69 70 66 67 66 69 64 40 33 36 38 47
97 98 81 86 90 83 80 83 76 72 82 89 97 94 98 93 97 99 92 96 100 100 98 99 100 98 81 75 70 66 69 66 61 66 77 74 69 52 33 37 40 40 44 54
100 90 96 100 100 85 83 100 92 99 98 98 97 94 97 96 98 99 93 99 98 99 94 98 98 96 88 76 74 72 72 68 68 68 55 40 32 35 37 40 44 46 47 51
92 83 99 92 79 85 87 99 99 98 90 99 98 97 94 94 85 92 93 96 94 91 94 97 99 87 72 69 78 72 72 77 73 43 34 38 40 40 38 38 39 43 52 64
96 97 99 98 99 99 97 99 99 100 99 100 100 99 98 98 88 98 95 90 92 89 92 77 86 73 66 64 60 61 61 50 36 37 42 45 46 48 45 39 40 46 57 68
100 100 98 97 99 95 87 92 92 82 99 100 99 100 99 100 97 95 87 94 90 99 95 98 88 63 63 57 46 36 33 32 32 34 37 41 46 52 53 48 42 48 58 68
100 100 98 99 98 100 96 94 98 100 100 90 90 90 92 99 98 93 97 99 96 85 90 88 63 55 54 50 45 40 37 36 37 38 35 33 35 45 54 56 52 48 56 62
100 99 97 99 95 99 100 96 99 99 94 73 70 96 94 99 95 99 95 93 94 87 92 59 57 50 42 38 39 42 44 46 47 48 48 43 36 36 44 54 59 57 58 62
99 99 94 87 91 91 97 98 100 97 78 97 94 90 92 94 98 97 94 94 86 71 60 50 42 38 42 44 46 50 53 53 49 45 49 53 51 49 49 59 66 66 67 64

GFSNW_850_rhum_021.txt.gz
RH
91 91 96 93 89 100 72 74 97 100 99 98 93 97 87 82 91 91 82 69 70 76 62 85 74 83 72 64 62 70 49 52 65 51 48 48 43 48 48 59 60 61 56 49
92 94 96 87 93 100 82 77 98 100 100 98 97 86 92 91 91 92 84 79 60 64 63 74 84 78 55 67 66 60 54 66 86 91 80 59 52 41 45 52 52 59 56 48
94 96 97 89 96 100 89 86 98 100 100 99 99 96 93 91 93 90 86 77 60 78 79 80 90 86 74 66 60 54 46 64 60 76 70 61 60 49 48 43 57 56 52 40
95 98 98 92 99 100 92 82 83 88 98 97 91 94 94 94 98 96 78 70 61 74 92 86 90 78 76 64 57 56 53 60 53 51 48 52 53 54 52 50 44 45 43 49
96 98 96 94 100 100 100 80 73 75 74 60 74 91 90 93 80 82 78 70 61 67 81 76 86 76 67 65 63 59 53 64 48 50 52 56 57 58 49 48 52 48 48 49
97 99 98 98 100 100 81 67 68 68 59 58 75 68 88 89 76 81 84 68 66 66 56 58 60 53 55 58 58 59 57 55 59 62 46 43 53 54 58 50 55 42 52 38
99 99 98 99 100 100 98 68 71 68 63 62 56 58 85 75 82 84 89 66 64 52 49 47 47 49 54 50 58 53 72 57 60 59 45 62 47 47 52 51 50 50 44 47
97 100 99 100 100 100 100 70 73 67 59 61 65 61 63 58 64 82 84 76 65 52 57 69 80 77 71 61 60 62 54 51 58 62 58 50 52 54 58 52 57 57 63 67
91 100 100 99 98 100 100 67 72 71 66 64 56 60 55 68 62 69 87 82 78 63 74 72 94 98 89 69 62 50 54 50 57 83 64 56 42 47 43 49 60 62 61 66
95 100 100 92 98 100 100 76 89 80 60 64 56 63 59 51 60 74 61 54 66 69 76 84 79 72 73 76 64 61 66 65 60 73 66 63 48 49 43 60 52 64 57 59
97 100 100 94 95 100 100 93 94 89 66 76 68 56 52 53 50 60 53 51 52 75 68 79 82 72 72 72 63 61 60 73 72 79 74 58 50 52 53 57 65 57 54 55
93 100 99 94 92 100 100 100 94 93 69 83 74 65 58 54 55 46 57 60 62 57 83 84 86 81 82 76 75 69 62 56 64 64 64 65 62 57 56 56 54 55 52 53
99 100 100 94 96 100 100 100 94 84 79 93 89 81 73 67 56 45 56 67 56 62 61 83 84 71 82 83 81 73 68 68 73 63 65 68 65 59 53 52 53 54 53 56
100 100 100 97 92 100 100 100 96 89 80 91 95 96 88 74 67 62 59 56 58 59 62 83 86 77 78 81 72 72 71 70 78 83 76 67 63 58 56 56 56 57 60 60
99 100 100 100 91 100 100 100 95 89 79 94 100 94 93 88 77 69 62 59 59 65 80 86 87 88 91 96 87 82 80 75 75 74 66 65 62 60 60 57 60 62 62 66
100 100 100 100 98 100 100 100 96 89 77 80 100 97 98 88 79 72 65 64 66 73 79 95 93 90 80 92 92 71 70 64 56 64 64 60 60 63 63 60 62 62 64 65
100 100 99 99 100 100 94 76 88 83 69 66 100 99 99 91 83 81 84 81 82 78 90 93 90 91 77 86 90 64 70 71 67 62 58 73 67 66 64 58 58 62 62 61
100 99 98 98 100 100 84 75 94 76 67 62 100 100 98 98 100 99 95 92 90 92 97 95 90 96 87 96 78 74 71 76 73 67 63 59 61 64 63 63 61 61 55 49
99 97 97 100 100 89 80 70 92 80 67 98 94 98 99 99 100 99 93 92 99 98 96 95 91 96 98 80 82 78 78 69 73 71 63 64 60 64 65 64 56 44 40 40
99 100 91 90 89 81 69 81 81 74 80 85 96 90 98 95 97 99 94 97 100 100 98 100 100 97 79 73 67 63 75 68 66 71 81 74 71 67 52 34 37 40 40 44
99 87 86 98 91 78 75 94 86 97 97 96 96 90 98 94 97 99 94 99 97 99 95 98 95 98 90 80 78 73 72 69 64 60 56 61 54 33 35 37 40 42 41 43
90 80 99 96 76 82 89 97 98 99 93 99 98 97 95 94 80 90 92 98 93 89 92 99 98 88 76 75 80 82 79 73 69 52 39 36 37 37 38 39 39 42 47 51
90 93 90 91 98 98 99 99 98 99 98 100 100 100 99 92 81 99 93 90 95 90 98 86 85 75 74 73 76 77 80 76 65 37 40 40 40 46 46 44 41 40 43 51
98 100 99 97 99 95 91 93 93 86 99 100 98 100 98 93 96 94 81 98 88 97 88 90 87 68 68 73 88 85 85 79 40 41 43 44 46 49 52 53 53 50 48 51
100 100 98 99 97 99 97 98 99 100 100 90 94 97 92 99 94 86 95 99 97 81 91 89 68 66 64 53 48 45 40 37 36 36 36 37 38 40 47 54 56 56 58 57
99 98 97 98 96 100 100 100 99 99 93 71 69 98 95 100 96 98 98 90 91 85 91 62 64 63 53 46 40 38 38 41 44 47 47 47 45 41 41 44 52 62 64 62
99 98 91 87 92 94 99 94 99 98 79 94 94 89 87 96 100 98 94 91 87 72 68 62 54 43 39 40 42 45 47 47 45 45 46 50 53 52 56 57 63 69 70 70

GFSNW_850_rhum_024.txt.gz
RH
92 86 86 93 99 96 100 74 92 98 100 97 95 96 91 86 85 88 88 73 53 48 49 52 58 58 51 44 46 79 65 38 57 76 52 43 43 55 53 62 55 42 38 31
95 89 86 94 98 93 99 73 96 100 99 93 97 86 89 89 90 93 94 90 49 43 46 56 66 52 38 51 50 59 52 47 63 66 62 52 60 43 44 41 37 42 43 34
98 89 86 92 96 96 100 82 96 98 100 99 95 94 94 96 86 85 83 84 49 44 43 43 60 67 52 53 48 52 44 46 44 51 45 47 65 63 40 44 52 40 37 30
98 93 86 91 97 100 100 69 74 87 97 87 96 94 92 95 95 90 87 90 66 40 45 49 62 60 62 63 55 57 57 48 42 39 44 41 44 56 56 42 38 41 33 35
99 89 89 92 96 100 100 72 76 84 71 76 74 97 93 92 91 90 94 81 71 45 54 50 61 64 57 68 61 53 50 48 43 44 47 44 43 40 46 45 35 33 33 33
97 91 91 94 94 100 99 87 64 72 53 54 82 90 90 88 80 90 75 56 54 54 56 52 46 48 48 50 59 58 50 48 47 49 44 48 54 42 40 38 33 32 38 30
100 92 90 95 95 100 100 77 74 72 53 54 74 61 93 91 89 89 71 52 49 53 54 53 52 51 50 49 48 46 51 49 52 50 42 84 38 38 32 36 31 30 31 33
100 98 90 96 95 100 100 100 75 78 62 48 77 65 80 83 93 89 83 83 67 53 55 62 77 90 86 77 53 58 55 52 66 68 53 42 36 44 42 44 39 36 35 37
100 100 92 97 96 100 100 100 86 76 63 50 64 69 55 67 87 92 95 86 70 64 62 71 98 98 96 94 75 55 56 60 75 66 63 67 35 41 38 35 42 42 37 44
100 100 98 98 95 100 100 100 80 79 70 65 67 53 55 53 77 93 88 90 85 77 80 73 77 77 63 84 82 82 65 59 87 90 88 43 41 41 43 40 40 49 44 48
100 100 98 98 96 100 100 100 86 90 72 72 68 61 58 55 62 93 80 83 87 93 88 84 76 62 68 57 48 60 62 72 64 78 80 64 44 46 41 48 56 56 55 57
100 100 99 98 92 100 100 100 96 100 89 82 76 66 62 59 50 61 68 63 69 82 87 76 69 61 62 54 54 53 53 50 43 44 45 57 60 54 54 56 56 58 57 55
100 100 98 98 91 97 100 100 98 99 84 94 89 80 78 74 54 46 55 61 51 60 60 70 74 65 59 60 57 57 55 56 48 52 59 59 60 64 61 58 52 50 48 48
100 100 98 97 90 99 100 100 99 84 76 83 92 90 82 76 66 51 56 53 52 56 62 69 69 65 68 63 56 54 52 56 54 66 66 62 63 61 55 53 51 51 52 52
100 100 98 98 92 100 100 100 100 93 86 85 96 95 91 85 71 67 61 57 58 65 72 71 76 73 74 80 66 61 56 52 50 47 50 48 52 61 57 54 54 53 54 61
100 100 97 99 95 100 100 100 100 100 90 89 98 98 96 85 76 69 67 65 65 69 81 86 90 89 72 81 70 55 59 60 55 47 56 61 61 60 59 56 57 56 56 54
100 100 97 99 100 100 99 85 96 100 91 84 99 98 99 89 83 82 82 79 78 77 91 84 82 83 76 70 70 50 65 67 61 61 60 75 69 67 62 58 59 58 60 60
100 99 98 100 100 100 97 79 96 98 75 71 100 98 98 96 99 97 92 95 88 92 94 92 79 90 78 95 62 64 74 74 72 69 62 63 63 64 64 61 58 60 59 52
100 99 100 100 99 95 83 87 89 79 72 95 96 100 100 99 100 97 91 90 98 97 91 86 85 83 98 76 66 69 78 71 73 68 65 66 63 66 64 59 58 55 49 42
100 100 98 97 95 86 76 81 84 77 78 80 90 90 99 98 96 98 92 98 100 100 99 100 100 92 75 69 66 70 68 66 66 69 83 75 71 65 61 58 52 41 38 40
100 96 84 99 88 73 66 94 87 94 98 95 94 85 93 94 95 98 95 99 98 99 93 98 93 87 78 80 66 67 67 68 68 61 53 55 52 56 52 37 38 41 41 41
94 82 99 93 76 76 91 94 97 98 91 98 95 93 94 92 76 90 92 98 92 96 84 96 88 71 77 93 85 78 75 72 66 58 57 62 61 38 37 39 40 41 41 41
95 92 94 88 97 98 97 96 95 99 100 100 100 100 99 87 78 96 83 90 90 83 97 86 70 73 80 87 87 82 78 70 60 57 46 37 36 37 40 40 40 39 40 43
98 100 100 99 100 91 90 82 88 86 99 100 98 99 96 96 89 81 85 89 83 88 92 80 61 71 77 79 89 85 78 61 41 41 41 40 42 45 48 49 50 50 51 53
100 99 99 100 97 100 97 98 99 100 100 91 95 96 90 92 88 76 89 94 89 76 76 66 66 74 79 90 88 85 78 57 44 45 46 47 47 47 49 52 55 56 58 61
99 98 96 98 94 99 99 100 100 99 92 71 73 95 92 97 88 93 95 85 84 73 76 70 71 65 68 89 90 84 67 45 41 40 40 40 41 42 42 44 48 56 64 66
99 97 97 91 94 95 99 99 100 98 86 91 89 86 86 92 98 98 83 85 72 75 73 69 64 47 45 44 42 40 42 45 45 41 40 43 47 50 52 57 62 68 71 71

GFSNW_850_rhum_027.txt.gz
RH
100 98 100 90 84 94 100 100 95 100 98 98 94 96 81 90 90 89 90 87 86 76 46 41 41 49 37 33 38 79 78 67 100 93 59 55 53 62 46 46 48 35 32 32
100 100 100 88 86 97 98 89 87 100 97 98 96 78 89 91 92 89 93 94 83 55 37 43 39 38 32 37 40 67 55 48 96 97 70 63 67 50 49 42 40 40 36 33
99 100 100 90 86 99 99 84 97 99 100 92 91 89 96 96 90 91 86 89 67 54 37 32 39 41 37 39 35 53 54 49 43 48 50 56 60 49 44 47 50 39 35 29
98 98 100 91 87 100 100 82 78 76 93 92 93 95 90 95 96 91 85 92 78 51 43 38 45 44 42 45 43 54 54 51 40 37 36 43 49 55 47 46 43 43 33 31
99 100 98 90 90 100 100 89 71 80 81 73 79 92 93 95 92 89 95 95 80 43 36 34 44 46 44 53 45 45 52 53 40 39 36 38 41 44 47 45 39 38 35 31
99 100 100 90 92 100 99 96 72 70 48 53 62 70 86 89 88 89 77 81 69 44 28 26 31 38 37 41 47 51 57 55 48 45 38 41 49 37 35 39 40 37 39 30
99 100 98 95 93 99 99 97 86 81 55 36 41 65 82 92 95 92 74 70 62 38 48 38 39 41 42 39 47 45 54 54 52 57 44 67 32 31 29 31 30 31 32 28
98 99 100 99 96 98 100 100 81 76 54 37 43 73 83 94 96 91 64 63 60 56 75 71 75 82 73 71 52 47 42 45 57 63 50 39 34 34 35 36 35 27 28 27
99 100 90 99 99 100 100 99 100 82 59 38 54 69 64 92 96 92 82 81 70 58 61 88 97 100 96 98 81 59 55 46 58 63 72 67 35 34 31 29 43 26 26 27
97 100 99 99 99 100 100 99 100 97 68 53 63 76 72 70 96 97 88 81 73 79 71 88 90 93 82 98 98 88 92 80 77 84 74 55 34 33 32 44 44 36 32 31
97 100 100 100 100 99 100 98 100 92 70 69 70 73 54 54 83 90 94 92 88 88 86 77 61 70 65 66 69 68 90 97 99 94 100 88 37 40 40 46 46 41 38 41
98 100 100 100 100 98 99 100 100 92 99 96 78 69 62 56 69 90 94 87 83 85 92 78 58 55 61 50 66 43 65 52 54 62 60 48 40 48 49 48 47 47 50 54
97 100 99 100 100 99 97 100 100 100 99 96 92 88 77 67 59 93 89 89 89 92 74 84 77 62 47 61 49 46 44 44 40 41 45 47 48 56 55 50 52 54 55 57
98 100 100 99 100 99 100 99 99 98 91 77 86 85 87 77 64 62 69 75 56 80 82 90 87 75 60 56 49 43 42 45 44 46 55 55 56 53 55 56 59 57 57 56
97 100 100 99 99 100 100 100 99 98 96 76 88 97 88 81 73 66 66 66 65 66 75 76 76 66 66 65 57 53 47 42 46 42 40 41 44 55 60 61 58 53 49 54
93 100 100 99 100 100 100 100 99 99 94 90 92 98 97 85 85 79 70 68 66 78 72 77 77 82 65 76 69 45 45 48 51 42 46 50 54 63 61 60 58 55 54 51
98 100 100 100 100 100 99 98 98 95 100 87 99 92 98 90 84 83 89 82 80 86 82 77 72 74 72 66 71 47 49 52 58 59 58 58 62 63 65 63 59 59 57 57
100 100 100 100 100 100 96 83 100 100 95 91 100 98 98 91 95 91 91 91 91 95 87 86 72 79 69 94 60 48 54 62 62 64 60 59 63 70 73 60 57 56 56 54
100 100 100 100 100 100 94 98 100 96 90 97 99 100 100 98 99 96 90 94 93 97 84 78 83 73 99 81 64 56 63 61 67 73 69 72 69 70 65 62 61 55 57 53
100 100 100 100 100 93 94 90 84 77 80 77 87 80 99 94 95 97 92 98 98 100 97 95 96 90 67 68 64 56 66 70 64 68 90 83 76 68 66 62 59 57 51 43
100 99 93 99 100 78 65 90 92 91 95 91 83 71 93 94 95 96 96 100 100 100 91 95 88 81 72 78 75 67 70 67 66 64 59 64 61 66 63 60 57 45 38 37
98 89 99 96 80 84 95 99 98 96 92 92 85 83 86 92 74 91 92 99 95 97 77 97 87 64 69 81 83 86 77 78 70 64 63 67 64 60 54 41 38 38 37 38
97 92 91 88 96 100 99 98 96 93 92 100 99 99 93 87 77 95 87 100 90 74 89 82 67 69 77 89 94 92 83 73 67 67 64 62 58 40 36 35 38 39 40 41
97 99 100 100 100 88 87 73 82 89 98 100 99 96 90 86 88 79 98 83 78 89 91 81 56 65 79 94 96 83 74 65 62 64 57 41 36 37 40 40 42 43 45 48
100 100 100 100 97 100 98 98 99 99 100 92 98 94 84 89 90 73 86 94 89 78 74 61 58 75 83 95 90 73 55 46 42 40 37 39 42 44 46 49 51 53 54 55
99 98 95 95 96 98 97 99 99 99 93 76 82 98 97 95 85 88 88 82 82 72 70 81 78 78 88 96 87 59 44 43 43 43 43 44 44 43 44 48 50 50 53 58
99 97 89 95 94 91 96 99 100 99 83 98 94 95 94 88 92 89 77 82 71 77 79 81 76 81 92 94 82 54 48 46 42 39 41 42 44 44 45 48 53 58 63 68

GFSNW_850_rhum_030.txt.gz
RH
99 98 100 99 100 99 99 100 98 95 100 98 96 96 77 64 84 92 93 94 95 95 77 76 53 52 40 34 67 81 81 95 100 98 82 69 63 67 62 57 50 46 44 45
100 97 100 100 100 99 98 99 98 99 99 97 97 83 78 77 93 94 95 95 91 84 81 79 46 41 32 34 56 73 80 94 100 99 89 74 87 69 66 50 50 51 49 47
98 95 97 98 100 99 97 93 98 99 100 94 87 88 83 84 91 94 91 91 87 93 88 55 42 39 38 36 42 58 74 85 98 100 84 75 80 75 56 58 64 50 42 40
98 98 94 100 100 100 100 90 90 86 98 96 96 88 89 96 99 92 92 95 95 90 69 60 37 36 42 45 39 60 86 73 69 63 62 62 59 59 49 62 56 55 41 35
98 98 100 98 100 100 100 94 82 88 72 76 89 92 90 93 91 96 96 96 91 74 68 37 40 38 44 48 42 53 66 80 52 46 46 47 55 53 51 49 51 50 48 45
99 94 98 99 100 98 99 95 71 76 70 71 81 82 82 85 88 90 81 87 86 86 62 29 28 34 35 41 54 59 73 71 56 52 42 42 54 50 55 53 48 44 51 40
98 97 99 98 100 99 99 98 90 81 84 69 58 50 62 80 86 94 86 82 82 63 53 34 35 39 38 44 45 43 57 67 66 73 48 75 40 34 34 41 39 44 43 38
95 98 97 97 100 100 100 100 94 89 92 70 68 44 79 92 98 96 88 84 70 55 51 64 82 76 73 67 63 55 50 60 75 86 64 47 38 38 37 42 40 34 40 40
94 99 98 100 85 95 100 100 95 87 93 82 56 69 83 96 98 98 82 73 61 67 88 84 99 93 93 96 82 66 60 54 70 96 84 83 46 35 32 31 55 46 35 37
91 96 99 100 100 98 100 99 99 100 94 76 67 67 81 89 99 98 83 76 66 71 94 92 90 87 76 94 99 95 83 83 92 84 96 71 39 34 32 54 54 43 35 40
90 97 99 100 99 100 100 98 100 100 92 82 76 69 82 74 95 94 88 85 82 88 93 90 83 90 86 91 81 86 88 95 94 93 98 91 38 40 46 52 45 39 43 49
91 99 98 100 98 100 100 100 94 100 97 99 87 75 74 70 72 92 94 91 81 82 89 85 64 68 71 69 93 61 87 80 89 84 76 50 41 51 47 47 44 49 53 56
96 99 100 100 100 100 100 99 100 100 99 86 89 88 73 68 62 88 90 92 92 85 79 86 85 66 63 70 65 58 53 60 54 59 52 52 49 50 49 48 49 53 54 56
94 98 98 100 100 100 100 99 99 100 95 88 95 91 88 86 73 73 95 94 92 93 90 95 96 91 65 73 59 55 52 52 54 53 56 56 53 51 53 54 54 56 57 55
95 93 97 100 100 100 100 99 100 100 99 94 94 94 89 86 77 67 80 96 76 87 96 96 97 91 80 77 67 63 52 51 57 60 47 45 53 54 55 56 57 57 54 59
97 96 96 100 100 100 100 100 98 99 100 96 99 98 98 90 84 76 71 71 74 73 78 86 76 75 77 88 86 52 46 42 42 49 46 45 54 57 58 59 59 57 50 48
98 91 96 100 100 100 99 96 95 91 100 96 99 99 96 95 93 91 87 82 78 85 80 88 81 80 78 79 92 55 47 50 49 50 52 64 60 62 62 59 60 54 52 51
81 91 100 100 100 100 100 96 94 99 100 96 100 100 98 92 93 95 90 91 89 86 91 84 85 82 78 96 73 50 53 56 56 55 54 58 61 64 65 61 60 56 58 55
87 100 100 100 100 98 95 91 100 100 95 98 100 100 100 97 98 93 86 92 94 93 81 83 88 86 99 82 74 54 60 59 65 64 61 63 64 68 66 63 62 53 58 53
95 100 99 100 100 93 92 99 93 91 92 92 97 85 99 94 92 97 94 99 100 99 98 94 99 95 75 69 64 56 59 60 61 70 85 75 77 72 72 66 60 51 50 49
98 98 99 100 95 87 85 94 100 97 99 92 84 81 96 92 98 98 96 100 100 99 97 94 96 86 85 76 71 61 63 64 64 62 57 64 65 71 71 67 58 54 46 37
95 97 100 96 90 91 93 99 98 95 97 92 90 86 86 84 72 92 93 100 98 92 85 99 84 83 69 75 80 73 69 70 72 64 61 67 70 69 62 58 50 39 37 35
97 99 94 95 100 100 98 98 96 94 92 98 98 99 83 78 73 98 98 98 93 79 82 82 81 75 82 88 87 86 81 77 73 74 74 72 69 63 51 39 39 35 35 39
99 100 100 97 100 94 94 90 91 88 96 100 96 96 95 87 97 96 89 94 88 93 94 91 80 76 90 96 91 84 82 78 75 72 66 57 42 40 39 35 36 37 39 44
100 100 100 99 100 100 100 100 100 100 98 88 91 89 86 94 94 91 88 92 94 90 90 90 67 76 94 95 83 78 77 73 67 56 43 37 35 34 40 44 46 48 50 52
99 99 98 97 95 99 98 99 99 98 93 76 76 98 95 91 90 90 92 92 91 88 97 76 72 82 98 85 74 72 68 57 45 39 36 39 40 41 45 53 53 52 52 54
99 99 90 93 92 94 96 99 99 96 81 98 99 93 96 89 87 94 88 91 94 89 85 80 76 86 95 74 56 51 46 44 43 44 46 44 44 44 44 42 46 51 58 64

GFSNW_850_rhum_033.txt.gz
RH
97 99 100 97 100 100 100 99 99 100 100 98 98 100 81 59 68 76 81 92 96 97 96 99 92 70 52 43 59 71 74 92 100 96 78 78 82 90 84 72 62 62 60 50
97 100 99 100 98 100 100 99 99 100 100 97 100 92 78 70 74 81 95 98 94 91 96 100 81 59 41 54 63 71 79 98 98 100 91 92 95 82 76 84 72 64 60 52
97 100 98 100 100 99 98 93 97 100 100 97 89 96 90 88 76 77 93 95 93 95 97 88 80 61 46 55 58 60 67 89 98 100 99 82 93 81 73 76 78 71 52 56
98 100 97 98 99 98 99 93 95 87 97 97 91 90 94 95 91 90 92 98 95 95 99 97 87 66 44 50 61 80 79 100 92 94 90 85 70 75 73 67 68 66 44 48
98 100 99 97 100 100 100 95 93 90 90 82 96 96 96 93 80 93 98 100 95 94 95 70 69 61 51 56 70 84 82 87 85 86 81 68 68 65 57 53 56 57 54 47
98 99 99 99 100 99 100 92 81 85 85 85 93 94 95 83 76 79 84 91 89 96 86 69 58 33 40 43 48 68 77 82 93 78 78 70 66 63 60 52 50 52 62 46
94 98 97 96 98 99 100 86 81 87 92 79 81 80 82 81 77 94 82 94 90 76 70 68 61 45 40 47 49 51 77 75 78 84 59 77 45 38 52 55 50 51 44 37
97 99 99 99 100 100 99 97 87 86 93 77 77 85 83 83 87 88 90 92 79 72 67 68 77 77 57 84 71 59 58 70 81 89 80 57 41 38 43 54 53 48 50 47
91 99 93 93 100 100 100 94 94 89 91 89 82 80 81 91 92 98 88 90 79 72 79 79 95 100 86 97 87 68 64 64 74 97 92 82 47 37 35 36 55 48 42 54
98 97 91 97 98 100 100 98 98 92 93 82 81 88 86 85 92 98 95 75 69 73 91 91 90 99 79 90 86 95 86 79 92 90 100 86 49 37 36 50 49 52 45 51
99 96 92 98 99 100 100 98 99 100 95 90 83 82 84 86 91 98 92 84 78 89 90 91 95 86 83 87 82 86 93 96 90 87 94 92 44 38 41 49 46 56 59 56
98 95 94 100 99 100 100 100 98 100 96 99 95 90 78 78 86 96 93 92 84 82 94 91 78 85 93 89 94 79 87 76 84 81 72 55 45 48 49 48 47 61 60 65
98 97 98 100 98 100 100 100 99 100 99 96 95 84 80 75 78 79 96 94 85 89 82 85 83 70 77 87 82 78 68 70 76 74 60 56 51 47 50 47 48 54 55 58
98 96 96 99 100 100 100 99 99 97 96 96 90 97 92 85 80 70 93 93 93 90 92 91 93 88 76 79 64 68 62 68 63 63 59 55 53 48 51 54 53 56 59 57
97 88 94 98 100 100 100 100 99 98 98 97 98 94 92 93 83 75 98 100 92 100 92 92 91 92 81 84 76 69 55 60 65 68 49 46 49 50 55 55 57 57 56 61
88 89 97 98 100 100 100 100 99 94 99 99 100 96 95 89 85 80 92 91 89 88 88 93 92 78 76 89 86 57 46 42 43 47 44 46 48 57 56 55 57 55 49 48
88 96 98 96 100 100 99 94 92 81 97 98 100 100 94 87 92 94 89 84 80 84 83 91 88 82 77 88 95 60 50 47 47 46 49 65 60 64 58 56 57 52 51 52
97 98 94 99 100 100 100 98 90 99 99 100 100 100 98 92 94 92 94 92 90 88 93 86 91 84 86 97 74 57 56 57 57 54 49 53 59 63 63 59 57 55 57 58
97 84 98 100 100 99 98 98 98 100 96 98 100 100 100 98 97 92 89 96 94 95 91 94 92 91 98 76 76 60 59 57 63 60 58 63 63 65 64 60 58 53 61 56
86 100 100 100 99 98 98 97 100 96 94 94 98 92 99 95 92 98 96 100 97 100 98 92 99 95 79 79 70 63 58 53 60 67 80 70 71 69 70 62 56 49 50 50
100 99 100 100 100 91 89 99 99 100 100 96 91 88 97 93 96 98 97 100 100 99 95 95 98 95 87 77 72 62 59 58 60 57 61 65 64 68 67 65 58 53 48 42
97 95 99 99 91 88 96 100 100 100 96 96 93 92 84 87 78 92 96 99 96 90 91 98 93 84 72 78 78 72 67 66 65 62 62 68 69 67 64 62 59 49 40 38
98 97 97 98 100 99 99 98 99 97 99 96 98 98 75 78 77 98 98 97 95 84 86 91 86 78 83 84 84 82 79 75 68 72 74 77 73 69 60 55 44 38 36 40
96 100 99 94 99 97 89 92 92 79 91 99 84 99 94 87 96 98 92 87 89 95 96 92 86 79 88 90 87 83 83 78 77 78 80 77 70 59 46 39 37 36 40 48
100 100 99 99 99 100 100 98 99 100 95 83 83 90 83 97 95 92 88 94 97 92 87 90 76 84 95 92 86 84 82 82 81 78 72 63 50 44 44 45 46 44 47 52
99 99 98 98 96 99 98 100 99 97 87 71 73 97 97 90 95 95 95 92 91 81 93 72 80 94 95 85 83 83 81 76 68 56 47 43 42 41 47 56 56 56 54 55
99 98 95 94 94 97 99 99 99 96 82 99 99 87 84 92 93 100 93 90 88 95 81 72 75 94 84 80 79 77 69 54 46 44 44 45 47 47 50 50 57 55 60 61

GFSNW_850_rhum_039.txt.gz
RH
89 90 97 98 100 100 97 100 98 100 98 99 98 96 80 62 86 78 79 73 77 83 81 98 99 89 79 59 74 95 79 83 96 76 53 65 62 90 92 97 93 97 98 72
89 89 96 95 100 99 100 100 97 100 97 99 100 93 82 70 86 88 79 81 77 74 93 100 86 83 69 64 76 80 72 96 96 81 85 67 87 78 79 96 94 97 98 74
89 88 95 91 98 100 100 98 100 100 99 92 83 88 87 89 72 77 73 80 82 94 98 96 95 90 71 60 58 60 59 86 88 76 72 80 99 97 95 99 98 83 92 68
90 89 98 92 93 99 99 99 98 96 100 97 77 76 79 80 90 74 71 92 88 93 100 96 98 94 80 64 62 64 77 96 81 79 79 90 99 98 98 100 90 99 79 65
88 89 99 97 90 95 96 99 97 87 90 87 82 82 96 89 77 84 88 96 93 93 100 96 95 81 74 69 76 79 77 84 92 95 80 98 100 94 97 100 95 96 90 57
90 91 100 98 94 98 100 98 94 71 85 88 94 92 87 83 70 84 79 81 89 98 94 92 74 74 86 83 76 91 90 88 98 94 92 96 98 97 87 82 83 73 62 60
91 92 94 99 97 100 100 99 100 90 96 81 84 81 76 80 82 95 86 91 94 89 89 94 94 90 87 85 78 67 83 78 86 97 96 96 52 50 68 76 71 55 60 47
72 91 92 99 96 99 99 100 100 89 92 82 81 79 83 82 79 93 91 88 84 90 94 91 96 95 88 84 68 68 63 76 95 100 97 72 50 47 52 57 56 52 54 50
81 91 94 97 90 98 98 97 100 94 89 91 77 86 86 92 92 93 92 84 94 98 91 87 92 98 82 90 87 73 68 67 83 99 98 94 51 45 41 41 57 49 48 53
81 82 75 90 89 97 99 98 100 92 83 85 81 87 87 89 95 96 94 94 96 86 97 91 96 99 81 89 82 96 87 81 88 96 95 87 69 60 42 52 50 52 52 52
83 59 77 94 91 96 98 98 95 98 81 84 80 81 89 94 93 97 92 99 95 96 97 89 92 91 95 89 81 86 89 93 96 85 94 88 50 45 44 47 51 60 63 60
85 38 86 99 90 96 100 100 94 99 94 90 86 86 88 88 94 95 92 100 91 85 88 91 89 93 94 89 98 76 88 79 89 83 79 58 52 50 52 52 55 62 68 70
80 82 96 98 80 96 100 99 100 100 95 92 91 84 87 90 91 93 94 97 96 96 94 92 95 94 91 95 91 87 78 75 80 73 61 67 57 48 52 50 56 64 68 69
84 99 97 87 85 96 100 100 100 96 89 96 85 94 95 96 96 95 96 98 97 100 92 93 95 96 80 88 77 85 82 79 78 78 69 57 51 51 50 52 54 59 70 69
92 87 86 82 89 98 99 99 98 98 96 98 99 97 99 98 97 94 92 93 100 100 99 98 98 94 85 89 82 84 76 78 77 75 57 53 49 52 50 50 56 60 60 73
94 90 83 84 91 99 100 99 100 99 99 92 100 99 99 95 97 96 92 98 100 99 95 95 93 84 82 93 93 69 56 54 55 58 51 49 48 54 54 50 57 63 62 66
88 84 91 94 98 100 100 99 98 94 97 100 99 98 98 94 91 94 100 100 100 100 100 99 93 83 82 88 93 64 57 58 47 53 50 64 62 61 60 55 61 64 66 70
89 92 96 98 97 100 99 100 96 100 94 96 100 99 98 96 97 99 97 96 94 96 100 91 94 86 87 98 78 69 59 60 58 57 53 52 55 62 64 62 61 65 65 65
98 98 99 97 100 100 100 100 100 98 98 98 100 100 98 96 99 94 95 100 100 94 97 96 96 94 98 76 71 68 62 58 60 60 57 61 60 66 66 64 64 56 59 58
98 99 100 100 98 98 100 100 100 99 94 92 98 92 99 96 95 98 97 99 100 100 97 93 100 98 81 75 75 71 60 58 58 65 78 72 70 68 67 61 54 47 49 52
99 99 100 100 100 98 94 100 99 100 100 99 93 92 98 92 98 99 100 100 100 96 91 96 93 97 89 80 78 73 65 60 59 57 55 61 61 65 63 60 53 48 48 49
100 100 100 100 98 97 99 100 100 100 98 98 98 95 89 98 94 96 99 94 98 91 93 96 94 88 75 81 80 74 66 64 64 61 58 60 63 63 60 57 54 50 49 49
100 100 100 100 100 100 98 96 100 100 98 98 98 98 88 95 92 97 93 95 97 86 95 96 91 80 79 82 84 82 76 71 67 62 65 64 66 65 56 54 54 50 49 52
99 100 100 100 99 98 97 93 93 83 96 98 82 98 92 90 96 97 94 93 88 99 100 88 82 77 80 86 88 85 82 78 72 73 73 71 68 65 60 54 52 50 49 54
100 100 99 97 99 98 99 99 99 98 100 85 83 86 79 94 96 91 90 97 98 95 85 89 74 80 83 86 88 86 83 82 81 81 79 75 70 64 60 55 48 44 43 47
99 99 98 96 99 97 98 98 98 100 94 73 66 91 86 88 93 95 95 94 94 78 92 72 78 89 86 89 92 91 89 86 85 85 80 75 68 60 52 49 46 43 43 46
99 97 100 98 99 99 96 99 95 99 82 92 93 82 75 93 100 97 90 87 82 74 81 76 85 84 88 90 90 91 91 90 88 83 77 68 61 49 46 46 52 51 54 55

GFSNW_850_rhum_042.txt.gz
RH
73 90 93 92 96 99 98 98 97 99 99 98 100 100 80 69 88 76 75 72 80 82 85 84 81 89 78 67 81 95 76 96 98 82 60 66 67 72 74 94 87 89 85 76
72 91 95 94 95 95 100 99 99 100 91 99 100 93 80 76 89 82 70 78 72 74 84 98 81 75 64 68 78 92 75 96 98 80 84 68 85 70 69 87 95 95 96 67
77 87 92 96 98 94 99 100 99 100 99 95 85 95 82 88 73 82 72 82 77 83 84 83 88 82 72 66 70 67 65 84 88 84 71 82 97 95 84 98 98 96 88 72
78 88 89 88 99 95 100 99 99 97 100 100 84 75 74 92 88 73 72 89 81 85 95 86 89 84 81 74 70 67 78 97 92 87 78 77 95 97 95 99 94 96 67 84
85 84 90 88 99 99 98 99 96 97 83 94 93 82 86 78 86 86 86 89 79 78 84 79 86 85 90 85 79 78 82 90 79 85 73 92 99 94 95 95 94 89 91 93
80 77 85 88 100 100 100 98 98 93 90 87 97 94 87 83 70 74 72 76 78 91 80 79 81 88 85 87 85 91 93 94 87 92 82 98 100 93 91 96 95 91 96 79
75 74 90 95 98 100 100 100 100 95 99 88 84 78 82 87 86 80 83 81 86 88 89 98 100 100 88 88 92 82 92 94 96 99 97 98 84 80 94 89 80 80 76 51
74 73 90 97 98 99 100 100 99 99 94 77 78 84 80 78 77 86 82 83 86 95 99 98 100 98 96 86 76 78 82 80 100 100 100 89 52 55 80 90 78 55 61 57
78 74 78 66 99 98 99 98 100 100 90 87 74 82 78 92 96 92 92 92 89 97 94 99 94 94 83 95 93 73 80 74 96 99 99 95 54 50 50 47 78 60 57 57
80 77 65 60 98 97 100 99 100 100 90 80 79 88 88 82 91 97 92 93 99 98 97 95 97 96 76 96 88 96 90 88 99 96 99 83 63 62 55 54 52 52 55 51
74 77 54 80 99 89 98 98 99 100 92 84 79 78 83 92 88 97 94 96 100 97 98 84 89 92 93 86 76 89 91 95 97 91 86 93 52 48 48 50 50 58 62 61
74 81 81 96 94 86 99 99 99 100 98 89 82 80 79 83 88 94 98 93 95 80 91 87 91 94 96 88 97 81 89 76 84 82 80 58 58 52 53 56 57 61 72 71
54 74 98 86 86 80 97 98 100 100 93 84 82 81 84 88 94 93 96 96 100 100 96 90 92 80 90 96 93 85 80 79 84 77 63 70 60 56 52 54 55 64 72 72
57 98 88 84 86 81 96 99 100 100 92 94 85 89 92 93 98 100 99 93 95 98 99 93 93 90 82 88 80 84 81 82 80 82 73 63 56 55 53 58 59 64 71 67
86 89 93 87 82 84 95 97 96 100 100 98 98 98 99 98 100 94 100 96 96 100 100 98 93 94 86 87 80 91 85 82 84 80 60 55 51 54 57 57 63 63 61 69
98 96 94 84 86 89 99 100 98 93 100 97 100 100 100 98 100 100 100 100 100 100 97 94 92 91 88 97 95 72 62 63 58 64 54 52 53 56 63 62 66 65 62 63
98 95 86 93 97 98 99 99 100 93 100 98 99 98 99 96 95 96 98 100 100 99 99 98 95 88 84 91 95 62 60 56 56 55 55 57 57 61 63 63 69 67 69 69
93 86 96 98 99 100 98 99 100 99 98 98 100 99 95 97 100 100 100 98 96 96 99 98 96 91 90 98 80 68 65 63 60 60 57 52 55 63 66 68 68 70 72 72
94 94 98 99 100 99 99 100 100 100 99 100 100 100 99 92 100 96 97 100 100 96 99 98 96 95 98 79 71 68 66 62 62 61 56 58 59 66 69 68 72 66 72 71
99 97 100 99 97 98 100 100 100 98 98 93 98 90 98 96 96 98 97 99 100 100 96 95 100 96 82 71 71 70 62 59 60 64 76 73 74 70 70 68 66 60 61 61
100 100 100 100 98 100 98 99 99 99 100 99 95 91 98 92 98 99 99 100 100 98 91 97 92 94 88 81 82 79 69 62 63 60 56 58 59 66 67 68 62 57 56 56
99 100 100 100 100 96 100 99 100 97 95 98 99 96 91 98 94 97 99 95 92 91 94 97 96 88 79 83 85 80 73 67 65 62 59 62 64 64 62 59 56 52 51 52
99 99 100 100 99 100 100 93 99 99 98 99 98 99 94 99 93 97 94 99 99 89 96 96 92 80 79 83 86 82 76 72 68 65 68 67 68 68 59 56 55 51 51 54
99 100 99 100 99 99 98 97 95 88 98 100 86 96 95 92 97 97 98 95 91 99 100 88 82 72 79 84 88 87 82 77 73 73 74 75 72 68 62 54 53 51 52 58
100 100 99 99 99 95 98 99 99 98 99 92 81 86 79 95 94 89 93 97 98 96 88 88 70 76 84 85 89 88 83 78 75 75 75 74 70 63 62 59 55 50 48 52
99 99 98 97 99 98 94 96 98 99 100 83 70 90 90 90 91 95 100 93 94 80 92 68 75 85 84 86 90 90 86 83 81 82 78 73 67 62 58 58 54 47 41 47
98 98 100 100 100 99 95 98 96 99 97 96 91 84 78 92 100 97 92 87 83 69 71 73 85 85 82 90 94 92 89 87 86 83 78 71 65 57 54 54 52 49 50 49

GFSNW_850_rhum_045.txt.gz
RH
92 88 79 92 94 99 100 98 100 91 91 99 100 100 90 80 87 70 74 75 76 78 77 83 88 85 75 69 81 92 74 97 95 85 69 62 69 74 73 92 84 90 80 72
90 78 80 91 94 95 100 100 99 100 97 99 97 97 95 85 84 74 66 78 75 74 85 90 75 76 67 74 80 90 76 99 95 74 85 77 81 75 66 72 82 92 92 62
91 78 74 75 88 97 100 100 100 99 100 92 94 100 99 92 77 77 74 84 78 82 88 79 83 78 71 71 72 74 67 86 82 76 65 80 96 88 76 91 97 79 80 65
89 74 75 65 81 98 100 99 100 99 99 99 92 89 85 88 80 77 74 90 81 86 95 85 86 76 76 74 74 71 82 98 84 79 80 80 84 85 94 99 91 94 61 60
82 79 81 70 79 98 99 100 99 98 92 90 86 98 94 89 92 82 85 84 81 82 85 75 79 74 85 73 81 79 80 89 85 84 65 68 98 93 96 96 95 95 94 92
77 72 77 87 81 98 100 99 100 100 95 97 99 96 88 79 78 79 73 78 84 89 74 63 65 88 88 82 85 88 91 93 88 89 79 93 99 96 96 93 89 86 98 80
78 74 78 78 82 98 100 100 100 100 98 96 94 83 81 84 77 86 82 75 81 90 79 82 91 100 97 82 87 83 91 95 89 98 96 98 85 87 90 96 86 77 77 73
92 75 77 72 65 99 100 100 100 100 98 89 80 79 80 85 84 87 78 82 78 89 92 98 97 94 99 93 95 88 84 87 99 100 98 78 66 87 85 95 81 69 69 59
93 73 80 63 46 99 99 100 100 100 92 92 77 88 76 89 86 89 79 87 88 97 94 100 98 98 84 98 96 85 92 83 98 99 98 94 65 51 55 86 86 67 60 58
90 77 77 36 67 92 98 99 100 100 98 80 78 87 85 80 89 93 91 97 98 95 99 100 96 90 77 97 92 94 99 100 96 100 98 83 60 56 58 62 59 49 51 58
75 86 50 53 82 86 91 99 100 100 100 87 79 74 84 91 86 95 98 98 99 98 100 100 88 92 94 84 80 88 91 96 98 97 99 90 50 54 51 51 55 54 57 58
55 40 72 90 81 84 81 96 100 100 100 93 86 81 80 80 77 86 98 94 96 93 98 97 90 94 96 88 93 83 88 77 86 83 78 56 53 56 52 57 62 64 71 71
52 49 88 88 84 86 82 95 99 99 99 85 84 77 85 84 89 88 94 96 95 98 86 86 90 84 88 95 92 86 81 79 83 79 62 72 58 54 56 57 64 68 71 76
96 93 90 96 88 85 83 91 98 100 100 95 85 89 93 91 92 99 99 92 93 98 99 97 93 88 84 90 80 85 80 83 82 84 74 64 51 53 58 58 66 66 69 69
98 100 98 80 79 82 81 80 92 100 100 98 98 97 97 94 99 99 100 100 100 93 99 98 94 93 88 90 84 93 87 82 86 74 62 58 55 54 57 59 66 68 65 68
92 94 96 89 76 87 95 96 92 100 100 100 100 96 98 97 100 100 100 100 99 100 92 91 92 91 84 98 96 73 64 65 57 61 56 55 56 61 63 61 65 67 64 66
90 89 89 90 90 94 98 99 100 100 100 100 98 95 96 100 99 99 99 98 100 100 99 99 95 92 87 95 98 67 64 61 60 59 58 60 61 62 64 61 66 70 63 68
99 87 87 98 98 91 86 93 99 98 99 99 100 99 93 99 100 100 98 98 99 100 98 99 98 95 92 100 84 65 64 61 60 61 59 57 57 68 69 68 68 71 67 70
87 85 96 98 99 98 97 100 100 96 100 100 100 100 99 97 97 98 100 100 100 99 99 98 99 96 99 84 76 67 66 66 63 68 63 61 66 70 72 69 73 66 71 69
96 92 100 99 93 100 100 100 100 99 94 95 100 90 97 95 97 99 97 98 100 100 96 95 100 98 80 80 75 74 68 66 64 68 81 81 80 73 74 72 70 70 70 71
99 100 100 100 99 99 98 99 96 98 100 97 90 95 96 90 99 100 99 100 100 99 92 98 93 94 87 80 82 80 75 68 69 65 61 63 61 70 73 76 73 72 71 69
100 99 100 100 99 97 95 100 100 100 97 94 99 97 92 96 96 97 98 95 97 96 93 99 95 86 77 81 85 83 75 68 66 63 60 63 67 68 69 69 70 67 64 61
98 98 99 100 98 100 99 99 99 99 94 98 99 99 97 98 91 96 96 95 96 86 97 95 92 79 75 81 85 85 77 72 67 63 64 68 71 73 68 65 65 61 59 58
98 99 99 100 100 99 98 97 97 92 100 100 93 95 97 94 98 98 99 95 91 98 99 93 81 67 77 85 89 87 80 76 70 67 68 72 71 70 66 60 57 55 55 57
99 99 99 99 99 94 98 99 99 96 97 99 85 88 81 95 96 90 94 95 98 96 88 88 68 74 85 86 90 89 85 79 75 73 72 73 70 65 63 60 56 51 49 52
97 96 97 97 96 96 92 89 96 97 99 96 80 92 91 91 93 94 99 94 92 78 92 68 71 82 82 85 92 91 87 83 80 80 79 76 70 63 59 62 57 51 54 50
94 99 98 98 100 99 98 98 100 100 100 98 96 87 78 91 99 98 92 88 82 65 65 69 77 84 80 83 90 91 89 87 86 83 80 73 68 61 58 56 57 55 52 47

GFSNW_850_rhum_051.txt.gz
RH
71 78 88 94 94 94 98 100 100 99 86 97 83 72 84 95 79 68 57 50 50 56 51 60 58 60 51 43 45 58 49 55 77 71 40 42 52 58 58 77 61 55 59 57
74 80 91 86 92 98 100 100 100 100 89 99 78 73 89 93 86 75 58 58 50 44 52 66 51 49 48 50 48 52 54 69 75 64 52 45 54 49 51 55 60 81 85 52
76 80 88 81 85 75 100 99 100 99 99 99 59 69 97 98 80 65 57 55 48 48 54 48 57 65 57 55 50 57 54 60 65 62 57 63 78 57 47 59 89 67 63 52
71 90 90 75 51 76 99 100 99 99 100 87 64 53 87 88 87 59 57 58 51 52 62 55 57 55 64 60 67 60 61 78 59 55 51 49 59 65 60 74 65 82 56 52
67 64 81 80 45 73 98 98 99 98 89 57 58 72 69 93 68 58 59 54 48 44 51 46 56 50 56 60 64 67 70 74 64 70 53 56 70 57 55 59 64 72 80 85
73 57 75 82 42 88 98 98 99 100 79 67 66 68 57 82 57 66 61 50 54 51 52 47 46 48 47 52 62 79 96 96 79 79 48 54 81 66 76 84 94 95 98 79
67 63 72 80 42 84 99 99 99 98 90 78 71 62 54 57 59 62 58 55 51 70 67 66 65 64 67 67 65 57 91 79 74 78 55 89 75 57 81 89 81 74 79 68
72 63 70 82 44 86 93 95 98 99 99 69 66 62 59 58 62 65 61 61 66 74 82 94 87 85 88 88 83 79 68 92 82 80 72 50 56 67 83 86 73 72 61 50
93 71 71 46 82 79 84 96 99 99 99 77 63 58 59 64 66 68 64 84 81 85 86 96 83 76 60 82 83 81 87 79 99 88 89 78 48 45 51 70 97 66 66 53
91 28 35 38 89 80 82 95 99 98 100 91 72 67 63 68 65 69 76 91 92 90 95 99 82 67 46 64 68 92 99 100 98 70 88 56 34 41 52 76 61 64 79 56
94 83 54 36 88 88 84 95 100 100 99 97 81 79 67 71 65 75 87 92 98 96 99 99 87 65 55 48 45 67 78 77 77 73 77 76 36 48 55 49 47 50 56 72
92 82 89 82 76 97 90 98 100 100 100 98 87 81 77 79 83 83 91 85 85 91 96 96 78 62 53 46 71 44 59 44 50 55 52 34 40 42 42 45 52 56 64 64
92 92 94 99 78 89 95 97 92 96 100 89 91 85 81 80 82 81 89 99 91 97 88 91 75 77 51 59 49 53 46 39 52 58 38 42 40 44 52 55 62 70 66 74
94 92 90 88 96 57 80 97 86 98 100 96 77 81 88 80 86 88 88 89 94 95 97 96 91 87 60 55 55 51 49 53 55 48 40 39 42 52 58 67 70 68 68 76
97 92 88 88 85 57 61 61 69 82 96 97 89 83 85 94 92 94 100 100 98 99 94 95 95 70 71 62 63 61 54 51 55 44 42 46 50 62 67 67 70 68 71 78
98 91 83 84 84 74 94 99 94 91 100 100 99 90 94 98 98 100 97 96 100 95 91 86 70 81 72 72 66 42 42 48 43 40 53 55 62 63 64 65 68 70 69 77
100 97 85 78 82 84 98 100 100 100 100 100 98 94 89 93 100 100 95 96 99 95 90 89 87 83 81 73 70 42 54 56 57 57 60 56 64 62 68 65 65 70 70 76
88 73 85 85 84 89 92 98 99 100 99 100 100 95 86 97 98 98 95 100 98 99 98 98 93 85 80 91 59 53 56 63 62 60 63 64 64 66 67 67 66 70 72 77
88 83 88 89 95 97 83 97 100 100 100 100 99 100 97 95 94 99 99 100 99 99 98 95 97 94 98 72 62 58 64 66 67 68 70 69 70 69 69 68 67 75 73 75
90 95 99 100 92 100 100 100 99 100 94 100 93 82 78 85 86 97 99 100 100 100 97 94 100 94 66 66 77 78 76 71 74 77 81 80 79 75 72 68 71 71 72 74
100 100 100 100 100 100 100 100 98 97 100 93 92 88 82 88 89 90 99 99 100 100 93 90 93 76 63 71 76 85 82 74 68 71 70 67 65 67 68 76 71 70 72 73
99 100 99 100 97 96 99 100 99 96 98 92 92 97 98 96 96 97 97 100 96 100 76 90 90 60 68 74 80 84 88 80 71 69 67 67 67 68 70 72 70 68 71 74
100 99 100 96 99 100 100 100 100 99 98 99 99 100 100 98 93 96 97 100 97 76 94 84 66 69 63 77 84 89 88 82 77 72 67 70 74 76 73 70 69 69 70 71
100 97 100 100 100 99 98 92 97 97 99 99 99 99 99 97 99 97 100 93 88 94 96 89 52 60 72 84 86 88 89 83 76 72 72 75 81 81 78 74 71 68 68 67
96 99 98 96 98 99 97 96 96 94 95 99 97 96 94 100 100 92 96 97 97 84 77 73 73 73 83 87 90 94 92 86 81 78 80 83 82 80 79 78 75 71 68 67
96 97 99 94 98 100 99 98 99 100 100 100 99 99 99 99 95 97 97 91 82 82 82 84 80 79 89 87 89 94 92 89 84 81 81 84 83 81 80 78 75 71 65 60
91 99 98 98 99 97 98 96 99 97 100 100 100 100 100 90 97 96 80 89 84 89 90 88 88 91 87 83 87 93 94 91 88 86 86 85 82 79 78 76 72 66 62 58

GFSNW_850_rhum_054.txt.gz
RH
84 71 82 94 94 87 97 100 100 99 98 99 94 85 74 87 82 86 59 48 50 55 62 65 58 57 51 40 41 58 52 50 91 80 51 53 60 66 65 90 79 84 87 76
78 70 82 93 93 89 99 98 99 94 99 93 90 88 92 92 96 77 58 56 47 44 56 70 57 53 45 43 45 54 53 76 78 64 62 50 60 59 57 60 72 87 94 66
70 72 76 78 55 82 99 98 100 96 98 99 91 73 96 99 91 71 55 52 46 54 63 57 68 63 53 49 53 51 48 55 75 93 71 68 77 60 58 73 94 76 73 59
74 75 76 78 43 86 98 99 99 99 98 85 82 69 90 96 97 70 56 54 50 52 60 54 64 61 64 58 62 54 62 80 66 63 57 54 64 72 65 72 67 80 58 58
90 70 75 75 43 84 98 98 99 98 88 80 71 67 86 98 79 81 57 61 50 48 54 47 58 58 56 68 68 65 63 73 65 75 58 61 69 61 60 60 63 63 61 65
73 70 66 79 40 86 98 97 99 99 91 60 78 67 65 83 75 71 60 50 53 60 56 57 54 49 45 49 63 78 92 88 79 84 58 58 80 64 60 56 53 56 73 63
91 80 81 83 49 87 96 98 99 99 96 69 64 57 52 77 71 67 57 52 61 65 63 62 61 64 65 56 58 59 78 93 76 94 70 91 75 66 72 84 77 69 75 82
91 83 96 58 63 79 80 99 99 99 99 90 61 58 56 54 63 72 59 67 69 71 75 83 87 90 82 80 68 71 68 76 87 95 86 64 56 73 80 90 75 69 78 74
92 89 84 42 66 79 77 100 98 98 100 83 84 60 55 68 63 72 72 77 75 76 88 90 78 76 64 90 85 80 76 81 99 94 97 86 55 51 52 68 94 77 81 72
90 92 94 75 56 83 87 99 99 99 100 88 86 69 75 61 63 74 76 84 88 83 91 98 90 72 46 82 74 94 96 100 95 91 89 72 41 52 58 83 70 63 80 72
86 93 93 91 76 83 90 97 100 100 99 94 92 78 72 71 67 79 92 88 91 94 98 95 90 87 62 55 57 86 86 95 96 84 83 85 44 55 64 57 49 49 52 62
92 93 99 89 93 79 87 99 100 99 99 97 92 80 74 78 85 80 86 85 81 83 93 96 87 81 61 62 70 54 74 61 65 68 69 42 40 43 41 43 51 52 58 63
98 97 90 94 99 95 66 98 99 100 100 95 89 79 81 78 78 80 85 92 83 86 85 88 85 85 73 73 64 60 50 43 54 58 54 46 42 41 45 52 57 62 67 66
86 94 96 89 88 86 70 88 99 100 100 99 86 80 83 76 76 81 83 85 85 88 92 96 95 86 68 73 66 66 57 54 55 58 52 46 48 55 61 63 64 62 66 71
92 94 91 89 87 83 53 55 66 88 99 96 90 82 87 86 93 93 92 95 97 100 99 97 97 82 75 76 77 78 61 66 73 66 48 51 58 59 60 65 64 66 70 75
98 98 96 88 86 76 79 98 92 83 96 100 92 89 90 92 94 96 97 100 100 96 94 92 74 68 69 87 82 52 42 48 45 51 54 54 59 60 61 61 64 67 71 77
98 99 87 86 79 81 98 100 100 97 100 100 98 97 92 89 96 100 100 98 99 99 92 92 91 82 80 84 87 49 51 55 55 56 57 59 62 64 65 64 65 67 72 77
97 88 73 82 77 74 79 92 97 99 99 100 97 95 93 95 98 98 97 100 98 99 94 97 94 87 86 97 76 60 57 60 63 62 60 62 63 64 65 66 64 68 72 75
94 86 85 85 84 91 87 98 100 100 99 98 100 100 98 94 94 97 97 98 100 98 98 96 97 88 98 83 70 67 68 68 68 67 66 69 71 70 69 67 69 69 77 80
96 97 99 94 88 90 100 100 100 99 100 100 99 84 89 86 86 98 99 99 99 100 98 96 100 96 73 73 73 75 75 76 75 74 76 76 81 78 74 70 72 75 74 76
100 100 100 100 94 100 98 100 100 99 100 94 94 88 89 90 97 100 97 100 100 100 99 98 98 89 76 66 68 77 82 88 83 76 73 69 76 75 74 73 72 73 73 75
100 100 99 99 100 99 100 100 100 100 100 96 96 98 98 95 93 100 100 100 100 99 90 97 96 78 63 64 77 84 91 91 84 77 71 68 76 72 72 80 77 71 73 75
100 100 100 100 100 100 100 99 100 100 99 98 98 100 98 98 94 98 100 100 100 82 93 89 82 69 69 84 90 91 95 90 83 78 72 68 72 74 73 81 73 70 72 76
100 100 100 100 100 100 100 98 99 92 96 99 99 99 99 96 100 98 100 98 96 95 93 94 81 80 84 88 90 97 97 92 86 79 75 76 79 79 78 75 70 71 74 78
100 99 100 100 100 99 99 96 96 95 94 100 100 97 94 100 100 94 99 98 97 92 97 99 89 83 91 89 88 95 95 93 90 86 84 84 84 82 80 77 73 72 73 74
96 96 100 96 100 100 97 94 99 98 99 98 100 100 98 100 100 99 96 93 94 98 98 91 91 92 94 90 88 95 97 95 92 90 89 89 87 83 81 78 74 72 70 68
89 99 97 93 93 98 99 97 100 98 100 100 100 99 99 93 96 98 91 97 99 96 94 87 84 90 90 89 88 91 95 96 92 90 89 89 87 85 81 78 75 72 69 66

GFSNW_850_rhum_057.txt.gz
RH
72 72 87 89 92 93 97 99 99 100 98 99 99 95 83 82 84 98 92 84 57 70 73 72 68 73 59 46 49 62 54 70 95 85 60 56 66 80 75 91 79 92 90 80
76 70 85 59 91 96 98 99 99 98 82 98 94 84 96 90 92 96 76 66 50 54 64 78 58 59 49 46 50 62 56 79 86 75 68 61 75 68 63 67 78 92 94 71
87 78 58 58 51 96 98 96 90 86 89 92 93 90 99 96 95 89 66 55 53 72 70 79 80 67 60 52 52 48 47 59 76 88 74 72 83 72 68 74 99 86 87 64
82 67 63 63 43 95 98 98 99 97 98 85 90 96 98 100 98 78 64 58 60 75 92 75 70 69 70 66 58 57 62 83 69 72 68 64 71 68 68 83 75 84 63 63
85 80 80 71 46 91 99 99 98 98 98 86 82 80 97 100 93 84 63 65 56 58 75 61 67 67 70 74 69 66 70 77 78 78 67 69 78 70 70 68 64 72 69 68
92 80 72 65 55 87 98 99 99 100 93 79 82 78 96 89 86 69 64 61 71 77 73 62 55 53 51 64 79 86 87 86 83 93 65 70 79 71 66 63 60 57 73 55
94 91 48 47 52 84 91 100 100 99 95 90 79 63 74 91 84 82 62 65 76 67 61 56 58 61 67 62 64 73 84 88 80 96 81 92 55 68 66 73 74 61 58 54
91 95 87 35 36 84 85 99 100 99 98 89 75 62 65 78 70 74 80 72 70 65 63 82 85 88 76 73 70 74 70 84 94 99 94 71 77 80 83 88 75 72 76 64
93 93 95 71 40 75 87 99 98 100 100 90 92 75 64 76 72 72 83 77 72 67 89 84 84 76 73 88 81 80 77 86 97 94 97 96 59 57 59 68 95 74 71 76
93 95 92 83 77 69 90 100 99 100 99 88 95 81 81 62 66 81 86 85 83 79 91 93 86 79 58 91 86 95 99 99 99 92 96 81 53 61 58 90 68 62 77 80
94 90 91 91 79 86 82 88 100 100 99 89 92 94 82 73 72 88 90 84 87 91 91 91 87 89 67 69 75 88 84 88 86 81 94 90 42 60 68 57 49 49 60 61
96 89 90 85 88 98 86 80 100 100 100 96 96 85 78 85 85 78 82 86 85 78 92 96 91 91 78 76 79 71 81 77 87 80 76 48 46 43 44 45 50 53 55 60
96 94 87 84 84 86 87 73 85 100 100 97 93 80 78 79 78 80 79 86 79 80 78 90 90 98 83 89 81 70 59 57 64 63 54 51 39 42 49 54 60 63 65 67
100 93 94 86 80 86 87 82 82 100 100 99 87 88 85 81 78 81 80 78 81 81 86 93 97 93 74 85 78 74 62 55 57 59 55 47 50 56 58 59 60 58 61 66
88 94 88 82 87 86 85 71 48 81 100 98 91 85 79 86 90 92 91 93 92 95 100 94 86 82 78 86 86 89 64 66 72 73 53 57 59 58 61 64 61 61 65 72
99 94 84 90 91 86 74 97 63 71 88 100 99 86 89 92 90 93 90 93 100 99 94 93 83 72 78 94 84 66 56 51 48 56 52 54 55 59 60 61 61 64 68 74
90 92 87 85 92 85 92 99 100 100 100 100 99 98 94 90 96 96 100 100 98 97 96 91 82 88 78 85 94 58 53 57 57 58 58 61 62 60 62 61 62 67 70 77
92 90 75 81 84 75 76 91 100 99 100 100 96 98 93 94 98 99 96 99 100 98 94 88 93 89 86 97 80 72 66 64 63 64 62 63 63 66 66 64 64 67 72 75
84 98 84 83 76 73 85 98 99 99 100 100 100 100 96 96 95 98 100 96 100 97 96 89 96 92 94 85 83 79 79 78 73 70 70 71 72 70 69 68 68 68 73 76
93 93 100 95 90 93 100 100 100 100 99 100 99 88 93 92 91 97 99 98 100 100 99 99 100 97 92 68 70 78 77 78 85 79 72 72 75 78 75 70 69 70 75 78
100 100 100 100 100 100 100 100 100 99 100 96 98 91 90 90 97 99 99 100 100 100 100 100 100 100 74 71 80 86 88 89 87 88 82 76 71 76 80 75 74 76 74 77
97 100 100 100 100 100 98 100 100 100 99 97 96 97 98 95 94 100 100 100 100 99 98 100 100 95 75 88 91 96 97 95 91 86 81 74 75 74 79 75 73 77 75 77
98 100 100 100 100 100 100 99 100 100 99 92 97 100 97 99 97 100 100 100 100 97 100 95 90 79 86 96 95 98 98 94 89 84 79 76 83 82 78 83 83 71 74 76
100 100 99 100 100 99 100 98 98 98 96 97 100 100 99 97 100 98 100 99 99 98 96 95 95 96 97 96 94 99 99 96 91 86 83 83 82 79 80 90 87 76 75 80
100 100 99 99 99 99 100 96 97 96 95 99 99 97 97 100 100 95 99 98 98 94 100 100 96 91 91 91 92 99 100 99 93 89 87 87 87 84 80 81 77 84 75 75
99 100 99 98 100 100 97 95 100 98 99 98 99 100 99 99 100 98 97 98 92 99 98 97 86 89 90 90 91 94 98 100 96 92 90 90 88 86 82 78 75 73 74 76
98 99 95 99 98 100 99 95 100 97 97 100 100 99 92 94 93 96 94 97 98 96 92 86 89 90 90 86 87 94 96 97 97 94 91 88 86 84 83 79 75 73 74 75

GFSNW_850_rhum_060.txt.gz
RH
87 77 93 86 91 83 95 84 99 97 90 98 95 99 84 79 94 99 99 94 70 79 72 70 71 74 64 52 54 63 55 80 96 80 63 61 68 77 76 92 78 94 91 79
94 83 94 72 44 90 91 95 97 83 90 96 97 85 82 95 98 98 90 79 54 58 67 76 64 65 49 50 53 63 56 78 94 79 67 64 74 74 71 70 83 94 90 70
83 85 87 63 41 89 86 92 95 78 83 93 95 96 100 99 92 96 81 60 57 65 83 78 73 72 69 52 51 49 50 67 71 84 71 80 88 79 71 80 96 90 85 73
89 100 85 62 49 85 94 98 98 96 97 87 88 96 100 100 99 80 68 63 69 83 87 73 81 76 70 65 62 58 61 74 73 71 72 68 73 74 81 87 78 84 67 66
92 94 76 57 52 80 99 97 99 98 98 99 94 85 100 100 92 86 84 86 77 73 78 66 76 73 74 69 65 68 67 85 81 81 69 73 80 75 75 77 76 78 72 72
87 99 88 47 68 81 91 100 99 100 93 93 87 90 97 92 84 78 76 70 75 80 82 63 60 54 58 65 76 85 74 78 79 97 71 74 78 73 71 68 65 62 77 60
90 91 96 72 58 88 93 100 99 99 95 88 83 80 86 92 83 83 76 70 75 66 63 55 55 60 66 66 75 69 85 84 78 96 82 96 55 59 58 65 58 55 54 48
93 92 92 97 48 74 87 97 99 99 98 86 86 86 78 75 72 81 85 80 73 62 57 78 76 79 75 74 73 70 68 82 94 97 95 74 64 80 85 90 69 68 73 65
92 96 94 94 84 59 80 100 99 100 99 89 97 98 75 79 78 83 84 77 70 62 86 82 75 83 68 82 87 79 81 82 99 91 91 96 58 61 64 64 91 64 73 71
85 86 90 90 81 73 65 92 99 100 99 94 100 97 89 68 76 87 87 83 79 75 90 86 74 75 64 91 85 91 100 100 98 94 94 81 58 54 62 92 68 56 63 69
85 87 84 93 85 84 73 65 99 99 99 95 87 99 98 83 76 85 88 83 85 88 92 81 84 88 76 79 76 90 84 96 96 92 94 93 47 62 70 60 50 49 49 57
85 83 84 81 86 84 90 67 97 99 99 96 94 92 91 89 93 82 79 80 85 77 87 95 91 88 89 80 90 76 84 74 80 79 74 50 41 51 39 42 51 57 58 57
86 80 88 79 83 81 91 85 72 93 99 98 92 75 75 76 78 87 84 82 77 83 77 82 90 96 89 84 89 78 70 62 71 70 56 59 48 39 39 47 60 62 63 67
84 80 86 93 92 79 89 89 75 98 99 98 91 98 93 89 85 84 83 81 80 78 83 90 91 94 76 79 78 74 63 64 67 66 55 46 50 56 57 58 59 59 60 66
89 98 93 85 90 85 87 82 68 80 97 98 94 84 81 84 89 90 86 87 88 86 96 98 96 83 81 86 89 92 70 70 70 69 47 52 55 56 55 58 58 58 61 69
96 98 98 99 79 97 84 57 36 50 75 100 98 88 83 90 92 89 90 95 99 95 97 94 89 79 73 95 91 55 61 61 57 55 51 54 55 55 56 58 59 60 63 72
88 99 99 84 85 90 76 99 100 94 99 100 99 96 94 88 94 92 93 100 100 100 97 98 88 83 80 88 94 63 65 66 63 63 63 63 60 60 63 64 63 63 66 76
98 99 81 80 88 88 73 99 100 100 99 100 100 98 88 96 100 97 98 98 98 100 96 93 90 86 89 99 77 81 82 76 71 71 70 68 67 66 66 66 64 66 70 76
94 93 88 87 85 61 91 99 100 100 100 100 100 100 96 99 97 97 100 98 99 97 98 93 98 91 100 87 78 85 82 85 84 80 78 73 72 72 72 70 68 67 70 75
83 92 93 92 82 94 100 100 100 100 100 100 99 92 94 91 92 92 99 100 100 99 98 100 100 98 93 86 89 91 90 86 85 88 81 77 77 76 75 74 71 69 70 74
100 100 100 100 98 100 100 100 100 99 100 99 98 94 90 94 96 98 100 100 100 99 100 100 100 100 92 88 92 99 99 98 96 95 89 87 86 77 77 79 75 71 73 76
97 100 99 100 100 100 98 100 98 96 98 98 96 93 92 95 96 100 100 100 100 99 99 100 99 93 87 96 90 97 99 98 95 92 89 84 78 77 78 81 76 74 76 77
97 100 100 100 100 99 97 95 97 99 98 94 99 100 98 100 99 100 100 100 99 99 100 99 95 89 92 95 91 96 100 99 93 88 84 80 78 90 88 80 78 81 85 87
100 100 99 99 99 99 98 97 97 100 99 95 99 100 99 99 100 99 100 99 100 99 98 98 97 93 90 90 92 96 99 100 96 90 86 84 85 87 88 96 96 85 85 90
100 100 99 99 99 100 100 100 98 98 100 100 100 96 97 100 100 98 99 100 98 96 99 99 96 90 91 91 95 99 99 100 98 91 89 87 85 86 83 89 93 93 84 82
98 100 99 99 100 100 99 98 100 96 98 99 96 100 100 99 100 100 96 98 95 98 98 97 87 88 90 91 92 100 100 100 97 93 89 88 87 86 83 85 81 83 94 81
93 99 95 100 100 100 100 98 100 95 97 100 100 99 94 94 98 98 96 96 97 94 93 91 90 92 88 80 85 86 97 100 99 96 92 89 87 86 84 82 78 75 76 78

GFSNW_850_rhum_063.txt.gz
RH
77 87 98 95 88 97 82 93 96 84 83 94 87 100 90 90 96 97 96 93 73 80 72 71 72 72 64 53 55 63 60 82 97 84 64 64 69 78 80 89 84 94 94 77
90 93 94 84 50 98 91 94 90 72 81 97 97 85 97 97 98 97 92 71 61 60 66 72 66 64 56 51 55 63 58 80 96 80 67 67 74 75 74 74 83 96 92 69
85 95 92 56 48 92 91 95 93 79 77 90 97 94 100 100 96 92 94 68 62 73 83 74 75 71 73 53 49 52 52 69 71 85 72 79 88 81 76 79 96 88 87 73
88 92 91 52 48 94 96 97 94 96 98 90 97 95 100 100 90 88 72 71 77 78 84 75 86 78 70 65 64 61 60 74 73 68 69 70 76 78 83 87 76 83 69 70
94 84 90 68 50 86 93 89 98 98 98 99 96 93 98 95 79 82 85 86 80 74 73 68 82 76 71 70 67 70 66 89 78 75 68 75 81 76 77 81 77 78 73 76
90 87 88 83 73 93 95 98 99 100 94 90 87 96 95 95 86 85 75 77 76 81 84 66 60 57 64 65 74 83 69 79 81 96 75 74 76 76 75 72 77 71 84 63
85 85 88 95 69 97 98 100 100 98 92 88 93 84 90 90 81 90 81 79 75 67 67 58 57 61 66 71 75 64 72 75 79 95 79 93 53 54 59 67 61 58 54 49
87 82 83 72 91 77 87 99 100 99 95 83 89 94 81 80 75 86 88 83 77 64 57 75 77 79 75 79 78 72 65 81 92 96 90 72 59 83 83 74 65 60 55 53
85 78 85 80 67 74 71 98 99 99 98 90 98 91 92 81 85 87 83 76 67 58 85 79 75 92 71 85 88 81 82 90 88 98 94 95 55 64 67 64 89 60 71 69
88 79 85 84 70 85 79 67 100 100 99 98 100 92 99 82 80 90 90 85 77 70 86 88 85 82 67 90 83 94 99 100 98 93 96 79 57 59 62 90 75 53 54 54
86 83 71 82 76 73 91 81 78 100 97 97 85 94 100 95 84 87 86 80 80 88 90 85 78 83 78 80 78 87 82 94 91 90 92 90 46 63 70 61 46 48 55 57
78 84 69 79 82 72 81 96 83 100 99 98 87 84 91 96 100 94 83 77 83 80 90 94 92 89 92 82 87 78 88 78 83 81 77 50 42 58 50 43 47 54 68 68
86 82 77 82 82 79 82 100 95 89 94 97 96 72 78 86 79 94 88 81 80 80 75 88 92 94 91 83 80 81 76 66 75 68 55 62 47 42 42 41 46 59 60 62
87 82 90 92 94 92 89 90 99 95 99 97 95 98 94 87 84 85 91 87 82 79 83 86 88 87 77 88 80 76 68 66 72 74 62 49 46 50 56 57 57 58 59 62
86 87 93 85 93 85 89 86 84 88 96 99 98 86 83 88 92 89 86 89 89 85 93 95 97 84 88 89 90 93 72 73 74 75 51 50 50 52 55 55 58 58 58 62
88 85 94 93 99 90 99 91 56 75 93 99 100 92 91 93 93 94 93 95 99 92 90 92 88 75 77 96 93 69 72 70 67 61 58 60 57 58 59 60 62 61 60 64
91 94 100 98 96 97 92 83 100 56 84 99 99 97 95 98 100 96 90 90 99 100 99 99 93 90 83 92 97 75 88 78 78 77 72 67 66 66 66 66 66 64 62 67
50 96 98 80 88 99 100 86 100 99 99 100 100 98 88 99 98 94 93 92 99 100 95 94 96 96 96 99 80 76 78 69 80 75 78 83 74 72 72 70 69 66 65 68
47 90 98 98 94 89 72 98 100 100 100 97 100 100 91 97 98 95 100 98 99 99 98 94 98 96 99 94 90 91 95 99 92 72 64 64 80 75 76 74 72 70 68 70
99 93 94 87 84 68 99 100 100 100 100 100 100 92 95 96 94 92 97 98 99 100 98 99 99 100 98 90 91 92 99 99 98 98 84 78 81 84 83 80 79 74 71 71
99 100 100 100 92 99 100 100 100 99 98 99 98 89 91 92 94 96 99 100 100 99 99 100 98 96 94 88 90 90 97 97 94 99 97 96 92 88 85 78 80 78 72 71
80 99 100 100 100 100 100 100 99 100 97 96 99 97 92 93 96 100 100 100 100 99 100 100 99 93 88 92 88 90 99 99 98 97 94 91 88 84 82 82 84 79 74 75
94 100 100 100 99 98 99 96 100 99 99 100 99 100 97 99 99 100 100 99 99 99 100 98 97 90 88 90 90 90 99 100 99 92 92 92 92 96 93 84 78 76 76 80
100 100 98 99 99 99 98 94 96 96 100 100 95 100 98 99 100 99 100 99 100 99 98 98 96 88 89 88 94 98 100 100 100 98 92 96 91 98 95 98 92 93 94 90
100 100 99 99 100 100 100 100 100 100 100 100 97 96 95 100 100 99 99 99 98 95 95 98 89 87 87 87 91 100 100 100 99 99 94 93 90 88 92 93 97 100 91 93
97 100 100 99 100 100 100 100 100 98 97 99 94 100 100 98 100 100 97 99 94 95 100 95 88 89 88 80 90 92 100 100 100 99 95 91 87 89 90 85 88 92 99 92
93 99 99 99 100 99 100 100 100 99 96 99 100 99 93 97 99 98 94 96 96 99 91 86 89 87 78 66 74 82 86 92 97 99 96 93 89 87 84 83 80 78 81 95

GFSNW_850_rhum_066.txt.gz
RH
98 94 89 91 84 87 82 94 94 66 77 88 89 98 100 99 97 96 96 90 75 78 71 73 76 73 65 55 53 69 66 78 87 84 65 64 68 77 76 87 88 95 93 72
94 82 93 68 65 87 92 100 95 68 74 98 97 89 94 96 96 94 91 68 65 62 70 72 68 65 60 54 54 62 61 82 91 84 67 69 76 77 72 75 82 98 90 60
91 78 93 48 52 90 88 90 96 80 77 87 98 96 97 96 88 88 85 68 68 75 82 75 73 78 72 54 54 56 55 72 72 86 70 80 89 84 75 77 92 88 89 65
89 88 79 74 43 83 85 92 89 100 98 88 99 99 99 100 91 82 73 76 77 73 79 78 87 76 70 66 64 62 60 80 73 67 69 73 76 83 86 86 78 84 68 78
94 90 63 89 36 75 81 100 99 98 98 96 90 93 95 90 85 86 89 87 79 73 75 75 81 77 72 66 69 68 66 92 71 73 70 77 82 78 82 81 78 80 76 78
94 93 80 72 66 70 91 98 99 100 87 88 92 98 94 89 74 78 81 79 77 83 84 73 64 63 67 67 74 79 71 79 79 89 74 77 78 78 80 82 80 74 88 64
94 89 84 69 83 74 81 100 100 99 92 90 94 92 87 85 85 84 85 75 77 72 67 64 58 64 71 70 72 63 71 74 82 93 76 81 50 52 60 68 63 68 58 52
92 88 84 90 59 84 60 97 100 99 99 84 83 92 87 75 78 89 90 83 77 66 57 75 74 79 71 79 84 76 61 80 93 94 96 69 60 83 76 72 65 58 59 53
84 90 80 91 80 65 65 75 99 100 98 86 98 92 95 90 88 84 81 75 68 60 82 75 74 91 72 89 93 81 88 85 84 98 98 90 53 64 68 69 93 62 65 68
81 82 86 73 82 69 73 80 86 97 99 92 99 96 99 97 86 90 90 87 76 65 83 89 88 84 69 90 82 96 97 95 94 97 98 82 57 58 62 84 82 57 53 54
62 77 75 76 74 85 73 76 84 98 100 93 88 96 100 99 97 92 82 77 78 86 89 84 82 82 82 81 76 85 84 94 89 81 96 88 46 59 69 60 48 49 46 64
60 84 74 86 78 89 89 78 87 98 99 92 89 80 76 86 98 100 90 79 83 81 93 94 94 91 93 84 86 80 90 76 87 81 79 51 42 53 46 50 42 45 54 63
82 77 80 77 85 87 96 91 84 99 84 84 99 76 72 80 85 94 98 84 85 80 77 88 93 87 91 82 75 83 77 70 77 69 57 61 47 46 47 47 46 48 59 60
89 81 85 82 92 91 89 98 95 96 92 98 90 99 97 84 84 86 96 95 86 83 84 86 88 82 80 87 85 84 74 71 72 77 64 52 50 51 59 57 57 60 60 60
90 91 83 82 87 88 99 96 90 99 92 98 98 89 89 94 92 90 93 94 94 86 87 94 92 86 86 93 92 95 77 78 82 83 55 54 54 52 58 59 61 63 62 62
100 99 92 86 90 92 99 97 88 90 94 99 100 98 92 91 90 94 92 99 99 94 90 87 85 78 79 95 96 79 85 84 85 71 74 72 65 67 65 66 65 66 65 63
99 98 90 92 100 99 95 77 99 89 94 99 98 99 91 100 100 100 97 94 94 99 96 98 88 84 78 93 89 86 84 78 83 84 75 74 75 78 72 72 71 68 66 65
71 51 98 99 86 99 99 90 97 99 98 99 100 99 91 100 99 96 99 90 96 98 96 96 98 93 96 99 83 82 85 77 73 90 80 74 68 80 77 74 72 71 69 68
35 83 96 99 95 99 98 94 98 99 99 99 99 99 93 98 99 93 98 98 100 99 99 84 96 90 98 90 89 91 91 95 96 81 77 73 74 79 84 81 79 77 73 71
93 99 90 86 87 85 94 99 99 99 99 99 99 98 96 97 100 97 100 100 99 99 95 96 99 94 99 97 88 91 91 98 99 100 96 82 76 81 79 80 84 82 79 74
95 100 99 100 99 98 100 100 100 99 100 99 93 90 93 97 98 97 99 100 100 99 99 100 99 100 96 85 88 86 90 100 99 100 98 95 94 94 91 84 84 82 81 76
37 72 87 100 100 100 100 99 100 100 97 99 99 98 92 94 96 100 100 100 100 98 100 100 99 97 88 85 85 84 92 99 99 100 98 96 94 92 91 88 87 85 82 76
97 100 99 100 99 99 100 98 99 100 100 100 100 100 100 100 99 100 100 99 98 99 100 98 96 95 95 86 88 94 100 100 100 100 98 100 99 100 100 92 83 79 77 76
100 100 98 99 99 99 99 97 99 100 100 100 100 100 99 99 100 99 100 99 100 99 99 95 98 93 89 90 98 100 100 99 99 99 100 99 96 100 100 100 93 91 90 92
100 100 98 99 98 100 100 100 100 100 100 100 99 98 95 100 100 99 99 99 97 94 92 98 93 92 97 99 97 98 99 99 100 99 99 100 98 97 94 98 100 100 98 97
96 100 100 98 99 99 100 100 99 99 99 100 98 99 100 99 99 99 98 99 97 92 100 91 86 89 87 72 83 88 92 97 100 100 98 96 96 98 98 97 99 97 100 98
84 98 97 100 99 100 100 100 100 100 99 99 100 100 91 99 99 99 93 96 97 98 94 88 86 81 71 62 58 57 58 62 79 94 98 98 94 88 85 82 85 87 87 97

GFSNW_850_rhum_069.txt.gz
RH
82 86 90 96 90 97 85 80 86 55 72 86 97 99 100 98 96 97 93 87 73 79 75 78 76 76 68 56 54 74 69 78 97 89 69 62 64 74 70 81 84 91 82 54
83 84 85 88 54 90 95 99 92 55 75 98 93 86 83 94 81 82 88 70 63 64 72 74 69 68 62 54 56 63 61 79 95 84 68 70 75 76 69 72 80 97 78 46
82 86 79 49 52 82 92 83 94 76 76 94 100 98 97 95 84 86 83 71 66 71 80 75 74 80 70 55 66 58 55 72 70 80 65 80 91 84 71 74 88 82 83 59
85 83 78 28 48 80 87 81 95 98 98 97 99 99 99 100 96 81 75 75 82 69 76 80 87 75 68 68 66 62 60 84 72 73 77 75 78 85 80 83 75 76 62 71
77 86 80 54 36 75 79 99 98 98 98 98 92 97 95 90 86 87 88 86 83 78 84 79 81 76 69 62 67 66 67 92 68 74 70 76 82 77 82 80 76 75 75 73
83 93 80 83 38 70 91 100 99 100 88 90 96 100 98 83 78 74 86 78 80 84 85 77 66 64 67 68 70 76 71 80 73 84 73 74 77 79 83 82 79 71 85 64
76 93 82 81 66 55 83 100 99 98 91 92 95 99 90 86 87 84 87 77 78 70 72 68 62 65 72 73 77 62 72 78 78 86 70 80 50 56 64 70 65 70 61 55
77 85 87 72 77 55 67 96 100 99 96 89 88 96 88 77 77 91 89 82 77 67 60 74 76 81 70 79 84 83 62 79 94 87 92 64 74 79 74 74 70 57 63 58
64 83 81 84 74 79 54 69 78 98 98 86 98 97 99 97 92 81 79 75 69 62 78 72 76 91 73 80 90 78 79 74 80 98 92 81 54 67 67 72 98 65 55 70
63 78 86 78 73 79 85 69 80 80 99 87 96 98 100 99 91 93 89 88 76 64 80 87 87 84 70 89 80 87 94 86 92 95 98 78 58 52 66 81 83 62 53 51
65 61 78 82 87 80 95 79 70 83 100 94 93 95 100 96 99 94 85 77 77 83 86 82 84 84 83 81 75 85 90 90 86 75 98 72 47 60 72 60 52 49 49 53
66 60 76 79 80 80 97 96 89 82 97 81 84 79 80 87 78 96 98 82 86 82 91 93 94 91 93 84 86 81 89 76 86 80 75 51 46 56 48 46 48 46 56 53
57 60 85 81 86 83 96 99 99 99 90 81 86 56 82 65 76 85 99 93 89 84 79 86 92 83 90 84 78 83 78 73 79 73 60 63 49 50 55 57 58 50 51 60
72 78 92 88 88 79 90 98 99 100 88 99 89 96 96 97 84 90 89 94 93 87 86 85 88 82 80 82 81 86 77 76 77 78 67 55 53 56 54 62 64 64 64 64
78 84 89 98 83 79 97 97 95 100 82 98 93 72 84 93 100 92 91 100 100 89 90 95 91 86 87 94 94 97 80 79 84 84 63 62 59 63 68 64 64 65 64 65
85 93 99 99 94 93 100 98 84 99 100 95 100 99 97 91 96 100 100 100 100 95 90 85 83 72 72 97 96 75 74 85 86 74 83 77 73 76 77 74 72 70 69 67
79 94 90 94 99 99 99 92 92 99 100 98 99 98 86 100 100 100 100 100 100 96 88 94 86 85 79 91 99 72 87 82 80 94 80 79 78 75 76 77 74 73 71 68
55 42 50 82 99 99 100 98 98 93 99 98 99 100 97 100 100 97 99 97 97 95 92 95 92 92 88 98 85 82 83 79 77 86 92 87 76 69 67 80 78 76 74 72
34 52 95 95 97 99 98 94 100 99 98 98 100 100 98 97 94 95 99 95 93 96 95 92 95 97 98 84 86 87 89 89 88 83 82 80 82 74 72 80 86 84 82 79
28 86 100 98 98 100 100 98 99 99 98 100 100 99 91 96 89 100 94 99 99 100 94 96 99 100 98 92 88 87 87 86 97 100 97 96 86 86 81 79 81 80 81 83
32 97 99 99 100 99 99 99 99 98 100 99 98 92 94 88 98 95 96 100 99 99 98 100 98 99 99 93 85 86 85 91 100 100 100 100 99 95 89 88 86 86 86 83
42 50 66 81 99 99 100 99 99 100 98 99 99 94 87 96 94 99 99 99 100 96 99 100 98 97 91 84 83 86 92 98 100 100 99 98 97 99 99 97 93 90 88 86
73 100 100 100 99 98 99 98 99 100 100 100 100 100 99 98 99 100 100 99 99 98 99 96 92 93 93 88 95 100 98 99 100 100 100 100 100 100 100 100 94 86 84 79
99 100 98 99 99 99 99 99 99 100 100 100 100 100 99 100 100 99 100 99 100 98 98 94 98 94 91 99 99 98 99 99 99 99 99 100 100 100 100 100 100 95 89 85
99 100 98 99 100 100 100 100 100 100 100 100 98 99 98 100 100 99 99 99 98 94 95 98 98 92 98 99 99 99 99 98 98 98 99 99 99 100 100 100 100 100 100 100
96 99 100 96 100 98 100 100 100 100 100 100 98 98 99 99 99 99 95 98 97 90 98 96 98 98 98 92 79 72 66 70 90 98 99 98 95 94 97 100 100 100 99 99
78 97 97 100 99 99 99 99 99 100 100 100 99 99 98 98 99 99 94 97 95 97 92 88 90 78 65 59 53 47 42 42 44 59 84 98 99 98 93 90 86 96 99 100

GFSNW_850_rhum_075.txt.gz
RH
58 65 45 27 25 58 62 92 84 64 69 83 79 90 86 91 72 81 79 68 50 50 47 53 56 63 53 45 41 49 47 54 90 77 58 64 64 67 62 74 67 62 69 44
58 74 49 24 20 66 85 85 81 69 84 98 88 66 70 72 71 62 61 53 49 45 47 55 53 54 47 48 46 43 40 56 78 73 55 51 55 50 46 47 61 87 63 43
62 66 47 31 15 40 80 89 96 83 83 99 96 95 77 74 67 58 55 50 42 42 46 43 55 54 54 50 45 50 38 43 51 56 58 54 70 57 49 56 75 56 42 41
57 50 53 44 22 30 95 92 90 98 98 82 86 86 78 81 66 53 50 47 48 47 48 48 56 51 48 44 47 41 37 55 54 53 52 53 60 62 54 86 49 50 38 35
60 45 62 57 36 22 88 99 99 97 94 76 77 85 81 92 68 63 59 59 50 47 58 59 49 50 46 48 41 43 41 56 50 57 54 58 67 56 55 54 49 47 43 41
70 51 44 66 54 43 77 97 99 100 78 65 79 99 99 93 72 60 63 63 53 61 68 59 54 48 45 46 45 47 45 47 49 73 53 58 69 55 56 52 49 46 52 38
79 56 43 82 72 66 97 91 94 93 79 75 77 98 97 93 81 67 62 62 53 63 71 65 50 47 46 45 44 42 48 46 50 51 51 70 53 46 46 51 46 44 42 41
80 52 55 67 83 79 96 87 95 97 82 67 70 90 96 97 71 64 64 70 74 72 63 56 57 54 52 54 50 44 38 45 57 62 47 45 58 58 53 58 63 45 47 45
88 56 56 58 72 81 94 93 80 89 88 74 66 81 98 99 94 63 63 70 72 64 52 55 64 64 51 58 58 49 44 40 53 62 61 51 62 60 56 60 79 45 47 53
91 58 48 57 60 73 82 98 93 97 80 59 73 84 97 100 99 87 67 77 66 64 56 61 58 53 51 57 57 59 58 58 63 58 66 45 44 41 53 72 83 52 53 57
88 68 58 64 68 80 81 98 94 98 94 78 76 68 73 87 94 99 88 79 71 62 63 61 55 53 52 56 53 58 57 62 62 58 65 65 43 59 64 56 52 53 50 59
86 78 61 94 80 83 85 98 98 97 99 88 71 79 84 75 82 97 91 95 81 74 69 61 60 56 58 54 56 53 60 50 52 51 50 43 43 44 46 47 49 51 50 59
88 61 94 98 92 86 86 87 99 94 98 82 76 64 73 71 46 86 77 90 98 86 84 70 62 64 58 56 52 55 51 49 52 55 44 41 44 52 58 60 63 60 58 58
67 64 86 99 98 91 88 96 95 97 99 90 60 64 82 92 96 75 60 82 97 100 99 85 73 64 59 56 59 58 52 54 52 51 44 44 46 60 68 68 69 69 69 66
77 82 69 93 94 99 94 94 92 93 98 80 72 73 49 40 72 99 100 81 89 98 94 82 74 70 62 59 64 57 51 46 54 45 49 50 50 68 74 72 74 72 69 72
85 81 68 96 82 86 99 98 84 87 100 98 86 66 63 95 90 97 98 94 100 98 95 86 71 77 62 62 64 42 48 52 50 48 70 71 74 78 79 76 78 75 73 72
83 72 75 95 85 83 99 98 99 94 98 99 81 75 91 91 99 100 100 100 98 99 88 79 69 71 75 66 71 44 51 57 70 82 78 72 82 80 78 73 73 78 75 73
85 90 94 56 59 97 99 97 97 98 99 98 98 76 99 99 97 93 95 99 98 96 94 90 72 77 87 94 66 63 67 75 78 80 78 81 82 80 83 77 72 73 80 80
84 85 60 95 97 99 96 96 98 98 99 97 97 99 100 97 99 90 100 95 97 97 94 76 77 72 93 74 72 67 75 83 87 88 83 80 84 89 89 81 75 75 72 76
78 56 94 94 97 91 96 99 99 99 99 100 99 85 99 100 98 97 94 93 94 100 83 91 98 98 71 85 84 82 86 86 84 94 91 96 90 94 92 91 88 86 84 84
84 54 91 99 98 90 99 98 99 98 99 98 95 88 98 98 98 99 91 100 96 98 85 93 100 84 90 92 91 88 86 84 84 91 97 99 99 99 100 96 96 99 100 98
72 75 81 92 85 98 100 96 98 99 82 97 96 98 98 100 98 99 99 100 100 97 98 100 93 86 90 89 88 85 91 99 99 98 98 98 98 99 99 100 100 100 100 92
58 99 100 99 99 100 97 96 98 100 98 100 100 100 98 98 100 99 100 100 98 98 99 85 75 86 87 89 98 99 97 98 99 99 100 100 100 100 100 100 100 99 99 90
99 90 85 95 96 98 100 100 100 99 99 99 100 100 99 100 100 100 100 100 100 100 94 85 94 92 88 99 97 98 98 98 98 98 98 99 99 99 99 99 99 100 100 100
94 94 87 88 94 98 100 99 99 99 99 99 100 100 100 100 100 99 97 100 96 86 88 100 99 92 99 97 96 96 97 98 98 98 98 99 99 99 99 99 99 99 100 100
99 95 88 83 89 88 89 99 99 95 98 99 100 100 100 100 100 98 100 96 93 100 100 99 98 99 99 98 77 56 49 47 47 49 61 74 79 89 96 97 99 99 99 100
100 92 100 98 97 95 96 99 100 72 98 100 99 99 100 100 99 91 97 97 96 93 92 99 99 99 99 85 91 64 42 34 29 27 29 31 37 50 61 63 77 92 96 99

GFSNW_850_rhum_078.txt.gz
RH
63 44 38 29 14 20 50 80 95 62 84 92 76 93 72 76 76 80 80 72 51 55 48 57 62 65 56 46 46 62 75 92 100 100 81 69 64 82 76 95 87 82 88 68
55 42 33 32 15 48 99 84 83 81 72 93 95 68 64 65 66 64 58 52 50 44 46 65 54 57 49 44 52 52 47 78 98 100 96 78 80 82 80 58 78 89 96 60
67 45 38 26 18 36 89 82 95 82 84 93 95 93 73 84 66 62 48 48 43 44 49 48 58 58 55 48 45 49 52 49 66 81 69 73 74 70 76 72 95 72 63 49
75 58 39 30 18 34 76 84 96 99 98 84 90 83 84 85 82 54 49 50 49 49 55 50 55 50 50 43 41 40 46 66 62 59 56 58 67 65 58 84 70 70 40 45
76 56 45 44 30 35 67 96 97 88 93 77 88 94 87 95 76 70 61 66 53 59 68 62 60 54 53 55 42 43 42 64 56 62 55 61 70 60 58 60 57 46 45 47
80 51 48 55 44 41 80 87 85 99 72 71 88 99 100 97 91 80 58 63 58 66 71 63 54 46 43 46 52 50 50 55 56 83 54 61 79 62 60 55 50 50 58 45
86 64 43 56 56 70 97 93 95 86 73 64 92 94 98 97 94 90 60 64 57 65 68 62 54 44 44 45 45 44 50 50 58 78 54 84 61 50 50 53 48 45 46 47
90 83 45 51 55 58 88 99 88 85 86 63 70 67 98 98 93 75 64 70 72 68 63 68 63 63 54 55 52 48 46 50 68 86 65 54 53 59 55 60 59 45 47 46
97 85 54 45 53 61 74 98 93 94 83 65 58 63 98 100 98 92 65 68 67 61 64 66 78 94 51 60 53 47 45 46 72 78 78 64 75 56 51 60 75 48 48 60
96 85 65 51 67 62 79 90 97 91 84 68 67 67 73 99 99 100 83 81 74 62 73 78 75 67 52 63 56 56 63 66 77 69 84 56 55 44 53 87 83 52 56 57
89 86 76 69 85 78 72 72 95 95 90 80 82 71 71 68 88 100 98 90 84 78 81 77 66 67 63 62 54 59 64 76 78 70 71 74 49 60 76 66 59 58 54 61
91 89 73 89 94 92 89 79 86 89 100 80 63 63 76 76 75 88 97 92 91 82 82 87 71 68 63 62 73 54 71 62 69 63 66 46 46 47 47 47 54 55 52 60
92 71 70 84 94 96 92 85 80 90 99 81 70 68 66 76 80 70 92 83 97 97 99 88 78 79 67 74 69 59 52 50 62 60 51 45 44 59 60 63 65 61 57 60
79 75 91 80 85 96 68 84 81 98 96 98 61 59 61 75 83 75 81 84 81 87 91 86 85 75 58 68 67 66 62 56 56 58 47 48 56 66 68 69 68 69 69 65
89 94 90 81 89 93 76 66 76 97 99 92 81 75 69 67 51 62 88 79 74 97 95 90 85 72 72 65 75 73 56 56 67 68 59 55 66 67 66 71 74 73 71 70
94 93 84 77 87 99 92 83 91 96 93 99 96 62 56 59 83 55 87 100 90 95 98 90 86 71 69 81 72 47 46 48 52 62 65 68 70 76 75 73 74 76 73 73
85 85 91 85 86 89 91 80 90 96 100 98 90 82 69 83 94 97 96 100 99 98 92 84 77 72 70 80 82 47 47 51 62 70 70 74 79 82 80 78 74 73 78 76
84 82 80 70 66 81 98 88 99 98 98 99 92 87 76 96 97 98 95 100 99 98 90 92 86 80 79 90 72 68 68 70 72 77 78 78 80 77 79 79 78 72 71 75
75 70 66 77 91 99 97 98 94 99 99 98 90 95 96 99 98 85 95 95 98 98 97 91 84 84 97 77 67 72 72 75 79 80 81 80 80 85 84 82 81 79 77 76
67 58 92 87 97 91 88 99 99 99 98 99 96 74 90 82 99 97 98 96 99 100 90 84 99 95 70 80 80 82 82 83 85 82 86 91 89 89 88 88 90 90 88 87
71 70 90 92 87 72 99 98 99 93 96 97 94 87 89 94 100 100 96 100 99 99 96 91 90 86 87 90 89 88 87 86 85 86 88 92 97 98 97 95 94 95 99 100
74 66 80 96 96 98 100 98 99 99 96 97 98 99 99 98 100 100 100 96 99 98 95 99 92 88 91 89 90 90 91 92 95 96 96 98 98 97 97 98 100 100 100 100
86 90 96 98 99 96 97 97 98 98 100 100 99 98 100 100 99 99 100 99 99 96 99 82 74 86 84 88 94 99 96 96 98 97 98 97 98 99 100 99 100 99 99 99
84 94 86 92 97 98 100 99 98 96 99 99 100 99 96 100 100 100 98 99 98 98 99 94 99 100 88 90 96 100 96 98 99 99 99 99 99 99 99 99 99 99 100 100
76 93 91 86 83 91 97 100 99 99 98 99 99 99 100 100 100 100 100 99 90 86 96 100 100 99 96 97 96 95 95 94 87 77 82 88 94 98 100 100 99 99 99 99
94 96 96 76 88 88 82 88 97 98 78 98 99 99 100 100 100 99 99 99 97 100 100 100 99 99 99 99 95 87 56 44 38 32 34 41 44 56 68 72 80 90 97 99
98 98 96 93 94 92 85 88 94 98 94 99 99 99 99 99 99 99 100 100 100 100 95 100 99 99 98 98 99 87 43 32 26 24 25 25 26 30 29 25 28 41 69 88

GFSNW_850_rhum_081.txt.gz
RH
58 50 36 22 16 25 52 76 93 80 78 81 87 95 77 71 73 74 83 87 79 60 56 67 69 73 71 68 73 93 78 78 93 99 78 72 80 90 84 90 98 91 92 77
59 48 35 19 16 39 80 83 85 70 72 94 97 81 70 66 76 71 64 66 54 49 58 73 63 65 55 49 53 65 71 86 98 91 92 79 81 86 79 76 85 89 91 74
65 49 40 31 19 30 63 81 96 77 78 89 93 95 87 81 67 73 60 56 55 58 61 59 64 62 54 49 47 59 64 82 82 89 74 86 94 89 78 73 94 85 80 52
73 61 44 44 31 26 44 70 94 92 98 89 89 90 88 89 93 72 62 64 70 72 76 65 67 59 53 45 43 44 53 77 74 64 66 66 73 89 87 97 71 74 49 51
83 78 46 48 47 38 40 73 94 81 93 86 86 84 92 98 87 94 80 82 74 75 83 82 79 67 63 62 54 51 51 72 60 70 65 68 76 68 83 76 83 63 47 51
89 83 58 47 51 53 82 82 89 94 80 69 90 93 97 96 94 91 84 75 71 79 77 72 71 68 51 48 55 60 55 63 68 87 66 72 83 68 66 61 56 53 58 48
88 85 68 47 50 66 87 90 85 82 92 79 75 78 80 96 97 91 81 72 75 69 62 61 55 55 49 53 57 51 56 58 70 84 66 85 64 50 54 58 52 50 52 51
91 87 72 59 51 57 79 96 86 88 82 78 70 67 79 95 97 94 91 71 73 67 66 75 72 78 62 62 56 54 53 64 74 84 77 62 56 58 59 62 60 48 53 56
91 88 74 64 60 68 73 89 92 87 94 80 75 71 91 100 100 94 89 74 64 66 75 78 84 97 58 64 61 52 53 60 80 84 78 72 74 56 55 63 84 52 51 64
86 88 82 71 85 85 82 79 96 99 94 73 73 82 74 82 97 96 98 97 81 69 87 87 84 80 55 75 64 58 75 75 81 80 86 71 65 49 61 84 76 61 58 58
89 90 90 73 88 93 88 79 93 98 85 80 74 77 79 76 79 96 98 98 93 89 92 88 84 80 73 67 59 66 69 82 84 73 78 76 53 62 76 71 58 59 57 62
90 90 69 73 86 89 91 70 70 88 100 82 73 74 71 74 70 76 94 100 100 94 90 94 86 80 80 72 86 60 71 67 71 69 70 50 49 52 49 48 51 54 53 63
89 79 77 90 88 80 95 75 68 89 97 82 73 64 62 74 78 81 84 98 97 93 99 97 96 83 80 87 84 71 59 55 67 64 52 50 60 59 61 63 63 59 58 60
71 78 89 90 91 82 95 97 80 89 99 98 69 60 57 69 74 78 79 85 98 91 88 92 96 84 63 76 72 70 68 60 64 65 55 66 71 67 68 69 68 69 68 68
68 84 89 92 90 83 95 100 85 95 100 98 89 66 59 64 59 60 63 81 79 97 98 95 92 84 74 76 81 83 63 65 74 72 67 65 75 70 68 65 70 72 72 73
61 73 81 90 94 96 100 74 94 86 99 99 95 70 55 79 66 80 74 76 82 82 98 86 85 77 72 89 86 55 49 51 52 65 66 71 75 76 76 72 73 76 77 75
62 70 77 94 92 89 93 66 85 86 99 99 91 89 62 66 76 70 66 86 98 95 91 91 85 76 69 87 89 57 54 55 58 63 68 79 81 80 80 78 77 74 75 79
61 63 73 78 72 91 100 99 93 95 98 98 98 89 82 100 99 97 98 99 99 97 92 89 91 82 83 97 79 71 70 73 72 68 68 74 80 80 77 75 75 75 74 74
59 58 71 83 93 98 99 94 96 96 99 95 95 99 94 84 99 94 95 98 99 96 94 87 91 93 99 83 73 70 75 75 79 82 81 80 79 83 84 79 76 79 79 78
59 63 84 91 98 91 74 99 99 100 99 99 95 82 92 79 91 98 89 94 99 99 98 91 99 96 80 81 81 81 81 81 82 83 89 93 91 87 86 88 90 88 87 85
68 69 81 80 80 74 97 91 98 96 98 98 96 98 97 95 99 100 100 100 98 99 91 92 96 94 93 89 88 88 87 86 86 86 88 91 96 95 91 91 92 94 96 100
86 83 87 87 90 91 94 98 97 99 97 99 98 98 99 99 100 99 99 100 100 95 91 99 98 90 92 91 90 90 89 88 91 94 95 96 97 96 96 98 100 100 100 100
80 95 98 99 95 86 96 99 96 95 96 100 99 97 98 99 100 99 100 99 98 89 99 96 78 91 89 88 91 97 98 98 98 98 99 98 98 98 99 100 100 100 100 100
69 94 90 97 98 98 99 99 94 88 98 100 100 98 98 100 99 100 100 99 98 99 98 88 92 98 93 96 99 98 99 99 98 97 98 97 98 98 98 98 98 98 98 99
70 96 95 92 77 93 96 97 96 96 99 100 98 99 99 99 99 99 100 99 97 88 89 100 100 100 99 99 99 96 98 84 50 39 41 46 54 69 84 78 81 90 98 99
76 97 96 85 89 88 86 78 83 90 99 88 100 98 99 99 100 99 99 98 97 99 100 100 100 100 99 99 98 86 83 43 34 30 29 29 30 36 39 34 36 47 75 88
99 96 98 94 92 95 84 85 82 95 92 99 100 98 98 99 99 98 100 99 100 99 97 98 100 99 99 99 99 99 54 32 27 24 22 22 23 26 26 24 27 32 38 48

GFSNW_850_rhum_084.txt.gz
RH
68 57 43 38 26 23 38 68 88 74 73 77 90 94 81 71 76 78 90 91 94 74 64 84 83 95 94 100 96 98 96 100 97 84 80 75 71 90 82 87 96 92 92 78
74 66 49 42 34 23 54 79 76 68 70 96 97 80 77 74 77 79 73 69 62 56 64 73 66 67 52 81 86 95 88 91 98 99 96 89 97 90 78 81 81 91 88 77
81 70 54 43 40 27 44 72 94 66 72 88 91 92 84 87 68 75 73 66 65 70 70 62 68 65 52 52 66 63 64 88 72 81 75 85 94 92 76 74 91 88 85 56
86 74 58 43 42 36 46 52 92 87 98 86 90 88 81 94 91 79 79 72 81 81 85 78 77 70 62 50 55 63 57 92 73 75 81 75 73 91 82 86 73 77 57 58
89 80 60 46 45 44 38 68 88 87 93 83 82 81 88 92 86 92 96 87 88 78 89 90 94 90 66 64 58 57 54 72 60 74 72 75 86 87 84 77 75 63 49 50
91 88 67 53 50 49 70 72 80 90 79 81 81 94 87 87 98 80 81 79 92 76 77 76 74 74 74 69 59 64 57 70 72 84 70 71 96 90 86 77 76 57 58 46
90 89 73 60 54 62 73 86 84 83 83 85 80 75 72 80 93 94 77 87 83 69 71 63 58 61 55 55 59 54 58 63 72 86 68 89 61 52 62 64 59 52 49 47
84 82 78 68 56 71 74 89 86 91 97 82 77 79 74 68 85 95 96 87 83 73 71 77 73 77 65 58 58 60 57 69 78 83 81 64 57 54 65 63 64 52 56 63
88 83 80 72 72 82 85 84 99 92 99 76 78 79 73 92 91 86 93 85 72 75 81 82 81 92 66 65 59 57 60 70 78 87 76 70 73 59 56 59 83 54 57 67
81 81 82 65 79 84 84 82 87 89 91 77 73 84 81 75 92 93 84 96 86 78 90 90 87 81 63 80 74 68 77 81 85 84 86 75 67 54 62 77 70 60 58 62
59 67 74 66 80 79 82 86 76 88 84 83 78 85 81 76 78 88 80 83 99 92 92 93 89 82 77 68 67 70 73 82 85 77 81 75 55 61 74 70 64 60 60 61
43 56 69 77 82 83 76 91 92 80 92 64 66 70 68 71 70 87 82 99 99 97 97 90 95 85 85 80 87 67 72 68 71 72 71 53 54 57 54 53 54 55 59 61
44 52 62 76 90 88 81 96 100 97 100 86 70 51 62 61 62 77 83 84 100 99 96 99 95 87 84 87 79 74 65 60 67 65 54 53 62 64 64 60 56 58 61 63
47 53 58 68 76 86 77 91 96 99 98 97 73 60 61 62 72 72 80 82 94 99 97 98 96 97 70 78 75 74 66 62 66 69 70 71 72 70 70 69 69 68 68 67
46 52 56 64 77 93 91 92 95 97 95 95 94 64 59 60 65 66 64 65 91 99 96 98 94 89 86 82 84 86 67 66 73 74 63 64 71 71 73 69 70 71 71 72
42 45 52 63 79 88 91 86 97 97 96 99 92 74 55 58 77 74 65 75 79 86 99 94 84 81 80 93 89 62 56 52 52 64 66 67 72 72 71 71 72 73 75 75
39 44 51 56 66 81 89 80 84 91 100 99 95 79 64 86 93 77 90 87 80 97 99 90 87 81 82 90 94 60 62 56 60 65 66 77 77 77 79 78 77 75 74 78
38 45 48 55 68 81 90 94 96 84 98 96 99 88 73 85 99 89 69 80 99 100 98 86 88 86 85 96 81 73 71 71 74 74 74 75 77 80 77 73 72 72 73 74
35 44 59 82 89 90 85 91 86 98 98 94 97 97 97 79 83 99 99 99 100 94 96 88 89 94 94 86 75 74 78 77 76 79 79 80 82 86 88 84 76 72 73 76
40 47 59 88 89 79 76 99 99 98 100 99 96 95 94 97 99 98 100 96 99 99 97 89 98 89 79 84 82 81 80 81 82 84 88 89 88 89 88 88 90 88 87 83
48 62 61 70 82 74 91 85 94 96 97 99 94 99 96 87 99 99 99 100 99 96 94 99 97 97 95 90 90 89 87 87 87 89 90 91 91 93 92 92 93 94 93 95
67 65 78 88 83 89 90 97 96 94 96 97 99 98 99 96 100 99 99 100 99 98 97 99 96 90 95 94 93 91 88 88 88 89 90 92 94 96 97 98 99 100 100 99
69 81 96 97 96 85 98 98 89 92 91 96 95 90 91 94 100 100 100 99 98 94 99 92 82 92 93 92 93 97 98 99 99 99 98 99 99 100 100 100 100 99 98 98
73 76 68 92 97 91 97 96 82 83 94 92 96 95 98 98 99 99 100 99 99 98 99 92 95 95 89 93 98 100 100 99 89 87 90 92 96 98 98 97 91 93 97 98
78 87 76 93 78 98 99 98 95 73 84 94 94 98 98 99 99 100 99 99 97 92 92 99 100 99 96 99 100 99 100 91 69 34 31 30 33 41 48 35 36 47 72 86
81 92 96 90 96 87 91 85 77 83 91 92 100 98 98 98 99 99 98 98 97 99 99 99 99 100 100 99 99 94 75 58 31 27 24 23 25 31 29 28 28 32 36 44
99 95 98 98 99 98 88 83 88 87 94 94 98 100 97 97 98 98 99 99 99 99 98 100 100 100 99 99 99 99 84 35 30 26 24 23 23 25 26 25 27 30 34 37

GFSNW_850_rhum_087.txt.gz
RH
65 56 48 41 37 30 36 63 88 74 71 77 92 98 88 76 76 79 85 90 92 92 89 100 96 98 98 88 68 87 80 95 95 82 81 69 77 86 72 96 92 95 91 69
67 54 49 43 39 31 36 66 67 66 67 96 96 80 72 73 83 90 77 78 72 62 67 86 76 67 94 90 94 83 88 94 98 98 95 82 76 89 88 78 82 94 83 64
66 58 51 44 39 33 33 59 84 52 71 87 93 92 80 80 72 81 80 76 74 81 76 72 76 79 92 100 97 95 65 99 75 81 76 72 88 85 89 85 91 85 84 61
70 70 55 46 42 35 37 46 96 95 98 88 87 84 81 83 84 75 86 80 83 94 91 86 86 83 69 85 86 91 95 97 78 81 77 72 74 91 86 86 71 77 61 67
82 78 63 51 44 42 39 56 79 86 92 82 81 86 86 83 80 89 97 93 86 90 92 92 94 92 81 70 59 62 59 89 64 79 80 78 89 83 80 74 70 64 56 53
86 78 70 55 49 49 50 67 86 89 79 83 82 87 88 79 68 81 80 88 95 87 88 88 84 81 77 80 72 62 58 72 74 90 74 86 95 93 84 79 76 59 61 47
85 77 73 60 62 64 57 58 74 80 76 80 84 83 80 72 69 94 86 94 92 80 77 68 69 75 74 60 59 59 61 68 72 88 69 92 59 58 76 74 64 64 49 45
88 80 73 60 74 75 69 59 62 92 94 86 79 82 84 73 76 75 85 97 90 83 85 80 73 72 62 55 57 64 61 72 81 86 80 63 58 58 73 74 69 56 53 56
75 72 67 58 70 75 63 54 58 84 93 75 82 84 76 90 97 81 81 68 59 87 87 83 81 90 71 68 65 56 62 68 76 88 78 66 80 61 58 54 79 55 56 68
64 58 62 63 71 68 76 79 70 69 95 70 79 83 83 80 84 93 73 83 59 88 92 89 88 82 68 80 78 76 77 82 84 86 86 72 66 59 64 76 65 56 59 63
55 52 58 65 70 74 65 81 94 92 80 77 66 80 82 81 85 95 76 76 98 98 93 91 92 86 80 75 69 74 76 83 87 80 80 69 54 61 66 65 67 60 61 61
49 52 57 64 74 76 73 70 90 93 94 84 87 71 65 72 73 89 86 87 95 100 100 88 86 91 87 84 83 68 76 72 78 72 73 57 58 60 59 58 58 62 63 61
50 52 56 61 66 71 74 73 93 97 100 80 62 54 66 66 65 72 85 80 99 100 99 97 91 99 86 87 79 74 65 65 71 67 58 61 70 70 66 59 57 59 61 64
44 48 54 54 57 68 86 90 93 91 94 98 68 60 66 65 65 74 77 79 89 87 95 98 96 98 76 84 81 79 66 66 68 71 68 73 73 71 71 70 69 67 65 66
42 45 46 51 56 69 88 85 84 86 89 98 88 65 60 62 70 74 76 78 78 92 96 99 94 89 92 87 88 90 71 69 75 73 61 62 71 75 73 69 68 70 70 71
38 38 40 45 54 61 75 78 94 96 95 99 96 74 51 80 86 81 84 78 89 85 95 97 90 77 86 95 92 65 59 58 58 61 67 66 71 72 72 70 71 72 72 74
33 40 35 42 52 59 64 65 81 90 87 99 92 85 57 60 99 80 90 86 89 77 97 98 86 80 82 88 95 63 69 62 63 67 71 74 76 77 78 78 78 76 74 74
31 42 39 53 62 70 83 86 89 75 89 95 97 90 71 82 88 98 85 90 86 99 98 94 91 89 86 96 73 74 75 73 74 76 76 74 78 83 83 80 76 73 71 71
30 42 60 72 75 87 84 84 77 77 91 98 100 100 98 80 86 91 96 93 94 92 97 87 90 97 96 85 79 74 79 78 77 78 78 79 82 84 84 83 82 83 81 80
35 54 59 81 64 69 80 87 88 86 96 98 97 93 98 90 100 98 93 99 100 99 89 87 96 97 75 83 81 83 84 84 84 82 84 85 84 85 86 84 86 88 87 85
44 54 56 70 70 80 83 84 88 89 92 98 95 99 96 82 97 98 97 100 100 99 92 99 99 93 95 94 90 88 87 86 86 87 90 92 92 92 93 93 92 89 91 92
40 48 65 79 84 85 81 96 93 90 98 80 95 94 91 93 98 98 96 99 100 98 96 100 95 87 95 96 96 93 90 89 87 87 88 88 90 91 92 94 96 98 99 98
52 59 81 84 94 89 98 100 88 92 93 89 86 89 85 86 98 99 100 99 98 99 99 92 84 93 96 96 97 98 99 99 99 96 94 93 92 93 94 96 97 98 98 98
64 63 66 80 100 93 94 96 93 77 83 81 85 93 89 92 99 98 100 99 99 99 98 93 94 96 92 96 99 100 100 91 77 69 70 78 86 86 84 79 60 56 68 82
72 71 66 97 79 97 96 95 98 82 81 85 89 93 96 98 98 99 99 99 98 93 94 99 100 100 97 95 100 100 97 84 66 33 30 27 30 35 31 26 26 32 40 46
77 87 98 92 97 89 91 95 94 86 87 88 96 97 98 96 99 98 98 98 97 98 99 99 98 99 99 100 99 99 94 52 45 31 26 24 23 26 24 22 23 26 27 31
98 95 97 88 98 98 92 85 89 94 95 88 92 93 92 96 97 98 99 98 98 99 98 98 99 99 100 99 99 99 98 50 35 30 29 27 24 22 22 24 26 28 32 35

GFSNW_850_rhum_093.txt.gz
RH
33 32 32 33 30 31 32 62 84 61 70 75 91 96 96 66 76 84 84 91 81 93 99 98 97 97 98 83 67 82 78 93 92 74 71 62 71 80 77 87 92 93 83 66
30 26 30 33 29 31 32 52 52 60 64 97 96 68 71 69 72 84 80 94 80 76 98 99 99 100 98 87 64 73 75 79 96 92 71 78 83 82 72 74 79 95 78 58
25 28 33 34 31 30 33 39 74 51 61 78 86 89 82 81 67 86 76 96 77 81 80 85 95 99 100 83 60 63 57 72 75 76 60 76 88 88 73 69 82 73 74 60
23 30 34 35 31 30 33 40 93 87 84 73 87 86 78 84 77 67 77 90 84 100 97 95 95 94 100 99 99 94 75 97 82 78 77 73 72 85 80 78 62 61 51 60
26 31 34 36 31 30 30 40 58 79 80 79 81 84 86 84 70 76 84 89 85 92 100 100 100 100 92 100 100 100 100 94 87 91 82 77 73 76 78 65 67 66 57 57
28 32 34 37 34 31 31 44 55 55 70 76 78 88 82 75 77 63 69 81 82 84 96 92 86 92 92 91 99 100 100 97 90 96 86 89 90 87 87 81 76 70 79 59
27 33 37 40 39 39 39 42 50 52 62 72 75 78 82 79 73 80 70 71 93 80 68 80 86 100 99 100 90 89 90 93 78 90 94 98 60 63 75 74 72 65 56 47
26 35 40 41 42 46 49 52 50 46 69 78 79 79 84 73 77 83 77 77 67 71 92 88 76 75 61 60 58 70 68 71 77 88 86 65 62 76 88 80 80 70 59 52
27 36 43 41 45 52 59 59 59 52 59 64 70 85 79 91 94 87 71 60 71 92 91 91 89 98 82 77 72 58 61 66 78 82 78 66 82 65 65 64 81 58 65 63
26 35 42 44 48 54 59 70 64 65 63 64 71 70 81 85 88 94 85 79 83 87 97 96 96 93 76 88 85 84 80 79 85 85 84 71 59 64 65 73 63 67 58 59
25 37 39 40 48 55 63 76 83 81 82 73 71 80 83 83 82 94 75 82 85 83 95 91 87 86 91 85 73 82 83 86 88 80 74 72 59 65 62 66 70 65 65 65
22 40 38 36 45 54 67 79 98 96 84 74 68 68 72 74 78 81 83 88 99 99 95 90 98 81 92 91 87 72 78 76 84 74 73 60 62 67 72 66 68 72 67 67
22 42 35 38 51 61 66 74 65 88 67 56 58 63 69 70 72 73 79 81 99 96 99 98 97 100 88 94 85 83 68 72 80 71 62 63 75 76 68 66 68 70 70 70
24 41 32 39 52 92 77 57 61 68 61 60 54 60 62 67 73 74 76 79 90 92 88 99 100 94 84 94 84 88 75 72 73 76 67 71 73 76 74 68 70 68 68 69
26 36 30 36 43 66 62 67 65 68 72 62 54 53 58 75 64 87 93 82 93 95 85 93 96 94 96 93 89 97 78 71 78 74 64 65 70 79 76 74 73 73 73 74
31 31 32 37 38 56 66 69 76 72 98 72 89 57 51 62 93 86 83 93 84 92 89 85 91 87 94 98 81 71 67 67 67 66 76 70 78 80 77 74 74 74 74 76
32 30 29 48 47 54 56 60 71 72 95 80 80 77 59 66 84 98 86 86 89 89 94 96 80 87 90 80 83 66 73 75 75 75 80 80 79 78 79 79 79 79 76 74
30 31 28 58 56 61 69 72 68 72 72 73 96 86 66 72 77 91 97 89 81 83 82 87 95 85 89 96 79 69 75 79 82 82 80 76 77 83 84 84 82 78 76 75
30 26 54 60 51 61 69 72 75 78 74 90 94 98 97 72 76 80 99 97 96 84 98 94 88 95 95 84 80 80 82 84 83 82 82 83 85 87 88 87 85 82 81 81
29 46 67 64 60 71 81 85 84 82 90 87 84 97 98 87 82 89 92 99 100 99 93 82 98 94 71 86 85 87 87 88 87 86 87 87 87 87 87 87 87 87 89 90
37 52 59 67 80 85 84 86 80 86 85 84 79 87 93 81 88 99 91 100 99 99 91 97 98 96 93 98 96 94 93 90 87 87 87 90 93 94 94 93 92 90 89 91
32 40 57 77 81 83 88 91 85 89 93 81 88 85 84 82 93 98 94 91 99 96 95 100 96 96 98 100 100 96 93 89 87 86 88 89 90 91 92 96 97 97 98 98
39 40 67 75 91 90 81 98 98 94 90 83 81 83 77 76 89 95 98 98 96 97 99 95 97 100 99 100 99 99 100 100 99 99 99 98 97 95 96 97 89 70 60 56
35 47 80 76 90 92 90 86 84 76 82 82 85 88 91 89 95 84 98 79 99 98 97 97 97 99 99 99 99 100 99 100 100 88 74 62 47 48 39 29 26 29 31 30
41 44 67 89 79 94 86 92 89 93 89 88 90 84 88 99 95 97 97 98 98 96 96 98 87 90 98 98 98 99 99 99 74 37 32 29 31 30 26 24 24 24 26 28
52 63 83 96 94 99 97 95 99 97 94 92 93 86 96 93 97 98 95 97 95 94 97 76 48 54 93 97 99 99 99 99 90 43 34 33 33 34 29 25 24 25 28 31
75 95 73 74 74 87 96 93 90 92 88 95 84 92 83 92 99 100 98 96 94 82 89 88 64 45 87 97 98 98 98 98 97 78 43 43 34 33 29 27 28 32 32 33

GFSNW_850_rhum_096.txt.gz
RH
20 18 21 26 25 27 32 56 74 58 67 77 83 76 72 64 64 71 76 90 82 78 75 100 97 98 100 82 55 65 61 74 69 61 50 60 88 59 57 90 86 76 74 52
18 15 22 26 24 24 26 47 52 56 59 85 78 58 61 64 65 70 73 94 82 85 81 93 100 100 97 77 52 49 50 68 70 70 48 62 84 60 50 57 66 88 70 50
12 17 23 25 24 24 26 33 89 50 62 84 72 78 58 51 56 75 69 90 69 80 73 67 93 100 99 73 52 55 41 49 58 44 46 51 66 58 56 54 68 55 48 43
12 18 22 25 24 25 27 37 76 67 72 60 68 74 57 55 53 54 70 74 74 90 90 79 87 100 100 98 95 72 51 56 49 49 54 62 60 53 55 72 44 47 43 38
12 17 23 25 24 25 26 48 70 70 67 71 64 60 51 57 52 62 73 72 67 77 92 95 100 100 98 91 98 95 87 75 87 64 57 59 79 52 46 44 40 41 48 43
13 18 24 26 26 27 29 34 41 53 64 60 52 54 56 52 60 51 65 63 71 78 88 72 73 76 90 98 98 93 95 75 71 93 85 72 78 59 55 42 36 38 45 37
13 17 22 24 26 26 28 31 37 49 42 47 50 60 66 59 58 66 61 68 79 72 71 84 95 94 92 94 90 92 92 92 67 78 84 82 58 58 50 50 44 45 44 46
13 15 19 21 25 27 29 30 35 43 46 51 61 64 63 62 67 69 67 66 64 81 88 73 60 60 64 63 64 90 87 74 61 74 70 60 57 65 74 70 60 51 50 42
12 11 17 19 21 29 30 32 38 38 47 47 68 62 69 71 66 58 61 66 79 88 81 74 77 82 71 64 61 54 57 58 64 64 66 61 69 60 63 61 71 52 52 47
11 11 16 20 20 29 31 38 46 49 51 64 69 62 66 82 75 69 68 74 78 80 74 78 82 76 68 70 71 70 64 63 64 64 64 63 54 55 62 79 67 66 57 53
10 12 16 18 23 30 34 40 48 53 61 67 70 75 80 80 79 69 66 77 73 76 84 82 83 73 74 70 62 72 71 72 67 64 63 70 52 61 62 68 65 66 66 63
10 13 18 19 28 38 43 48 44 50 54 57 63 71 73 74 75 81 83 83 95 94 76 74 87 76 71 78 67 59 68 64 70 63 59 55 63 66 74 72 71 74 70 70
12 16 22 25 30 41 46 47 43 49 54 60 59 63 65 66 68 77 77 86 97 100 94 86 88 97 78 73 65 71 57 63 66 62 58 57 75 81 72 71 75 73 71 70
13 19 22 23 31 41 52 49 47 50 48 52 56 63 68 75 80 78 76 78 87 90 100 83 91 98 78 76 72 76 60 62 60 58 56 62 77 80 77 73 70 71 71 69
16 23 23 31 28 57 59 54 53 50 49 53 59 57 58 68 80 90 96 82 88 97 82 82 84 90 91 79 82 77 65 56 56 55 60 60 65 80 78 76 75 76 74 75
25 26 26 34 38 60 58 55 52 50 45 44 66 55 55 68 93 93 88 88 83 83 84 75 84 90 88 94 75 58 66 68 71 59 76 74 82 81 78 74 74 75 74 75
31 28 30 41 45 69 58 45 52 53 56 55 71 62 62 68 84 94 90 94 88 89 95 94 78 77 92 90 74 57 69 75 78 76 81 83 82 81 79 79 78 79 77 74
32 31 54 71 60 71 64 58 64 63 58 57 80 64 66 67 84 82 91 97 88 88 84 83 82 79 88 87 70 77 77 81 82 85 84 78 78 83 84 84 83 80 77 75
32 30 77 68 85 66 66 66 70 65 60 83 79 71 67 73 83 80 99 99 88 93 84 77 83 78 92 79 89 87 91 94 91 86 85 86 87 86 86 87 86 85 83 82
33 60 71 67 74 79 75 77 75 76 75 73 78 98 74 84 80 84 85 98 94 98 81 90 89 76 96 100 99 96 93 91 92 92 90 89 89 91 93 89 88 88 89 91
46 57 64 78 95 82 82 86 82 88 85 84 84 88 78 86 79 83 94 89 92 97 86 92 87 91 93 98 99 100 100 98 95 94 94 94 93 95 97 95 93 91 89 88
32 41 75 90 83 81 84 90 84 82 77 91 83 90 87 85 84 99 95 88 87 86 95 100 87 91 99 98 98 99 98 94 92 89 88 88 89 91 94 95 94 94 94 94
41 40 80 72 92 85 82 91 95 95 94 89 91 80 84 84 90 88 91 94 85 88 100 88 89 92 95 99 97 98 99 99 100 99 100 99 100 100 99 98 90 66 46 40
31 43 78 77 89 82 82 75 78 71 76 77 77 93 86 95 85 76 90 72 92 96 93 91 77 70 74 93 94 97 99 99 99 99 99 97 91 62 48 32 30 32 32 29
32 30 57 85 84 90 77 80 83 86 82 78 89 86 92 96 87 84 88 87 90 86 81 81 79 59 53 77 97 95 99 98 98 83 51 45 49 48 39 28 26 29 27 28
42 54 86 99 93 100 98 95 100 91 90 88 85 83 88 83 93 94 93 92 87 81 86 76 83 76 50 43 90 96 99 98 98 98 46 33 36 42 37 31 29 28 28 31
72 90 80 84 82 92 100 91 95 92 84 88 85 95 83 85 96 96 88 92 79 78 75 71 64 61 51 42 72 94 97 98 97 98 96 82 87 94 37 32 30 30 32 35

GFSNW_850_rhum_099.txt.gz
RH
18 16 13 18 22 23 36 69 68 49 62 72 67 69 57 58 56 62 68 77 69 69 62 100 100 99 100 68 45 55 46 66 59 56 54 56 98 81 60 89 72 64 77 53
13 11 12 18 20 22 30 49 53 49 55 85 67 51 50 55 57 63 66 71 62 66 70 84 99 93 95 60 45 41 45 58 64 56 50 66 71 56 52 52 61 82 83 48
10 8 12 17 19 22 26 48 91 51 56 66 61 59 47 43 50 65 67 79 56 67 66 60 89 97 85 62 42 51 46 42 50 50 50 48 66 54 50 51 79 59 44 41
9 7 12 17 18 22 25 48 63 63 72 47 46 56 41 43 49 48 60 84 63 71 86 67 96 98 87 76 76 54 46 54 38 41 54 52 51 49 52 72 52 77 40 39
8 7 13 16 18 21 24 43 53 57 45 53 47 47 39 43 42 53 63 65 59 65 87 90 95 98 90 94 84 87 66 68 71 65 37 41 51 50 40 44 44 40 37 38
7 6 13 15 18 21 28 29 32 46 47 39 40 41 44 43 46 42 53 52 62 65 71 63 65 68 83 98 91 79 83 61 83 94 86 66 77 54 44 38 32 35 40 32
11 5 12 14 16 21 25 24 41 38 32 31 37 44 49 47 47 53 47 56 66 59 71 75 80 71 70 76 97 80 76 77 70 94 78 89 55 50 47 41 34 27 34 40
8 7 9 12 14 19 22 21 34 35 30 32 41 46 47 48 49 56 55 53 59 74 80 68 60 63 72 67 72 100 94 93 89 88 65 54 54 54 59 61 48 33 33 32
10 9 9 8 12 18 20 18 22 39 31 34 48 47 52 54 48 48 50 59 72 76 72 63 70 72 57 60 60 60 76 70 73 61 64 57 60 54 56 53 71 49 45 39
10 10 9 7 12 16 22 28 27 50 39 58 60 49 51 64 58 50 50 62 69 69 62 69 71 63 58 65 66 65 59 57 63 66 60 59 52 59 58 77 73 59 55 49
14 12 8 7 12 17 28 31 30 58 46 69 69 71 63 65 60 57 57 71 67 65 69 67 68 66 62 64 54 62 64 66 56 53 56 69 52 60 72 67 56 59 58 51
15 13 8 8 14 24 31 31 30 36 63 68 60 70 70 76 75 73 71 77 90 82 69 62 67 64 58 62 79 50 72 60 66 60 61 50 59 64 75 69 66 68 63 60
14 12 8 10 16 28 32 32 35 46 66 69 68 68 63 62 67 72 66 78 89 82 94 77 76 82 62 64 65 59 49 53 58 58 51 51 64 70 72 76 74 76 74 72
16 11 10 14 19 32 36 35 39 45 63 46 59 66 75 74 76 76 75 93 83 88 90 76 80 84 70 62 66 66 51 55 51 48 51 53 68 76 75 82 78 78 70 72
16 13 13 17 24 33 40 40 38 38 71 47 56 59 61 69 84 87 93 92 89 86 72 74 80 78 88 67 72 66 53 54 55 71 61 56 63 80 79 80 78 75 76 74
19 16 15 22 28 33 40 47 46 41 46 74 64 58 68 72 86 92 96 86 87 82 79 64 70 76 79 78 70 50 56 59 65 58 64 74 78 84 83 84 79 76 77 78
22 20 21 28 38 40 43 69 54 44 43 77 64 56 64 68 94 100 100 99 91 87 84 86 68 66 86 84 74 54 63 69 76 80 83 74 81 77 83 84 81 81 80 78
27 26 29 41 52 49 63 73 54 51 48 53 94 63 65 65 73 78 88 92 90 89 76 71 69 63 67 74 63 74 82 82 80 84 90 88 85 85 84 84 84 84 83 79
34 30 41 62 55 55 77 79 59 54 58 78 69 68 72 76 76 82 98 99 82 85 79 69 70 61 81 92 89 89 90 93 96 92 92 88 90 92 90 91 89 87 86 85
36 44 71 77 59 71 81 80 67 70 67 70 62 76 66 78 68 75 78 98 91 95 78 76 79 67 97 100 99 100 99 99 99 96 90 94 93 94 92 89 90 91 90 90
51 58 76 78 79 85 88 92 82 84 80 72 73 71 69 82 73 76 81 88 85 91 86 89 79 88 84 96 100 99 100 97 95 97 100 99 97 96 98 96 94 95 93 90
34 41 76 90 86 89 84 89 87 83 69 79 74 81 78 84 95 82 84 82 88 84 88 100 84 81 84 88 94 94 95 94 93 95 95 95 93 93 95 96 96 95 94 93
34 37 66 92 94 84 79 87 90 89 85 93 87 83 77 86 89 71 82 88 80 68 95 75 76 76 73 84 96 98 91 98 94 94 96 99 100 100 100 100 100 95 70 44
23 41 69 83 81 73 82 82 82 89 96 92 84 86 77 81 77 69 79 65 78 86 84 80 62 67 61 64 78 100 94 100 100 98 98 98 98 98 88 68 37 33 33 29
26 46 66 75 95 97 88 83 90 95 94 81 91 89 78 84 81 74 79 86 82 73 71 73 76 75 72 58 46 53 93 98 100 100 98 80 49 50 53 39 31 28 27 27
41 57 83 91 88 96 99 100 100 87 91 77 84 81 84 83 82 88 89 83 80 76 82 86 72 62 56 53 50 44 77 90 100 100 100 97 38 39 46 40 33 27 28 30
70 91 87 91 86 89 98 95 98 77 82 83 80 82 73 81 89 89 77 81 78 81 79 78 62 50 45 40 38 36 67 93 94 100 100 98 85 71 79 97 42 29 32 33

GFSNW_850_rhum_102.txt.gz
RH
57 30 18 15 20 24 44 80 93 51 66 87 64 86 54 54 52 57 65 70 62 70 65 100 99 100 99 71 43 52 46 74 80 78 57 72 87 90 70 99 93 89 94 68
42 20 21 12 19 24 43 63 64 45 73 98 83 50 48 51 53 59 63 68 54 57 78 95 84 87 81 56 46 51 47 76 86 76 59 63 78 62 67 80 76 87 96 67
22 18 24 11 17 23 32 48 98 55 59 60 57 55 44 42 50 60 69 75 51 59 70 75 96 89 77 67 48 58 49 53 61 87 63 59 69 59 55 61 93 98 85 52
20 17 21 12 18 23 26 51 82 66 94 56 45 53 41 43 49 48 56 78 57 64 87 85 95 97 77 69 69 58 60 70 51 52 46 54 53 55 55 72 90 98 52 52
20 20 34 12 18 22 28 43 53 42 44 47 42 59 44 42 40 51 60 60 56 60 83 82 89 89 93 88 78 92 73 83 55 74 56 46 57 50 47 52 77 66 43 49
24 19 20 12 17 22 27 33 41 47 44 39 41 50 47 43 44 42 48 49 64 59 67 66 66 68 83 98 83 83 79 79 78 96 81 63 84 58 51 42 41 47 48 44
21 10 9 11 15 20 21 22 30 39 42 36 44 40 44 46 45 52 43 50 60 61 65 74 74 70 66 99 98 93 67 76 76 97 76 96 67 57 57 46 36 33 35 42
14 14 9 13 13 17 19 21 26 36 37 33 41 43 44 44 47 57 52 52 55 66 76 80 85 84 91 81 82 97 91 78 92 97 98 62 58 61 67 60 54 42 36 33
30 27 9 14 14 15 17 17 21 36 35 44 42 44 48 59 50 57 50 55 64 71 75 71 80 80 59 82 83 91 92 89 99 87 88 96 70 62 56 54 84 64 58 46
47 14 11 18 12 15 15 19 22 37 46 60 56 56 59 61 60 58 51 60 70 67 71 68 72 72 56 73 72 84 85 82 88 82 88 78 62 65 60 79 98 61 56 53
36 13 15 16 10 14 18 22 28 41 55 67 66 66 62 63 59 71 63 75 75 75 65 63 61 62 63 70 57 64 70 82 93 70 71 95 57 61 81 79 65 66 60 53
15 17 13 13 11 12 23 24 31 39 53 63 58 62 62 73 69 73 79 81 83 81 87 67 68 66 55 61 95 54 87 68 80 71 75 53 64 73 73 72 74 76 68 66
23 45 15 14 12 18 22 24 36 42 60 69 69 71 57 61 64 71 77 85 83 78 86 80 77 78 62 61 77 67 56 54 70 62 55 59 68 69 74 75 77 78 74 73
51 29 17 16 13 23 24 30 38 51 54 54 65 67 73 72 72 69 73 88 82 85 84 79 82 86 79 73 73 74 60 59 59 67 68 55 73 77 77 84 76 75 74 73
28 19 20 15 14 27 26 32 32 43 60 58 64 65 62 71 85 88 84 83 85 79 79 77 81 77 87 72 74 75 55 67 72 84 64 69 76 79 88 82 87 79 78 75
36 26 23 16 17 33 33 32 35 34 47 51 87 67 66 75 93 96 100 89 84 80 80 80 73 71 76 82 78 65 62 67 71 72 76 72 76 83 83 84 80 79 78 82
56 34 26 22 27 37 33 45 51 39 41 62 74 70 68 77 96 98 96 96 89 83 79 83 74 65 79 82 71 82 82 81 79 83 81 77 81 84 84 84 80 80 80 80
41 39 27 26 36 46 39 44 45 46 41 61 99 86 75 73 81 94 89 86 83 82 75 70 70 59 66 80 94 83 84 78 84 85 92 92 89 88 85 85 85 85 82 78
40 35 31 44 50 42 52 52 53 54 54 75 80 93 97 69 76 83 91 83 91 81 81 70 67 66 92 92 94 90 94 97 98 92 89 90 92 92 90 90 89 88 90 90
42 41 38 55 54 57 61 52 62 64 54 67 77 65 95 80 71 72 77 93 93 97 84 69 93 80 97 87 87 97 90 93 98 99 95 91 90 93 96 94 92 92 91 90
46 43 80 89 81 72 77 88 89 84 87 73 71 68 90 78 90 78 76 92 90 93 97 93 91 88 84 81 85 93 100 100 99 98 98 98 99 96 94 97 99 99 99 97
30 34 85 86 82 85 90 94 90 90 86 79 83 80 80 88 87 74 82 80 76 88 92 99 90 92 79 81 84 86 91 98 99 100 98 98 97 95 97 96 95 96 97 96
39 41 72 91 96 94 74 83 97 97 82 92 83 93 86 84 82 72 80 80 86 65 94 84 88 76 71 67 68 68 80 96 99 99 100 100 100 100 100 100 100 100 96 73
29 53 80 83 91 88 88 91 93 94 93 89 82 83 80 80 85 78 83 76 84 95 83 75 92 71 63 59 54 48 46 59 88 99 99 100 100 100 98 96 88 49 32 32
35 44 73 89 98 96 97 88 93 94 90 69 86 84 79 88 91 84 83 80 73 73 87 96 76 67 60 52 49 46 41 42 57 94 99 99 100 91 62 62 46 33 30 27
38 63 89 92 90 99 98 99 100 88 74 69 71 91 93 94 93 87 84 76 83 90 97 83 61 53 47 44 36 32 34 38 43 94 100 100 100 96 54 49 43 36 32 27
78 97 86 88 82 90 95 87 82 73 64 98 88 86 83 86 92 91 91 83 95 87 78 66 54 47 42 38 34 35 38 39 55 99 100 100 100 98 84 77 78 97 74 33

GFSNW_850_rhum_105.txt.gz
RH
98 87 42 20 20 26 63 86 94 55 78 88 69 95 62 54 52 57 65 74 73 73 72 98 96 97 98 74 63 55 48 81 89 78 60 79 87 86 85 98 98 98 94 77
99 88 31 21 16 26 64 72 77 56 96 98 94 58 55 54 52 55 55 76 56 53 92 97 91 77 74 72 60 66 61 80 91 77 65 67 79 73 75 85 99 98 96 76
100 78 29 18 20 26 47 49 89 66 79 62 63 61 46 60 52 55 65 74 51 59 75 71 90 80 76 74 73 57 53 60 74 92 84 67 73 62 65 74 98 98 93 66
98 48 26 23 18 24 45 54 85 60 89 71 58 59 43 46 61 54 55 72 54 62 89 90 94 97 78 70 77 72 74 79 62 68 65 56 57 59 62 84 98 96 84 68
72 35 22 26 19 25 36 44 53 54 53 44 49 63 48 45 47 50 60 59 62 59 86 81 90 95 92 95 76 96 85 72 60 76 64 60 60 53 53 71 94 87 75 56
43 29 44 49 29 24 30 46 44 36 53 48 58 60 48 52 47 44 49 52 66 57 72 69 68 70 81 98 82 85 85 91 84 96 82 58 77 68 52 83 88 64 83 50
34 36 44 46 31 22 26 24 34 42 51 51 58 49 46 50 48 54 49 48 63 63 60 72 76 76 82 99 97 86 73 71 78 98 83 95 80 60 54 54 83 60 53 48
42 26 32 34 31 23 25 26 23 35 48 47 51 50 49 46 50 58 53 53 54 59 74 86 94 84 90 78 77 84 90 84 96 98 97 75 66 70 73 64 79 70 46 42
48 20 16 17 22 20 24 25 23 34 41 58 45 51 50 70 65 61 54 59 62 70 77 84 92 86 77 94 97 83 87 89 93 93 97 96 79 72 63 59 90 72 64 61
37 29 38 24 17 21 24 20 22 32 58 60 50 64 68 62 66 72 61 62 70 70 80 77 80 78 60 84 79 92 88 89 93 93 96 85 64 65 64 80 94 73 69 62
39 62 46 36 17 22 19 21 26 28 57 71 62 61 60 61 65 80 68 81 78 82 69 63 60 60 68 73 66 68 80 88 97 86 86 90 64 69 82 81 71 77 67 60
54 70 53 38 18 22 21 25 31 23 34 69 62 65 69 65 68 70 77 82 79 81 92 79 74 61 60 67 97 68 89 77 83 78 83 59 72 76 77 76 78 79 76 68
73 53 33 27 18 17 25 27 31 23 66 73 67 63 58 57 59 74 79 84 78 79 86 81 81 85 80 62 90 79 66 60 77 71 68 66 75 78 80 78 77 78 79 74
56 42 39 36 19 19 27 25 28 38 48 68 73 78 70 70 66 68 79 81 81 82 83 73 85 84 79 78 73 78 70 65 72 89 77 76 80 80 81 88 80 79 79 81
65 54 48 30 26 23 29 31 37 42 44 70 71 73 67 80 82 76 72 81 80 81 86 76 77 79 88 78 79 85 68 73 86 85 78 75 82 80 88 87 90 86 81 85
51 63 54 34 24 35 37 36 34 32 32 40 90 71 75 89 91 90 87 84 80 80 84 89 72 68 74 82 89 95 85 80 82 86 82 78 80 85 84 84 82 81 82 81
73 70 56 28 30 36 32 40 39 33 48 45 81 79 77 96 96 95 92 88 85 77 79 82 81 70 77 73 84 94 81 85 83 82 82 84 84 89 86 86 83 82 81 80
87 74 46 34 46 42 36 40 38 38 45 58 93 95 78 92 92 83 82 80 81 80 73 71 77 66 78 90 90 85 82 75 86 79 89 94 92 92 89 88 88 88 86 84
94 81 40 43 49 43 39 41 44 42 45 66 78 91 96 81 80 80 80 78 93 78 84 68 72 72 94 79 85 85 91 93 93 93 86 89 92 92 89 93 94 92 89 89
94 48 41 54 47 46 45 48 47 41 48 66 85 74 95 79 78 73 74 91 97 96 87 67 94 91 90 84 78 74 82 98 99 99 97 89 85 91 94 92 96 97 94 93
55 45 77 76 70 56 65 82 82 79 87 73 72 70 89 85 89 80 71 86 92 94 90 88 97 74 90 85 79 82 88 99 97 99 100 100 100 100 97 95 98 99 99 97
30 27 74 81 72 76 87 94 89 93 87 84 79 81 74 86 78 70 80 73 75 74 88 91 76 90 80 79 77 80 81 78 96 100 99 98 100 100 100 100 100 100 99 99
32 40 83 89 96 94 73 81 96 99 85 92 82 94 76 83 74 70 76 76 90 75 92 74 91 82 76 66 58 53 50 49 51 88 99 100 99 98 99 99 100 99 99 99
44 60 95 88 92 90 84 83 88 86 82 78 71 85 81 80 86 78 93 86 88 75 90 88 95 73 64 59 54 46 43 41 37 39 63 97 96 100 100 100 81 86 94 59
45 62 68 96 92 99 100 93 94 94 74 59 78 84 79 94 92 94 87 78 90 88 86 94 74 64 53 47 44 39 33 31 33 36 36 94 100 99 100 100 73 66 44 38
51 72 94 95 92 99 96 99 100 84 55 53 55 95 94 98 94 90 90 91 91 85 98 82 59 45 40 43 41 35 32 34 37 42 48 96 98 100 100 99 69 62 48 36
81 99 81 83 76 88 93 95 86 62 41 93 89 76 74 91 97 98 95 91 89 92 78 60 52 42 43 44 37 33 42 48 51 54 95 98 98 97 100 99 96 83 78 96

GFSNW_850_rhum_108.txt.gz
RH
100 98 94 49 27 29 70 84 97 74 88 93 88 94 62 54 54 60 66 75 78 75 93 97 87 76 93 78 77 64 54 85 90 79 72 79 84 81 89 90 94 100 96 77
100 98 84 34 24 33 76 84 78 82 99 97 95 68 55 57 51 59 56 74 58 54 89 96 69 81 71 75 70 68 60 80 92 74 64 66 78 75 79 89 93 97 99 82
100 100 63 33 28 48 57 67 95 90 100 88 73 68 56 69 57 55 58 68 52 63 79 70 93 67 70 72 77 66 57 63 74 89 77 70 71 63 69 85 95 98 98 93
100 95 48 27 30 44 56 53 77 62 97 78 67 56 46 68 68 56 54 69 54 63 89 85 92 80 86 72 79 73 74 73 66 65 64 60 58 60 63 93 99 94 80 83
98 86 43 26 32 45 55 54 67 63 65 60 67 61 51 50 48 61 65 56 61 52 79 81 89 94 90 91 78 95 85 59 70 75 66 61 59 53 62 87 100 92 76 63
100 70 47 28 29 34 40 46 40 39 60 59 63 67 54 53 49 48 53 56 70 58 69 67 67 70 80 96 90 82 87 92 87 95 78 65 80 76 60 96 97 90 96 86
99 58 42 28 26 28 25 39 33 40 59 54 59 55 47 57 51 58 49 51 63 64 60 73 76 76 91 96 92 80 87 72 78 100 84 93 94 67 58 90 96 82 72 67
90 64 45 80 34 29 28 26 26 34 58 54 54 54 56 51 56 51 49 54 55 56 74 86 91 81 87 80 74 79 88 97 92 99 98 94 71 74 76 70 92 79 79 69
71 68 55 78 47 35 29 29 29 32 52 55 51 54 52 72 72 63 55 54 62 69 86 85 94 94 86 97 93 83 86 89 90 96 97 95 78 67 70 62 94 74 79 67
74 76 74 43 60 52 31 30 34 32 56 65 52 59 67 63 68 77 63 63 72 73 87 84 81 79 64 84 84 92 87 90 91 97 98 88 64 69 65 79 84 77 79 72
92 87 53 41 60 36 32 30 36 28 63 70 62 60 58 67 64 75 68 79 76 79 73 76 72 71 74 76 72 72 83 90 97 89 87 96 70 70 84 83 74 79 77 71
93 81 55 53 73 34 29 36 38 26 32 76 70 65 62 59 61 68 79 81 82 83 85 80 66 68 70 76 97 73 88 78 83 79 84 67 77 78 82 81 81 82 79 73
91 89 54 69 72 42 30 38 30 22 65 69 59 65 60 57 60 68 75 82 79 80 83 82 86 74 86 80 90 81 70 66 79 75 77 77 80 80 88 84 88 82 80 78
95 95 55 66 56 33 31 36 25 34 43 71 83 81 72 68 61 68 71 76 82 82 76 71 79 83 80 81 77 81 71 69 76 87 75 85 80 81 82 88 89 81 84 86
91 90 55 55 50 25 38 33 38 38 39 75 83 74 86 87 77 65 68 68 75 79 85 76 81 76 85 78 80 87 81 83 87 86 81 82 76 83 86 90 92 88 82 91
96 79 70 61 45 31 43 39 44 36 35 44 93 78 97 97 89 84 80 75 74 77 83 87 72 67 71 86 90 90 85 84 85 84 86 83 82 87 86 86 85 88 86 94
94 92 65 45 56 39 39 35 38 34 42 38 85 85 96 98 94 89 85 82 80 75 79 78 83 72 79 78 92 95 82 88 86 83 86 90 84 86 86 88 89 85 85 88
95 95 62 58 43 44 43 34 41 50 40 49 95 97 89 97 89 85 79 76 78 77 74 78 82 73 86 97 82 85 82 73 81 88 84 92 93 91 91 90 90 90 89 88
99 95 56 38 52 43 41 38 50 44 36 65 76 94 96 98 84 77 78 76 95 79 85 73 74 81 90 75 82 85 79 78 83 84 84 90 92 97 94 94 94 93 96 95
99 93 31 45 46 48 38 44 39 36 42 62 91 80 95 80 82 70 72 84 94 95 86 73 82 96 77 80 76 76 78 87 99 99 96 91 83 85 84 83 87 90 98 100
100 73 62 73 57 46 56 68 64 70 82 67 76 75 96 88 89 83 68 93 93 91 88 88 91 91 91 84 78 77 74 75 96 99 99 97 97 98 99 94 95 93 98 100
88 38 82 79 77 74 82 91 91 93 76 88 84 76 84 86 73 79 77 88 78 90 87 92 80 85 86 83 76 73 68 62 58 68 94 100 99 99 99 99 98 99 99 99
40 49 87 78 94 88 82 84 97 97 93 88 88 96 78 81 71 71 82 80 91 70 90 75 85 81 80 74 67 54 47 44 44 42 43 44 76 96 99 99 100 98 97 98
39 77 96 90 98 93 85 83 86 78 79 80 63 93 83 80 86 72 90 84 87 82 84 88 93 78 69 61 52 44 39 38 33 32 33 36 46 84 99 100 100 100 93 75
58 73 73 99 81 100 100 95 92 86 73 55 74 84 80 98 95 93 85 84 98 92 90 90 77 69 57 48 42 39 39 35 33 35 41 45 52 82 99 99 99 99 94 75
88 81 98 99 95 99 97 99 98 78 49 43 48 96 94 99 94 95 95 90 92 84 92 75 64 49 40 38 39 42 37 34 37 46 52 56 77 100 100 99 99 97 95 76
91 99 89 84 80 92 97 93 80 53 37 87 84 66 66 92 98 98 94 91 87 80 83 55 45 40 38 41 43 35 31 41 50 53 57 90 100 99 100 99 100 100 97 96

GFSNW_850_rhum_111.txt.gz
RH
100 82 100 99 66 34 49 79 98 98 100 96 94 92 65 54 49 62 72 80 82 76 94 77 82 82 85 79 81 77 63 84 86 82 70 81 81 86 88 87 93 99 96 82
88 84 98 97 69 32 70 86 95 99 100 96 96 73 58 57 50 51 62 80 58 61 85 92 75 80 72 76 73 87 74 78 90 73 61 61 78 72 83 88 88 98 95 90
82 74 99 90 40 32 64 65 96 99 100 95 78 73 63 65 61 50 58 63 54 66 82 74 84 73 74 73 80 68 60 65 70 89 75 71 73 67 69 85 96 98 98 96
89 97 100 83 31 51 62 52 80 79 97 93 77 57 58 73 71 59 54 61 56 63 91 81 91 75 88 74 79 75 74 65 68 63 65 65 60 63 66 96 91 92 98 97
100 100 92 52 36 52 54 55 70 68 74 72 70 55 54 67 53 66 67 62 58 49 78 80 89 90 87 92 74 93 83 59 84 85 66 61 56 62 85 94 90 84 85 95
100 97 76 46 40 54 59 45 48 45 67 65 62 72 56 53 52 53 59 62 69 63 71 67 68 72 82 94 92 80 88 89 88 98 79 63 89 91 80 90 87 85 96 82
100 96 68 67 39 54 40 45 37 40 64 58 59 58 50 57 54 61 50 59 67 67 61 74 72 81 93 91 89 81 93 77 81 97 92 93 90 78 76 90 90 90 81 73
100 86 89 77 42 46 37 43 33 34 66 59 56 54 60 59 54 51 52 56 60 56 74 81 83 76 92 82 80 78 85 94 92 97 98 93 81 85 83 82 89 82 82 76
100 93 79 68 46 42 38 39 36 32 54 56 52 57 55 74 74 64 56 57 62 71 85 90 97 97 88 91 94 83 83 90 94 94 94 92 84 64 66 68 81 77 79 81
98 92 92 92 63 39 42 38 38 34 59 67 52 57 65 60 69 77 64 64 73 74 89 85 83 81 68 86 91 83 81 87 86 93 97 88 65 76 70 78 76 81 83 80
97 96 92 89 59 60 50 36 41 31 65 74 61 60 62 65 61 75 66 80 78 85 78 79 77 75 77 80 73 76 85 92 98 94 89 92 75 74 87 86 78 82 82 81
92 96 85 52 77 60 40 41 43 33 39 78 67 65 64 60 60 66 83 77 84 78 83 83 79 74 78 81 95 71 85 78 78 81 83 71 83 82 87 85 86 85 86 80
97 96 60 74 82 59 38 42 35 29 66 66 57 61 65 64 67 70 71 80 78 78 79 82 88 73 82 85 88 81 71 72 81 80 78 83 81 84 88 84 87 86 91 81
98 97 91 83 95 76 35 44 27 30 41 66 78 76 69 64 67 66 67 67 75 77 74 76 86 86 81 86 79 82 73 73 78 89 78 85 84 82 80 92 87 83 87 93
99 95 88 61 84 46 39 46 38 42 44 80 84 83 89 83 71 72 77 74 78 75 80 83 85 81 86 83 81 85 84 81 87 87 82 82 76 82 86 84 88 93 87 89
100 95 93 84 76 38 50 42 44 50 42 48 93 86 99 94 84 74 72 71 70 74 79 85 75 70 75 88 92 84 85 86 85 82 87 84 82 86 90 87 88 84 88 92
100 100 93 81 70 46 49 39 41 39 39 36 89 93 95 91 86 83 80 73 71 67 76 77 82 74 72 85 93 85 80 86 90 81 80 92 87 86 81 85 88 88 85 86
100 98 97 89 80 52 52 37 46 50 39 40 96 94 89 92 85 80 76 77 80 74 78 83 84 75 82 98 74 92 82 78 85 87 87 84 83 87 86 85 90 91 91 90
100 100 97 89 63 51 46 42 57 48 40 62 80 95 99 89 78 75 76 77 93 82 88 81 78 84 96 78 73 86 81 75 74 76 78 89 95 95 88 87 91 94 94 97
100 99 100 87 49 44 43 48 45 37 41 55 87 84 98 85 84 76 79 86 96 96 85 78 93 90 68 66 68 73 78 72 72 87 89 91 92 89 89 85 87 90 84 85
99 99 67 76 57 51 51 55 62 62 76 65 83 83 97 89 89 94 72 94 96 97 86 91 88 92 88 78 76 76 73 71 72 78 91 98 98 98 99 98 99 98 98 95
98 86 75 74 67 86 87 86 90 90 71 89 85 82 85 84 72 78 80 90 89 95 84 91 94 83 83 87 80 76 73 64 51 46 45 45 52 68 91 96 97 99 97 97
87 60 68 84 95 91 77 77 99 96 96 90 89 96 78 80 70 78 90 87 93 77 94 85 86 74 87 84 76 69 53 40 38 38 38 38 40 39 44 67 89 94 95 96
84 91 98 96 99 92 84 81 85 70 75 80 64 98 83 80 85 89 86 82 89 82 86 89 91 71 77 73 62 47 39 37 35 34 33 33 35 38 44 65 92 96 97 96
78 82 67 98 79 96 95 85 87 85 71 51 71 84 77 99 94 93 89 92 100 90 91 90 68 74 70 59 45 38 35 36 36 33 34 41 50 54 61 80 94 99 99 95
93 83 97 98 94 100 99 98 97 80 52 33 41 95 91 98 93 98 93 88 88 81 90 76 75 66 51 36 34 34 36 36 32 38 45 54 64 82 95 100 99 99 100 99
96 98 92 87 86 94 97 89 76 57 29 77 83 58 59 93 100 95 95 86 83 59 82 74 54 34 33 32 37 41 34 28 36 49 59 71 82 96 100 100 100 100 99 97

GFSNW_850_rhum_114.txt.gz
RH
100 93 92 97 99 87 81 92 98 100 100 93 97 94 72 50 52 64 78 77 76 80 84 67 85 86 85 77 84 82 66 88 90 82 64 77 86 92 93 91 93 97 94 83
97 80 99 93 92 77 87 96 100 100 98 98 97 76 64 55 51 60 77 72 60 65 81 84 78 83 71 78 80 90 81 82 88 72 59 64 74 70 82 88 88 97 93 87
94 99 98 90 81 82 83 66 99 97 100 92 81 72 71 67 56 47 60 58 58 67 80 71 68 80 75 75 80 70 59 68 70 87 75 73 76 71 82 85 92 97 98 95
99 100 91 90 81 81 76 54 88 83 92 92 84 62 67 75 73 59 56 57 56 69 87 78 91 65 83 76 78 76 70 67 73 66 64 64 62 78 92 90 86 92 98 98
100 100 100 95 77 82 56 55 70 76 83 87 69 56 63 73 60 66 66 65 54 63 85 84 88 86 85 84 73 94 82 68 84 91 66 62 86 84 90 88 94 91 98 97
99 97 88 70 55 94 67 49 56 50 72 70 72 65 59 60 58 55 62 63 64 77 72 68 70 76 89 92 84 79 85 87 88 99 81 64 85 98 92 87 83 86 93 80
100 96 87 71 55 91 54 48 46 46 66 64 57 58 50 60 55 63 55 62 65 68 74 70 74 87 90 83 83 84 90 86 87 98 81 93 96 84 79 87 84 90 82 79
100 97 86 73 53 75 70 46 40 38 67 60 57 54 68 58 54 55 55 59 64 62 76 77 79 74 88 86 80 77 84 92 93 96 85 93 88 86 88 86 92 84 89 84
97 97 89 80 57 68 60 41 42 37 55 60 55 60 57 71 70 62 61 61 62 74 88 77 93 97 85 85 88 83 82 89 90 92 93 92 84 64 70 74 84 80 84 86
100 96 92 84 59 58 49 40 43 38 57 65 55 59 59 56 65 72 65 66 74 76 87 88 89 81 72 88 89 72 73 83 76 88 93 88 66 81 76 80 74 82 85 86
99 99 94 89 82 50 45 44 44 35 61 72 64 61 57 62 59 75 67 80 80 87 80 80 80 77 78 82 75 81 88 95 96 94 88 89 81 75 84 84 82 87 89 84
98 90 96 97 71 56 54 48 46 38 44 77 73 71 64 58 58 58 82 78 82 76 83 84 81 76 82 81 94 74 83 80 83 81 77 73 89 87 88 89 91 91 92 89
100 96 98 97 78 49 51 42 42 36 64 69 66 70 72 73 67 69 70 75 76 76 74 80 86 72 81 87 88 81 73 76 84 83 78 86 76 82 86 90 90 86 86 86
99 100 98 72 83 78 44 41 37 32 39 62 79 74 67 68 66 63 64 68 72 75 74 77 88 84 84 86 78 82 76 75 80 85 81 88 86 82 81 83 79 81 82 90
100 99 99 84 91 82 42 47 36 47 48 80 83 83 83 71 66 72 74 74 76 74 75 84 85 85 86 88 83 88 79 81 88 88 80 82 79 82 84 80 78 89 92 88
99 100 100 83 81 38 47 44 39 53 47 48 90 91 97 81 72 67 72 78 71 69 76 84 78 74 80 88 90 71 80 80 76 79 84 81 81 85 86 79 82 83 79 87
100 100 100 95 66 41 49 45 44 48 42 38 91 92 90 85 83 78 70 63 64 64 74 77 82 75 80 87 91 70 85 87 85 81 77 90 91 91 82 73 77 86 88 84
100 100 100 93 69 47 53 48 50 48 41 40 94 93 88 88 80 81 78 76 77 74 79 83 85 77 85 97 73 87 86 91 89 82 80 78 80 79 88 83 75 82 88 91
100 100 100 99 92 76 51 46 53 55 51 58 79 92 97 89 76 76 81 80 91 87 90 85 81 86 97 80 72 83 86 78 70 75 75 77 83 91 95 92 89 86 88 89
100 100 100 100 98 71 58 47 55 47 44 51 82 85 92 80 78 82 84 92 97 97 86 83 97 91 63 61 63 61 80 77 74 76 81 90 90 93 94 95 97 94 90 87
100 99 99 99 87 64 51 52 61 53 77 69 82 86 95 91 89 94 79 95 97 99 87 92 93 94 85 67 67 72 79 75 70 69 69 73 68 73 72 68 70 81 92 95
98 98 98 98 98 80 91 90 86 88 69 91 92 86 80 81 74 79 90 90 93 92 86 95 96 86 74 81 79 78 72 68 62 50 43 41 38 39 39 39 42 59 81 86
99 98 98 98 99 99 75 78 99 98 96 89 93 97 77 79 72 87 90 88 94 84 96 86 87 71 85 87 82 77 72 56 44 40 37 36 35 35 37 38 41 48 64 85
98 98 98 97 99 95 89 81 82 64 76 83 73 100 82 78 86 89 86 81 92 90 96 88 91 71 85 85 78 65 48 40 38 35 35 34 35 38 41 48 59 73 85 94
98 99 96 98 86 91 75 79 82 79 76 60 70 82 74 99 96 88 91 95 100 92 88 88 61 72 80 75 63 43 37 36 37 35 32 34 44 54 60 68 84 98 95 94
98 98 98 95 93 100 100 94 96 82 64 34 39 93 89 96 93 99 94 89 88 76 91 63 69 76 71 58 40 34 33 36 33 29 33 44 62 75 83 84 96 94 92 91
98 97 87 81 88 86 96 86 83 68 40 77 81 55 58 93 99 92 92 84 78 55 69 73 72 65 45 32 30 34 37 31 24 29 42 58 66 76 78 66 77 97 99 98

GFSNW_850_rhum_117.txt.gz
RH
65 60 94 98 94 86 59 84 99 100 100 93 97 96 71 51 64 65 80 73 73 82 74 83 91 91 84 75 87 90 77 89 92 73 63 71 96 93 94 90 93 93 89 97
67 65 91 97 87 78 68 98 100 99 98 98 98 77 67 49 51 66 72 67 62 66 75 87 79 85 69 81 83 94 83 79 86 71 57 62 76 68 85 83 82 99 92 97
79 87 76 91 88 85 74 81 96 99 99 88 81 73 73 65 53 48 60 59 60 68 73 70 78 81 74 76 79 72 60 69 71 88 80 72 79 87 79 81 89 91 98 95
88 99 97 92 90 72 63 56 93 84 97 92 85 67 67 75 70 60 57 56 62 71 80 81 89 71 82 72 78 75 62 86 80 73 70 64 89 94 82 94 91 92 95 94
97 88 91 84 62 76 48 57 69 78 87 87 77 61 69 74 65 66 66 62 67 71 86 83 89 88 85 74 75 92 82 78 83 86 77 66 86 92 90 88 94 99 83 81
95 95 84 80 67 79 50 52 55 55 75 78 72 66 66 65 61 58 64 59 75 80 71 69 74 78 84 83 79 77 84 85 85 99 90 72 83 96 94 83 83 94 95 86
100 98 99 98 68 76 53 49 44 47 70 71 62 55 51 63 56 65 62 62 64 68 73 76 82 84 79 74 80 85 91 88 89 99 72 92 94 82 84 85 79 89 89 90
99 98 79 57 68 78 60 45 38 40 67 61 57 55 68 57 58 58 62 63 65 72 76 72 69 78 88 76 77 80 85 90 92 88 82 90 75 80 81 94 93 88 93 88
100 98 88 76 60 63 71 43 39 37 52 62 57 61 58 67 68 63 66 64 63 76 88 76 88 93 78 83 72 79 82 85 85 90 91 93 84 67 78 76 85 82 90 92
99 100 98 87 61 53 59 41 41 38 54 64 57 59 57 54 61 72 67 69 72 77 89 90 90 82 76 88 85 68 66 78 72 66 92 86 67 82 79 81 75 85 89 92
97 99 100 94 80 50 49 41 40 37 52 71 63 59 53 57 56 71 64 81 82 88 83 80 81 79 82 84 78 86 87 95 94 93 89 88 83 80 81 80 84 89 88 90
89 98 100 100 84 60 38 45 44 41 40 71 70 68 59 53 52 57 81 75 81 76 83 83 82 77 85 82 90 79 87 80 84 79 74 73 92 89 90 93 96 91 93 88
97 95 98 100 93 69 48 41 44 39 55 74 70 72 71 66 63 67 70 73 73 74 71 78 84 71 82 88 87 81 77 79 85 83 82 87 76 80 79 87 89 87 86 91
88 87 95 99 97 50 38 44 42 33 39 59 77 70 67 68 66 65 67 64 70 72 74 76 86 81 81 84 77 84 78 80 83 84 83 88 90 83 81 89 87 83 84 83
92 93 97 100 98 78 54 47 38 40 41 68 83 80 72 68 70 68 65 68 70 73 74 82 83 86 88 91 85 91 77 82 88 84 74 76 81 82 80 79 78 80 84 85
99 100 99 100 100 77 52 46 40 45 49 43 90 87 87 79 77 78 78 78 73 68 70 82 79 81 83 91 91 68 67 70 64 74 79 78 79 78 83 77 77 75 72 77
88 100 99 100 100 68 60 43 40 41 50 42 96 88 86 86 80 71 65 65 63 59 69 78 82 78 88 90 93 62 76 78 79 78 78 82 86 87 82 78 79 70 77 79
75 100 100 100 99 73 69 53 43 48 44 43 96 90 92 86 81 78 78 70 66 67 72 82 86 81 91 97 75 70 87 89 85 77 74 76 86 86 81 86 88 84 76 84
84 100 100 100 100 94 65 55 55 51 55 56 83 91 94 90 81 79 85 79 89 87 89 87 84 89 97 76 69 78 89 87 81 85 78 72 75 80 90 94 91 88 86 86
99 100 100 99 99 90 70 71 65 60 52 56 77 77 95 82 81 88 87 94 98 96 86 86 98 91 60 54 55 55 80 79 72 76 81 79 82 85 90 91 89 87 85 86
100 99 100 100 100 97 80 62 66 56 81 70 77 84 94 84 91 94 82 97 97 98 87 94 95 96 84 61 62 61 83 81 77 72 67 66 61 50 43 37 35 36 38 44
98 98 98 99 99 99 98 92 85 87 69 91 96 88 76 81 76 84 96 91 94 91 87 95 99 86 68 74 70 76 84 80 72 67 51 36 33 32 31 30 32 36 40 43
100 100 98 99 99 98 97 88 94 99 93 85 90 96 74 82 75 91 90 91 93 89 97 89 86 68 81 83 86 86 79 71 56 40 33 30 30 31 33 35 39 45 52 60
98 98 97 97 97 96 90 86 85 60 76 83 75 100 83 78 89 91 85 82 93 95 94 91 90 65 83 86 83 74 72 53 36 31 30 32 32 31 38 49 57 62 70 77
99 99 97 97 84 86 78 68 79 80 77 69 73 82 73 98 97 88 94 100 98 93 85 85 56 65 85 86 82 72 48 34 30 34 32 28 30 46 58 66 69 67 76 88
97 99 97 97 94 100 100 92 87 84 76 41 43 92 88 92 92 100 92 86 83 74 91 54 58 79 83 79 67 42 33 32 34 30 26 31 43 52 54 51 51 59 80 86
99 97 98 78 81 87 89 79 78 79 57 73 83 58 51 94 100 96 90 85 76 50 57 59 60 76 75 64 41 33 32 34 24 24 34 46 50 51 49 55 75 88 100 95

GFSNW_850_rhum_120.txt.gz
RH
38 55 59 64 80 94 85 83 99 100 88 83 83 80 62 56 60 67 65 58 63 61 60 81 82 87 86 67 74 76 61 76 75 57 46 55 98 88 78 86 86 86 87 98
82 85 78 80 85 78 78 97 100 100 92 93 85 65 60 56 50 58 59 57 56 56 61 72 65 70 60 72 65 74 61 57 70 56 46 50 82 73 68 74 79 94 89 97
82 81 82 81 82 81 56 85 99 92 94 82 70 62 60 54 56 51 54 55 51 50 57 54 60 56 65 73 72 71 54 56 61 76 80 79 89 74 64 64 84 86 98 93
94 90 91 86 65 57 43 66 88 83 90 72 70 62 60 59 58 54 54 51 54 57 59 64 66 59 62 61 72 60 49 66 60 60 57 63 78 85 80 93 87 92 92 92
97 97 90 84 51 35 38 60 79 78 76 78 71 55 63 62 63 59 58 57 61 56 66 65 66 73 64 69 64 76 66 67 62 56 56 56 72 77 67 76 83 75 69 76
99 95 81 66 55 34 42 48 56 59 79 75 64 54 62 60 57 59 63 57 58 60 65 66 69 66 63 62 69 66 72 65 62 73 59 56 64 95 97 94 92 88 96 90
87 99 97 80 72 44 38 40 41 48 65 63 57 49 50 58 55 60 62 61 56 66 71 76 78 71 65 63 63 73 72 71 67 76 53 74 70 70 84 98 95 89 76 71
100 100 100 100 85 66 40 34 34 42 62 54 50 50 57 57 58 57 62 66 68 70 73 65 61 59 66 57 57 59 65 65 69 71 72 70 67 68 72 77 98 80 75 68
91 100 92 79 74 78 64 36 34 34 48 50 53 51 56 54 54 54 65 67 71 76 74 72 77 72 66 66 60 56 63 61 64 70 73 68 65 66 74 68 77 76 72 72
98 94 100 99 86 68 76 37 37 35 54 58 53 47 51 55 57 53 62 68 69 74 70 77 70 62 68 66 68 63 59 61 64 59 71 61 57 72 77 67 74 84 83 82
99 90 97 99 97 73 63 58 38 36 44 60 53 48 48 55 57 54 63 69 72 74 76 66 60 60 62 68 64 68 64 72 76 72 70 70 76 74 68 71 84 92 93 93
76 98 99 100 97 89 74 65 42 41 41 63 60 51 47 45 42 49 71 75 80 72 63 60 57 56 64 62 58 66 71 58 59 59 54 70 87 80 86 90 89 91 96 92
69 92 100 99 96 98 69 60 45 44 50 76 72 67 59 56 54 56 70 70 71 73 64 62 58 60 54 57 58 64 64 68 65 67 64 74 78 88 92 86 91 91 87 95
50 60 77 100 99 97 95 66 50 45 45 57 69 67 67 66 66 63 69 68 71 70 70 69 64 61 64 56 58 63 56 67 62 64 66 78 81 81 83 88 75 81 84 84
61 99 88 96 100 100 89 58 50 44 43 54 82 72 66 63 65 64 64 67 71 73 72 66 65 73 76 73 69 65 63 58 59 49 53 60 66 85 78 82 76 74 72 71
81 96 99 100 100 100 95 54 44 47 57 43 75 74 82 73 72 76 75 76 75 70 71 65 75 80 78 72 67 50 62 64 62 55 74 72 79 79 80 82 77 78 76 71
91 91 100 100 99 98 84 52 54 58 57 46 88 83 89 83 77 75 77 77 70 65 72 74 72 77 85 73 71 47 63 68 65 66 76 82 79 83 81 76 73 73 74 76
96 89 100 100 100 100 97 60 54 61 61 47 89 82 89 87 84 79 70 65 61 64 69 80 74 82 84 84 58 61 76 78 80 79 76 71 71 81 83 80 80 82 80 80
94 87 100 100 100 99 83 59 57 64 65 71 78 81 85 88 86 82 82 75 71 80 70 68 75 64 82 56 56 67 84 81 81 80 76 74 75 76 75 76 80 83 85 84
96 96 99 98 99 98 98 91 69 70 61 67 68 74 84 86 88 84 86 95 80 87 70 87 79 66 56 48 44 43 65 79 79 83 90 78 76 75 78 81 83 82 74 46
100 98 99 99 100 100 99 95 82 71 74 71 72 76 87 85 80 82 83 87 86 90 72 80 78 74 64 48 45 51 67 80 79 76 70 66 67 71 66 48 33 30 30 31
98 98 99 99 99 99 98 94 81 78 68 84 88 90 74 75 71 83 94 87 91 81 81 90 89 64 61 64 55 56 78 80 76 73 66 60 42 28 27 27 28 31 32 37
100 100 98 99 99 98 96 96 89 91 88 88 93 89 74 84 79 88 85 93 87 82 92 76 55 62 67 69 67 68 86 84 79 70 51 30 27 26 27 27 28 33 44 54
100 99 98 97 96 90 89 80 78 56 65 78 74 93 82 84 87 82 85 74 84 92 94 82 57 67 72 74 77 82 90 82 69 47 31 28 28 26 24 36 49 54 58 56
99 99 96 96 79 83 80 60 60 61 66 76 72 90 85 88 89 77 88 97 96 81 75 71 61 60 76 80 86 82 76 64 42 30 28 27 21 31 47 53 52 46 45 51
99 99 96 98 93 99 100 83 77 80 85 57 59 92 89 80 81 97 89 78 74 70 84 55 54 68 78 83 81 73 62 38 28 29 26 22 34 46 45 44 45 55 67 76
99 98 88 86 87 87 94 84 81 80 65 85 86 76 58 83 89 81 80 80 71 59 51 50 57 71 77 78 76 63 37 30 30 25 23 35 43 43 41 46 52 68 77 80

GFSNW_850_rhum_123.txt.gz
RH
56 75 84 94 100 91 82 98 96 80 82 74 62 62 54 51 49 55 51 47 49 47 46 73 76 88 84 55 56 64 51 69 77 58 49 56 94 81 65 89 92 92 92 98
73 69 80 99 99 87 76 97 97 85 94 81 60 52 48 46 46 50 46 49 47 44 48 61 48 53 46 55 54 58 51 54 74 62 51 48 98 72 67 77 94 97 87 97
93 86 96 95 86 80 79 77 92 84 82 65 50 49 50 51 49 46 46 46 43 42 46 41 48 44 56 58 59 66 55 48 57 76 78 90 94 82 72 81 94 88 98 98
98 90 88 78 66 65 58 67 74 69 80 57 54 53 48 52 52 46 46 46 46 49 52 46 46 47 51 54 59 48 48 55 50 54 59 78 68 79 73 94 98 95 100 100
92 87 80 79 70 43 54 56 65 64 57 57 53 55 54 53 55 51 51 51 48 47 56 52 58 54 50 56 55 74 57 54 50 50 48 52 65 73 74 90 83 70 67 94
91 96 85 72 47 40 62 54 60 48 68 54 48 44 51 53 51 55 54 49 48 53 58 54 53 50 51 54 60 60 64 60 54 70 46 47 60 78 92 85 81 88 98 78
89 86 98 91 62 47 45 46 54 42 52 48 49 47 49 53 52 54 54 53 49 62 66 68 61 54 52 48 47 56 61 57 54 70 46 68 61 56 71 84 75 68 64 57
95 92 88 92 90 76 58 46 43 45 44 44 46 45 47 54 54 53 54 60 67 68 68 56 58 49 51 48 46 46 49 54 59 65 62 59 60 57 62 66 76 61 62 57
93 94 93 89 82 62 60 57 43 50 42 44 43 44 47 45 44 53 59 68 70 73 63 61 67 60 54 52 48 44 48 48 57 57 66 59 55 59 63 57 74 62 62 63
95 99 96 98 90 80 55 60 54 43 43 56 51 39 47 47 46 45 56 62 65 74 60 68 59 49 55 55 53 50 50 52 56 52 61 50 50 60 64 72 84 70 74 71
84 90 96 100 96 82 65 48 52 49 55 63 49 50 53 51 48 45 57 60 63 62 69 57 50 49 46 55 48 51 53 54 56 56 56 61 61 62 64 65 76 83 87 81
50 68 92 99 100 98 83 46 44 46 48 53 50 48 47 48 49 50 67 67 67 57 58 51 46 46 46 47 44 52 58 48 50 50 51 60 71 64 72 71 71 82 87 90
54 48 89 99 100 99 99 70 44 44 48 61 61 67 54 48 44 44 58 63 72 73 73 54 47 54 42 43 43 45 48 51 53 56 46 58 68 72 74 73 73 80 86 87
52 58 45 72 98 100 97 94 56 38 43 52 58 59 62 60 54 56 62 68 66 68 72 60 56 54 50 41 48 51 42 54 50 50 51 60 65 66 70 80 80 81 84 86
52 62 86 86 78 99 98 84 52 47 38 57 56 57 61 63 64 64 67 69 78 74 66 60 59 55 63 54 58 51 47 44 50 38 38 47 47 65 75 78 79 82 83 85
55 76 88 94 99 100 100 79 61 53 45 54 66 70 80 71 69 73 73 76 79 76 65 53 57 74 69 59 53 35 38 40 40 41 50 54 63 72 80 75 79 83 83 82
67 86 99 100 100 99 99 66 53 51 51 53 69 64 90 90 86 83 83 80 82 76 67 66 59 66 76 63 58 29 42 49 57 64 71 75 79 77 84 82 85 77 82 78
72 90 96 100 100 100 100 89 61 56 55 49 85 70 77 90 75 71 74 78 78 75 64 68 62 68 71 75 43 36 47 54 64 69 72 66 74 81 84 82 77 84 86 84
82 96 98 99 100 100 98 99 99 65 60 74 72 76 74 90 77 77 80 82 66 74 63 55 61 50 77 51 36 41 56 66 71 78 79 73 78 84 79 80 77 79 86 84
86 100 97 95 99 100 98 99 96 77 70 68 73 59 78 78 73 70 70 78 72 86 64 69 68 59 44 42 44 41 58 70 78 87 88 84 85 79 72 71 81 77 79 72
99 99 100 100 100 100 100 99 98 82 82 75 70 60 85 82 74 74 70 80 78 89 67 76 73 67 53 44 38 37 57 75 74 67 70 70 66 65 69 73 70 46 28 28
98 98 100 98 99 100 100 90 82 83 73 64 79 77 72 86 77 76 87 84 85 85 71 82 83 54 51 54 51 47 68 79 81 78 73 70 64 65 63 36 26 26 24 23
99 99 99 99 99 100 94 91 89 82 73 83 87 84 83 85 89 76 82 93 87 64 86 74 53 52 60 62 65 69 82 84 79 79 70 63 58 35 24 25 23 20 26 39
98 99 99 96 94 88 84 77 81 67 81 88 77 90 82 96 92 87 92 68 76 89 87 79 57 53 56 77 77 80 90 83 76 70 64 48 28 25 25 18 22 38 45 42
99 99 95 96 76 85 84 77 66 69 80 78 77 90 87 91 94 87 83 92 92 70 67 74 54 56 63 77 81 83 84 79 76 68 48 28 26 23 18 31 41 41 38 43
99 100 99 90 88 92 98 90 94 78 83 63 64 86 92 86 87 90 87 73 73 74 82 60 53 66 74 74 78 78 79 81 70 46 28 27 20 21 35 38 35 35 45 61
99 99 93 81 91 83 91 86 84 76 78 81 81 89 71 83 85 81 71 80 77 64 49 45 58 56 70 75 75 76 80 67 43 28 28 20 23 35 34 28 32 49 62 68

GFSNW_850_rhum_126.txt.gz
RH
74 90 99 99 100 94 87 90 94 70 76 86 61 79 51 46 48 53 47 46 47 46 50 76 80 89 82 50 54 65 59 73 94 69 54 63 96 98 92 98 94 95 99 98
68 89 99 99 94 90 90 90 90 63 92 96 73 50 50 46 47 46 43 47 44 40 44 63 45 65 44 46 53 63 57 80 88 75 58 56 100 95 81 85 96 98 98 98
83 81 86 93 91 76 68 75 85 76 67 59 48 51 50 53 46 46 44 44 44 42 43 40 48 45 53 54 56 62 62 62 68 95 96 97 94 94 86 86 98 94 98 98
90 85 84 67 59 41 56 63 71 69 90 59 54 51 46 52 53 45 45 46 45 49 57 48 48 51 50 56 54 59 58 78 56 53 59 64 76 79 84 96 98 98 99 99
93 82 66 78 53 45 58 73 65 57 53 50 48 57 54 52 53 53 50 52 47 47 57 57 62 56 54 62 60 81 64 79 52 58 47 49 77 77 80 86 85 89 85 100
95 95 89 84 71 35 58 52 57 59 58 52 54 49 54 53 50 54 52 54 50 53 59 57 56 50 49 52 58 68 66 79 65 82 50 46 76 85 88 80 77 93 98 76
98 98 97 98 88 41 38 38 38 56 58 55 53 45 49 52 52 58 51 54 54 66 60 62 62 60 51 50 47 55 66 66 60 87 70 84 66 64 65 70 67 62 65 61
89 89 91 93 84 65 47 32 35 51 60 46 46 45 46 54 54 52 52 58 63 65 63 66 63 58 56 55 47 47 51 65 79 87 84 64 63 61 60 68 73 61 69 68
86 85 86 90 94 81 65 38 29 34 61 55 45 45 45 57 55 59 58 61 63 65 63 62 75 78 54 56 48 47 49 56 72 66 78 77 68 62 61 60 85 69 64 74
84 92 89 93 98 88 64 62 41 29 52 48 46 49 54 46 47 59 57 63 64 66 64 66 79 61 53 69 58 51 57 59 69 64 75 62 57 59 62 89 82 76 76 73
60 78 89 95 96 91 86 67 53 42 36 48 43 46 52 50 49 61 59 66 66 73 73 74 64 60 56 62 47 49 59 67 82 65 63 70 59 68 78 74 74 79 80 75
43 57 56 96 95 96 99 80 53 46 43 49 39 38 43 44 51 64 63 71 66 69 78 64 60 60 52 53 63 50 71 59 67 58 71 65 64 67 66 66 74 81 78 78
37 49 60 81 97 96 97 96 67 50 54 58 57 51 44 44 43 44 77 61 70 72 71 72 70 68 54 59 60 46 50 51 68 62 58 72 70 70 71 71 72 78 80 83
38 42 56 71 77 96 100 94 88 53 45 55 54 53 49 46 45 44 44 72 71 70 68 69 80 74 49 59 58 63 53 58 60 58 57 53 64 69 73 72 75 77 82 84
39 41 53 76 98 98 100 97 84 54 52 66 57 57 57 55 56 51 55 56 72 79 74 81 81 59 68 62 70 75 51 64 67 68 47 57 55 64 69 78 77 80 79 74
36 43 63 86 88 95 100 95 79 65 52 57 92 66 71 71 66 64 62 66 73 79 70 67 56 63 70 87 78 48 40 40 39 41 43 48 54 64 69 77 78 81 80 81
43 47 68 92 99 100 99 87 60 55 53 62 81 72 86 87 86 81 79 74 78 74 70 71 64 68 66 85 86 42 34 37 41 47 48 65 65 72 73 74 78 81 82 78
48 53 85 98 99 100 99 97 77 65 53 58 96 88 76 83 84 82 82 83 81 76 71 68 70 74 76 94 63 40 33 41 47 56 53 55 62 71 77 79 79 75 81 86
63 64 83 99 100 100 98 98 100 100 58 86 79 94 94 83 77 78 75 80 89 70 84 73 68 77 87 69 53 47 42 45 52 62 68 68 69 77 77 78 80 83 88 86
84 93 88 100 100 99 97 96 100 100 96 72 91 66 95 76 78 79 77 79 94 96 84 64 88 82 49 31 38 31 37 42 52 70 80 78 78 79 79 78 78 77 78 76
91 100 98 99 94 100 97 100 100 93 89 84 84 63 91 74 86 91 71 95 94 99 86 91 94 90 72 26 28 27 34 41 49 51 60 64 64 72 75 73 66 67 66 35
86 97 100 96 98 100 100 98 93 94 90 72 79 68 66 76 76 91 91 95 94 98 77 94 98 76 46 46 40 40 38 42 58 69 64 68 68 65 60 62 64 47 26 24
100 89 96 99 99 99 98 97 97 97 73 76 83 94 72 79 82 95 96 98 95 66 95 92 78 46 46 43 47 46 48 54 65 78 75 72 70 66 61 56 28 26 19 21
95 98 100 98 93 91 91 85 89 69 68 82 80 85 87 91 99 94 97 85 88 100 100 92 75 21 32 41 50 56 75 77 79 79 76 72 67 60 38 26 24 16 26 33
99 100 96 93 78 77 77 73 76 69 65 77 77 93 84 92 96 93 93 99 99 91 85 80 56 42 43 45 56 73 83 85 80 77 73 64 51 31 26 20 17 29 30 26
100 100 98 92 89 95 92 87 78 68 73 69 66 96 100 94 94 99 94 91 88 77 88 44 33 43 53 59 72 82 82 81 79 73 64 48 30 25 18 20 30 28 24 34
99 99 98 80 81 78 86 78 79 74 83 94 91 98 80 90 98 99 90 89 79 69 53 37 37 44 59 69 79 82 80 83 75 66 47 30 27 18 21 28 25 22 34 50

GFSNW_850_rhum_129.txt.gz
RH
80 77 67 77 79 73 62 79 94 68 77 72 82 87 53 50 59 55 49 49 52 51 68 81 88 83 72 56 54 73 70 84 99 74 62 79 99 100 100 99 96 96 99 97
86 85 86 83 73 72 61 79 80 54 75 91 85 55 55 53 51 50 47 52 49 41 46 66 58 75 53 53 56 70 65 84 94 74 61 66 99 98 88 87 99 97 97 98
98 92 89 86 69 42 46 72 92 68 65 60 62 56 56 57 47 49 46 47 46 48 48 43 49 48 56 53 58 62 63 76 77 94 94 98 84 94 96 89 98 98 98 98
91 85 81 57 71 48 52 60 78 67 93 70 62 60 52 56 59 47 46 50 52 54 62 61 59 57 58 58 55 60 68 92 58 61 69 71 78 82 84 98 99 98 99 99
98 88 79 84 78 42 46 56 68 59 59 55 61 61 59 56 55 60 57 57 53 58 65 66 70 62 61 67 62 83 73 87 65 67 56 67 80 78 86 80 87 100 93 100
100 98 93 94 82 34 33 39 55 59 60 67 69 66 59 59 53 54 53 58 65 69 65 59 58 62 60 55 61 73 74 86 82 88 65 62 75 81 83 77 71 85 99 94
95 98 93 90 89 56 35 32 40 55 68 68 61 52 52 58 57 65 55 56 66 66 62 62 62 63 64 59 60 59 72 77 74 88 74 85 62 66 62 74 67 70 78 74
87 89 88 88 76 65 53 32 34 45 74 60 54 47 48 54 53 56 59 60 57 59 65 74 74 72 63 67 62 62 67 72 87 86 94 66 66 69 68 76 76 70 84 82
72 83 85 89 91 83 69 51 36 42 56 58 44 49 46 66 68 71 59 57 60 65 71 78 82 86 58 63 56 53 55 65 83 79 82 84 62 66 63 64 89 78 77 88
40 62 78 86 95 85 62 61 52 40 47 44 42 50 54 49 58 74 63 62 64 67 83 82 90 73 56 73 65 68 69 73 85 82 84 72 60 63 62 86 76 81 80 83
34 40 50 84 90 90 88 80 54 49 46 41 42 43 46 50 50 73 62 70 69 82 83 86 80 70 65 62 59 55 65 78 87 76 71 72 64 70 83 72 78 79 79 80
31 36 46 50 84 92 95 89 82 52 48 45 44 39 38 43 42 47 60 71 71 78 89 84 82 69 68 65 71 56 64 64 67 67 69 64 64 66 64 62 73 79 78 80
28 34 38 53 81 92 93 90 92 80 62 57 57 42 41 43 43 44 50 67 68 75 78 77 86 80 70 71 71 53 56 57 64 62 56 74 65 68 68 69 67 78 74 82
34 32 38 46 54 69 96 99 92 84 51 62 47 49 40 38 46 48 46 52 68 68 67 73 89 86 59 71 62 71 56 60 66 69 58 60 66 70 68 71 71 72 78 80
49 33 38 48 71 98 86 97 100 85 61 68 55 53 55 59 55 59 60 59 56 68 79 87 89 74 74 76 78 90 59 68 68 64 50 53 52 64 70 74 76 72 73 77
67 38 46 66 82 94 100 100 87 86 72 51 91 69 70 63 66 67 70 71 76 77 79 79 68 66 68 91 92 60 50 43 38 40 37 46 44 53 70 71 72 74 76 75
80 40 55 91 100 98 97 89 64 53 62 53 81 81 83 75 81 83 80 82 80 80 74 81 71 68 67 92 83 51 33 37 41 40 44 58 51 63 68 69 75 78 78 80
87 47 64 95 95 99 99 97 79 61 52 58 93 90 74 82 83 86 82 82 82 77 72 76 75 74 78 96 68 46 41 34 38 41 45 42 52 64 72 74 78 78 75 75
86 58 78 98 100 100 98 96 99 100 84 81 84 95 88 82 80 82 84 86 95 77 88 84 76 83 94 71 60 49 37 43 40 46 51 52 60 66 74 75 78 77 78 81
72 81 97 99 94 99 98 95 97 100 100 100 100 78 97 78 81 85 91 87 97 99 83 69 90 84 57 33 22 27 28 37 42 58 68 66 69 70 76 76 74 73 75 85
87 91 94 99 94 99 96 100 100 99 99 94 90 76 90 69 89 95 80 97 96 100 81 81 94 95 73 22 27 31 39 30 41 37 38 52 58 67 73 78 78 80 82 77
79 95 94 97 98 100 100 98 95 99 92 82 87 79 66 69 72 88 94 99 96 98 79 97 100 72 28 24 24 33 35 39 37 41 43 53 64 64 70 74 76 72 71 62
97 96 96 93 99 99 99 98 98 99 84 82 83 95 68 80 77 94 99 99 97 75 94 93 87 35 20 36 33 28 33 40 40 46 53 57 66 71 72 72 67 67 43 27
96 99 99 97 99 92 90 88 88 68 69 77 74 86 74 83 98 98 99 89 92 99 96 92 65 40 38 28 30 33 36 43 46 54 63 67 73 76 72 64 61 36 26 21
95 98 94 93 80 73 74 73 76 72 65 75 76 89 82 95 99 91 96 97 99 96 84 81 52 42 33 36 36 47 53 54 60 68 70 74 74 71 69 58 30 24 23 31
100 99 98 89 92 95 99 87 77 75 70 66 65 98 99 99 96 98 96 96 91 72 88 49 47 27 26 41 58 59 67 71 74 77 76 75 74 68 51 29 22 25 30 23
100 99 96 76 80 82 85 81 78 79 76 89 91 100 84 88 100 100 94 91 80 43 44 38 44 45 37 40 57 68 75 81 82 81 80 76 63 38 28 20 26 31 26 30

GFSNW_850_rhum_135.txt.gz
RH
62 62 59 66 47 37 47 48 64 58 53 59 80 88 63 56 59 54 52 54 57 60 61 85 92 82 75 52 58 72 68 88 97 75 58 82 94 100 100 99 92 96 98 92
69 63 60 59 74 42 47 53 53 56 50 88 87 59 56 54 56 54 54 56 53 51 52 66 64 68 52 57 60 68 63 87 96 75 61 69 89 86 100 96 100 96 97 96
76 63 57 63 79 42 53 63 81 52 55 68 63 59 58 57 49 51 52 52 51 57 59 52 52 57 52 56 58 62 69 82 83 91 77 80 93 82 84 100 98 97 98 98
87 85 83 78 82 39 44 58 73 75 84 69 65 62 58 61 63 54 56 55 64 64 69 71 64 65 65 60 60 67 72 91 82 77 71 75 84 81 80 99 100 98 98 99
79 81 83 79 76 31 35 52 63 64 65 67 61 64 63 63 59 60 62 64 64 63 67 69 77 73 68 70 66 89 79 92 88 87 65 68 83 72 76 78 89 90 93 99
74 80 81 80 76 34 29 39 55 59 66 70 71 68 62 64 58 57 56 59 67 70 68 64 61 61 62 67 74 74 82 92 92 96 74 72 71 70 76 80 79 90 97 89
64 82 79 78 74 64 40 31 44 58 64 75 69 61 56 61 62 64 58 59 65 60 60 61 69 80 80 80 82 69 77 83 87 98 80 62 47 63 66 76 74 71 82 79
30 58 79 78 77 78 68 51 33 42 69 66 61 52 54 58 58 63 60 55 57 58 65 76 75 74 63 66 78 88 74 79 94 98 98 70 54 71 75 78 73 71 83 81
28 33 50 76 80 80 76 73 58 39 54 50 49 52 52 65 70 67 59 58 60 66 80 80 77 87 64 63 58 73 80 77 89 91 96 91 48 65 66 63 84 78 81 88
46 29 36 48 71 82 83 71 63 52 44 37 42 50 53 54 65 76 68 63 67 72 86 86 93 85 64 73 71 70 82 86 96 95 94 82 57 67 64 66 45 81 81 88
78 37 32 40 49 75 87 88 86 70 50 45 41 44 43 53 55 70 58 71 72 84 83 90 86 86 74 73 67 68 72 81 92 90 90 81 64 71 66 50 76 77 77 83
84 68 33 35 49 59 89 92 94 93 89 58 54 49 42 41 44 49 60 70 77 71 86 90 91 84 82 73 75 61 77 66 65 75 70 45 62 55 52 58 62 74 73 75
89 81 50 34 46 72 97 99 90 89 85 72 66 57 54 53 47 46 51 65 67 81 81 82 88 91 82 82 84 64 61 62 72 62 52 63 52 49 55 56 60 61 69 74
89 86 76 38 40 56 82 87 94 89 78 74 60 50 48 44 44 45 52 56 71 76 80 76 89 90 70 84 71 75 57 69 74 78 64 52 46 48 50 56 62 61 65 72
90 92 84 52 39 51 63 84 95 91 97 76 70 70 67 64 59 56 54 54 56 73 74 89 90 82 86 85 91 98 64 68 67 62 44 42 34 34 44 63 64 61 66 73
97 98 87 67 45 72 97 99 93 99 98 84 83 59 65 66 64 63 66 69 68 64 73 82 74 70 74 93 95 66 51 44 39 40 34 35 35 40 37 49 66 65 63 67
100 100 92 76 49 88 96 85 72 54 71 78 68 64 76 82 77 78 80 84 84 78 75 89 82 75 78 94 96 41 30 37 39 40 44 51 46 42 40 45 61 68 67 69
100 100 98 68 72 99 100 96 86 67 62 58 92 78 67 86 85 88 90 91 93 88 81 86 93 78 85 94 59 44 38 38 35 31 34 40 46 43 42 54 68 74 76 75
100 100 97 83 100 100 94 98 99 98 77 65 83 92 77 84 85 88 94 92 97 86 95 90 88 91 98 64 48 44 43 38 30 27 36 38 43 40 47 55 72 75 77 78
100 100 98 98 99 99 97 99 99 100 100 100 99 86 91 76 90 95 91 98 98 98 92 86 98 93 59 45 38 36 37 41 42 47 40 33 31 41 50 55 60 65 71 75
100 99 100 100 100 100 99 100 100 100 99 99 99 89 89 71 88 92 84 96 98 98 80 94 93 95 79 34 33 29 30 30 29 28 32 43 42 40 40 57 60 65 72 75
98 98 99 99 100 100 100 98 99 99 93 87 99 97 78 73 69 76 99 98 88 99 81 100 98 83 36 36 32 28 35 38 42 42 36 32 43 39 43 49 53 62 72 78
100 100 99 99 99 98 98 98 99 99 94 96 99 99 76 82 81 90 95 99 95 84 97 93 90 53 32 32 27 23 24 28 39 44 44 34 38 46 46 56 55 59 74 80
99 98 98 97 98 94 90 84 86 73 83 92 79 92 83 86 97 91 99 90 92 97 97 95 79 36 33 26 24 25 26 24 29 42 43 48 46 49 49 58 63 63 78 81
99 99 95 97 84 81 80 70 78 83 79 81 78 92 80 99 95 95 95 94 96 95 87 83 40 36 31 34 34 34 34 31 30 46 46 52 58 57 62 58 62 75 79 81
100 99 99 93 93 96 87 84 89 88 89 68 65 99 99 94 94 97 97 97 98 84 90 41 39 34 39 43 42 41 39 39 40 49 57 60 70 70 69 71 73 83 84 81
100 99 96 77 79 76 81 85 89 84 72 86 92 98 82 94 100 99 94 94 83 49 34 30 33 35 40 40 42 45 44 44 44 45 52 72 81 84 84 86 88 90 86 80